[[{"header":{"parameterUnit":"m.s-1","parameterCategory":1,"la1":30.6,"la2":29.2853,"lo1":-89.7004,"lo2":-87.6739,"dy":0.0162,"dx":0.0183,"nx":112,"ny":82,"refTime":"2024-06-12T18:00:00:Z","depth":0,"parameterNumber":2,"parameterNumberName":"U-component_of_WINDS"},"data":[0.0,0.0,0.0,0.0,0.0,0.0,0.0,0.0,0.0,0.0,0.0,0.0,0.0,0.0,0.0,0.0,0.0,0.0,0.0,0.0,0.0,0.0,0.0,0.0,0.0,0.0,0.0,0.0,0.0,0.0,0.0,0.0,0.0,0.0,0.0,0.0,0.0,0.0,0.0,0.0,0.0,0.0,0.0,0.0,0.0,0.0,0.0,0.0,0.0,0.0,0.0,0.0,0.0,0.0,0.0,0.0,0.0,0.0,0.0,0.0,0.0,0.0,0.0,0.0,0.0,0.0,0.0,0.0,0.0,0.0,0.0,0.0,0.0,0.0,0.0,0.0,0.0,0.0,0.0,0.0,0.0,0.0,0.0,0.0,0.0,0.0,0.0,0.0,0.0,0.0,0.0,-2.683,-2.886,-3.018,-3.0657,-2.9704,-2.7647,-2.4247,0.0,0.0,0.0,0.0,0.0,0.0,0.0,0.0,0.0,0.0,0.0,0.0,0.0,0.0,0.0,0.0,0.0,0.0,0.0,0.0,0.0,0.0,0.0,0.0,0.0,0.0,0.0,0.0,0.0,0.0,0.0,0.0,0.0,0.0,0.0,0.0,0.0,0.0,0.0,0.0,0.0,0.0,0.0,0.0,0.0,0.0,0.0,0.0,0.0,0.0,0.0,0.0,0.0,0.0,0.0,0.0,0.0,0.0,0.0,0.0,0.0,0.0,0.0,0.0,0.0,0.0,0.0,0.0,0.0,0.0,0.0,0.0,0.0,0.0,0.0,0.0,0.0,0.0,0.0,0.0,0.0,0.0,0.0,0.0,0.0,0.0,0.0,0.0,0.0,0.0,0.0,0.0,0.0,0.0,0.0,0.0,0.0,0.0,0.0,0.0,0.0,0.0,0.0,0.0,-2.4799,-2.9021,-2.9787,-3.018,-3.0657,-2.9125,-2.7379,-2.5659,0.0,0.0,0.0,0.0,0.0,0.0,0.0,0.0,0.0,0.0,0.0,0.0,0.0,0.0,0.0,0.0,0.0,0.0,0.0,0.0,0.0,0.0,0.0,0.0,0.0,0.0,0.0,0.0,0.0,0.0,0.0,0.0,0.0,0.0,0.0,0.0,0.0,0.0,0.0,0.0,0.0,0.0,0.0,0.0,0.0,0.0,0.0,0.0,0.0,0.0,0.0,0.0,0.0,0.0,0.0,0.0,0.0,0.0,0.0,0.0,0.0,0.0,0.0,0.0,0.0,0.0,0.0,0.0,0.0,0.0,0.0,0.0,0.0,0.0,0.0,0.0,0.0,0.0,0.0,0.0,0.0,0.0,0.0,0.0,0.0,0.0,0.0,0.0,0.0,0.0,0.0,0.0,0.0,0.0,0.0,0.0,0.0,0.0,0.0,0.0,0.0,0.0,0.0,-2.3888,-2.6146,-2.9953,-3.0139,-3.018,-3.0657,-2.9208,-2.7614,-2.6001,-2.2646,0.0,0.0,0.0,0.0,0.0,0.0,0.0,0.0,0.0,0.0,0.0,0.0,0.0,0.0,0.0,0.0,0.0,0.0,0.0,0.0,0.0,0.0,0.0,0.0,0.0,0.0,0.0,0.0,0.0,0.0,0.0,0.0,0.0,0.0,0.0,0.0,0.0,0.0,0.0,0.0,0.0,0.0,0.0,0.0,0.0,0.0,0.0,0.0,0.0,0.0,0.0,0.0,0.0,0.0,0.0,0.0,0.0,0.0,0.0,0.0,0.0,0.0,0.0,0.0,0.0,0.0,0.0,0.0,0.0,0.0,0.0,0.0,0.0,0.0,0.0,0.0,0.0,0.0,0.0,0.0,0.0,0.0,0.0,0.0,0.0,0.0,0.0,0.0,0.0,0.0,0.0,0.0,0.0,0.0,0.0,0.0,0.0,0.0,0.0,0.0,0.0,0.0,-2.596,-2.7348,-3.0248,-3.0201,-3.0139,-3.0491,-2.9063,-2.7448,-2.5834,-2.2068,0.0,0.0,0.0,0.0,0.0,0.0,0.0,0.0,0.0,0.0,0.0,0.0,0.0,0.0,0.0,0.0,0.0,0.0,0.0,0.0,0.0,0.0,0.0,0.0,0.0,0.0,0.0,0.0,0.0,0.0,0.0,0.0,0.0,0.0,0.0,0.0,0.0,0.0,0.0,0.0,0.0,0.0,0.0,0.0,0.0,0.0,0.0,0.0,0.0,0.0,0.0,0.0,0.0,0.0,0.0,0.0,0.0,0.0,0.0,0.0,0.0,0.0,0.0,0.0,0.0,0.0,0.0,0.0,0.0,0.0,0.0,0.0,0.0,0.0,0.0,0.0,0.0,0.0,0.0,0.0,0.0,0.0,0.0,0.0,0.0,0.0,0.0,0.0,0.0,0.0,0.0,0.0,0.0,0.0,0.0,0.0,0.0,0.0,0.0,0.0,0.0,0.0,-2.6123,-2.7928,-2.9849,-3.0015,-3.0015,-3.0036,-2.8031,-2.6289,-2.5315,-2.1033,0.0,0.0,0.0,0.0,0.0,0.0,0.0,0.0,0.0,0.0,0.0,0.0,0.0,0.0,0.0,0.0,0.0,0.0,0.0,0.0,0.0,0.0,0.0,0.0,0.0,0.0,0.0,0.0,0.0,0.0,0.0,0.0,0.0,0.0,0.0,0.0,0.0,0.0,0.0,0.0,0.0,0.0,0.0,0.0,0.0,0.0,0.0,0.0,0.0,0.0,0.0,0.0,0.0,0.0,0.0,0.0,0.0,0.0,0.0,0.0,0.0,0.0,0.0,0.0,0.0,0.0,0.0,0.0,0.0,0.0,0.0,0.0,0.0,0.0,0.0,0.0,0.0,0.0,0.0,0.0,0.0,0.0,0.0,0.0,0.0,0.0,0.0,0.0,0.0,0.0,0.0,0.0,0.0,0.0,0.0,0.0,0.0,0.0,0.0,0.0,0.0,0.0,-2.5627,-2.7348,0.0,-2.9994,-2.987,-2.958,-2.8235,-2.6638,-2.4879,0.0,0.0,0.0,0.0,0.0,0.0,0.0,0.0,0.0,0.0,0.0,0.0,0.0,0.0,0.0,0.0,0.0,0.0,0.0,0.0,0.0,0.0,0.0,0.0,0.0,0.0,0.0,0.0,0.0,0.0,0.0,0.0,0.0,0.0,0.0,0.0,0.0,0.0,0.0,0.0,0.0,0.0,0.0,0.0,0.0,0.0,0.0,0.0,0.0,0.0,0.0,0.0,0.0,0.0,0.0,0.0,0.0,0.0,0.0,0.0,0.0,0.0,0.0,0.0,0.0,0.0,0.0,0.0,0.0,0.0,0.0,0.0,0.0,0.0,0.0,0.0,0.0,0.0,0.0,0.0,0.0,0.0,0.0,0.0,0.0,0.0,0.0,0.0,0.0,0.0,0.0,0.0,0.0,0.0,0.0,0.0,0.0,0.0,0.0,0.0,0.0,0.0,-2.397,-2.5687,-2.7407,0.0,-2.9994,-2.9808,-2.9352,-2.8048,-2.6372,-2.4218,0.0,0.0,0.0,0.0,0.0,0.0,0.0,0.0,0.0,0.0,0.0,0.0,0.0,0.0,0.0,0.0,0.0,0.0,0.0,0.0,0.0,0.0,0.0,0.0,0.0,0.0,0.0,0.0,0.0,0.0,0.0,0.0,0.0,0.0,0.0,0.0,0.0,0.0,0.0,0.0,0.0,0.0,0.0,0.0,0.0,0.0,0.0,0.0,0.0,0.0,0.0,0.0,0.0,0.0,0.0,0.0,0.0,0.0,0.0,0.0,0.0,0.0,0.0,0.0,0.0,0.0,0.0,0.0,0.0,0.0,0.0,0.0,0.0,0.0,0.0,0.0,0.0,0.0,0.0,0.0,0.0,0.0,0.0,0.0,0.0,0.0,0.0,0.0,0.0,0.0,0.0,0.0,0.0,0.0,0.0,0.0,0.0,0.0,0.0,0.0,0.0,0.0,-2.4094,-2.6493,-2.8438,-2.9849,-2.9994,-2.9808,-2.9332,-2.7223,-2.5152,0.0,0.0,0.0,0.0,0.0,0.0,0.0,0.0,0.0,0.0,0.0,0.0,0.0,0.0,0.0,0.0,0.0,0.0,0.0,0.0,0.0,0.0,0.0,0.0,0.0,0.0,0.0,0.0,0.0,0.0,0.0,0.0,0.0,0.0,0.0,0.0,0.0,0.0,0.0,0.0,0.0,0.0,0.0,0.0,0.0,0.0,0.0,0.0,0.0,0.0,0.0,0.0,0.0,0.0,0.0,0.0,0.0,0.0,0.0,0.0,0.0,0.0,0.0,0.0,0.0,0.0,0.0,0.0,0.0,0.0,0.0,0.0,0.0,0.0,0.0,0.0,0.0,0.0,0.0,0.0,0.0,0.0,0.0,0.0,0.0,0.0,0.0,0.0,0.0,0.0,0.0,0.0,0.0,0.0,0.0,0.0,0.0,0.0,0.0,0.0,0.0,0.0,0.0,-2.4094,-2.6493,-2.8438,-2.9849,-2.9994,-2.9684,-2.8851,-2.7638,-2.5835,-2.337,0.0,0.0,0.0,0.0,0.0,0.0,0.0,0.0,0.0,0.0,0.0,0.0,0.0,0.0,0.0,0.0,0.0,0.0,0.0,0.0,0.0,0.0,0.0,0.0,0.0,0.0,0.0,0.0,0.0,0.0,0.0,0.0,0.0,0.0,0.0,0.0,0.0,0.0,0.0,0.0,0.0,0.0,0.0,0.0,0.0,0.0,0.0,0.0,0.0,0.0,0.0,0.0,0.0,0.0,0.0,0.0,0.0,0.0,0.0,0.0,0.0,0.0,0.0,0.0,0.0,0.0,0.0,0.0,0.0,0.0,0.0,0.0,0.0,0.0,0.0,0.0,0.0,0.0,0.0,0.0,0.0,0.0,0.0,0.0,0.0,0.0,0.0,0.0,0.0,0.0,0.0,0.0,0.0,0.0,0.0,0.0,0.0,0.0,0.0,0.0,0.0,0.0,-2.4106,-2.6458,-2.8323,-2.951,-2.9653,-2.9346,-2.863,-2.7828,-2.6187,-2.335,0.0,0.0,0.0,0.0,0.0,0.0,0.0,0.0,0.0,0.0,0.0,0.0,0.0,0.0,0.0,0.0,0.0,0.0,0.0,0.0,0.0,0.0,0.0,0.0,0.0,0.0,0.0,0.0,0.0,0.0,0.0,0.0,0.0,0.0,0.0,0.0,0.0,0.0,0.0,0.0,0.0,0.0,0.0,0.0,0.0,0.0,0.0,0.0,0.0,0.0,0.0,0.0,0.0,0.0,0.0,0.0,0.0,0.0,0.0,0.0,0.0,0.0,0.0,0.0,0.0,0.0,0.0,0.0,0.0,0.0,0.0,0.0,0.0,0.0,0.0,0.0,0.0,0.0,0.0,0.0,0.0,0.0,0.0,0.0,0.0,0.0,0.0,0.0,0.0,0.0,0.0,0.0,0.0,0.0,0.0,0.0,0.0,0.0,0.0,0.0,0.0,0.0,-2.4122,-2.6412,-2.812,-2.9005,-2.9105,-2.8924,-2.8528,-2.7864,-2.6243,-2.3394,0.0,0.0,0.0,0.0,0.0,0.0,0.0,0.0,0.0,0.0,0.0,0.0,0.0,0.0,0.0,0.0,0.0,0.0,0.0,0.0,0.0,0.0,0.0,0.0,0.0,0.0,0.0,0.0,0.0,0.0,0.0,0.0,0.0,0.0,0.0,0.0,0.0,0.0,0.0,0.0,0.0,0.0,0.0,0.0,0.0,0.0,0.0,0.0,0.0,0.0,0.0,0.0,0.0,0.0,0.0,0.0,0.0,0.0,0.0,0.0,-1.8274,0.0,0.0,0.0,0.0,0.0,0.0,0.0,0.0,0.0,0.0,0.0,0.0,0.0,0.0,0.0,0.0,0.0,0.0,0.0,0.0,0.0,0.0,0.0,0.0,0.0,0.0,0.0,0.0,0.0,0.0,0.0,0.0,0.0,0.0,0.0,0.0,0.0,0.0,0.0,0.0,0.0,-2.4181,-2.6412,-2.812,-2.9005,-2.9105,-2.8924,-2.8528,-2.7688,-2.6315,-2.4235,-2.2211,0.0,0.0,0.0,0.0,0.0,0.0,0.0,0.0,0.0,0.0,0.0,0.0,0.0,0.0,0.0,0.0,0.0,0.0,0.0,0.0,0.0,0.0,0.0,0.0,0.0,0.0,0.0,0.0,0.0,0.0,0.0,0.0,0.0,0.0,0.0,0.0,0.0,0.0,0.0,0.0,0.0,0.0,0.0,0.0,0.0,0.0,0.0,0.0,0.0,0.0,0.0,0.0,0.0,0.0,0.0,0.0,0.0,0.0,0.0,0.0,-1.9527,0.0,0.0,0.0,0.0,0.0,0.0,0.0,0.0,0.0,0.0,0.0,0.0,0.0,0.0,0.0,0.0,0.0,0.0,0.0,0.0,0.0,0.0,0.0,0.0,0.0,0.0,0.0,0.0,0.0,0.0,0.0,0.0,0.0,0.0,0.0,0.0,0.0,0.0,0.0,0.0,-2.4488,-2.6531,-2.802,-2.8648,-2.8708,-2.8628,-2.8417,-2.7879,-2.6799,-2.5132,-2.3386,0.0,0.0,0.0,0.0,0.0,0.0,0.0,0.0,0.0,0.0,0.0,0.0,0.0,0.0,0.0,0.0,0.0,0.0,0.0,0.0,0.0,0.0,0.0,0.0,0.0,0.0,0.0,0.0,0.0,0.0,0.0,0.0,0.0,0.0,0.0,0.0,0.0,0.0,0.0,0.0,0.0,0.0,0.0,0.0,0.0,0.0,0.0,0.0,0.0,0.0,0.0,0.0,0.0,-2.2945,-2.3091,-2.3239,-2.4564,-2.5328,-2.5439,-2.2542,-2.2083,-2.3262,-2.2103,0.0,0.0,0.0,0.0,0.0,0.0,0.0,0.0,0.0,0.0,0.0,0.0,0.0,0.0,0.0,0.0,0.0,0.0,0.0,0.0,0.0,0.0,0.0,0.0,-2.709,-2.642,0.0,0.0,0.0,0.0,0.0,0.0,0.0,0.0,0.0,0.0,0.0,0.0,-2.5004,-2.6705,-2.7878,-2.834,-2.834,-2.8301,-2.8301,-2.8075,-2.7373,-2.601,-2.4716,-2.3264,0.0,0.0,0.0,0.0,0.0,0.0,0.0,0.0,0.0,0.0,0.0,0.0,0.0,0.0,0.0,0.0,0.0,0.0,0.0,0.0,0.0,0.0,0.0,0.0,0.0,0.0,0.0,0.0,0.0,0.0,0.0,0.0,-1.796,-1.8365,0.0,0.0,0.0,0.0,0.0,0.0,0.0,0.0,0.0,0.0,0.0,0.0,0.0,-2.3164,-2.4089,-2.4701,-2.5018,-2.5062,-2.5944,-2.6076,-2.5579,-2.6066,-2.6319,-2.6313,-2.5853,0.0,-2.637,-2.5852,0.0,0.0,0.0,0.0,0.0,0.0,0.0,0.0,0.0,0.0,0.0,0.0,0.0,0.0,0.0,0.0,0.0,0.0,0.0,0.0,0.0,0.0,-2.877,-2.8625,-2.8606,-2.8411,0.0,-2.5547,-2.3591,-2.2635,-2.1348,0.0,0.0,0.0,0.0,0.0,0.0,0.0,-2.6001,-2.7096,-2.7995,-2.875,-2.8516,-2.8301,-2.8301,-2.7963,-2.7474,-2.685,-2.5639,-2.4643,-2.3968,-2.2178,0.0,0.0,0.0,0.0,0.0,0.0,0.0,0.0,0.0,0.0,0.0,0.0,0.0,0.0,0.0,0.0,0.0,0.0,0.0,0.0,0.0,0.0,0.0,0.0,0.0,0.0,0.0,0.0,0.0,-1.8369,-1.938,-1.935,-1.982,-1.9872,0.0,0.0,0.0,0.0,0.0,0.0,0.0,0.0,0.0,-2.3858,-2.4611,-2.5403,-2.6228,-2.6837,-2.7122,-2.7137,-2.7773,-2.8432,-2.9097,-2.914,-2.9669,-3.0541,-3.0238,-3.0034,-2.9829,-2.7753,-2.6064,-2.4822,0.0,0.0,0.0,0.0,-2.5143,-2.5195,-2.5863,-2.5841,0.0,-2.4796,0.0,0.0,0.0,0.0,0.0,0.0,0.0,0.0,0.0,0.0,-2.8926,-2.98,-3.0019,-2.998,-2.9785,-2.8652,-2.7129,0.0,-2.4551,-2.3613,-2.1737,0.0,0.0,0.0,0.0,-2.543,-2.6939,-2.8093,-2.8816,-2.8879,-2.875,-2.8555,-2.832,-2.8151,-2.7858,-2.7428,-2.6412,-2.5605,-2.5152,-2.3621,-2.2217,0.0,0.0,0.0,0.0,0.0,0.0,0.0,0.0,0.0,0.0,0.0,0.0,0.0,0.0,0.0,0.0,0.0,0.0,0.0,0.0,0.0,0.0,0.0,0.0,0.0,0.0,0.0,0.0,-1.9818,-2.0708,-2.0447,-2.1307,-2.1569,0.0,0.0,0.0,0.0,0.0,0.0,-2.311,-2.4274,-2.5235,-2.5891,-2.6794,-2.751,-2.8119,-2.8564,-2.8992,-2.9457,-2.9682,-3.0709,-3.2396,-3.2242,-3.2841,-3.4008,-3.3621,-3.3273,-3.2756,-2.9615,-2.7746,-2.6938,-2.7593,-2.7178,-2.6324,-2.7255,-2.7332,-2.714,-2.8123,-2.8332,-2.8033,-2.7354,0.0,-2.5144,-2.5011,0.0,0.0,0.0,0.0,-2.7297,-2.9232,-2.9412,-2.9448,-3.0878,-3.1133,-3.1055,-3.1055,-3.0703,-2.9746,0.0,-2.7285,-2.6699,-2.4625,0.0,0.0,0.0,0.0,-2.6816,-2.8034,-2.9012,-2.952,-2.9277,-2.9015,-2.8762,-2.8476,-2.8359,-2.8151,-2.7721,-2.6979,-2.6348,-2.5893,-2.4746,-2.3582,-2.2375,0.0,0.0,0.0,0.0,0.0,0.0,0.0,0.0,0.0,0.0,0.0,0.0,0.0,0.0,0.0,0.0,0.0,0.0,0.0,0.0,0.0,0.0,0.0,0.0,0.0,0.0,0.0,0.0,0.0,-2.2096,-2.3139,0.0,0.0,0.0,0.0,-2.3393,-2.3847,-2.4721,-2.6195,-2.6813,-2.762,-2.8657,-2.9061,-2.9437,-2.9789,-2.9818,-3.066,-3.2277,-3.2332,-3.3185,-3.4835,-3.4796,-3.4835,-3.4912,-3.4895,-3.4878,-3.465,-3.2059,-2.9994,-2.8656,-3.0682,-2.9527,-2.7092,-2.9784,-3.0333,-2.9605,-2.8929,-2.9376,-3.0127,-2.9307,-2.8246,-2.737,-2.7914,-2.7053,0.0,0.0,-2.8899,-2.9597,-3.1537,-3.2031,-3.202,-3.212,-3.1777,-3.1484,-3.1484,-3.1152,-3.0566,0.0,-2.8797,-2.8066,-2.7565,0.0,-2.6953,-2.7409,-2.7878,-2.8476,-2.9383,-2.9559,-2.9735,-3.0098,-2.9386,-2.8879,-2.8859,-2.8516,-2.8151,-2.7721,-2.7226,-2.6797,-2.6367,-2.5512,-2.4418,-2.3084,-2.1407,0.0,0.0,0.0,0.0,0.0,0.0,0.0,0.0,0.0,0.0,0.0,0.0,0.0,0.0,0.0,0.0,0.0,0.0,0.0,0.0,0.0,0.0,0.0,0.0,0.0,0.0,0.0,0.0,-2.3913,-2.4999,0.0,-2.513,-2.491,-2.5137,-2.6055,-2.5874,-2.6289,-2.7606,-2.7984,-2.8572,-2.9364,-2.9818,-3.0199,-3.0481,-3.0481,-3.081,-3.1409,-3.1409,-3.2885,-3.5623,-3.4482,-3.5042,-3.6772,-3.5502,-3.4784,-3.4463,-3.3363,-3.295,-3.3091,-3.2931,-3.2683,-3.2479,-3.3209,-3.3459,-3.3456,-3.3124,-3.2494,-3.1521,-2.9833,-2.9837,-3.0482,-3.007,-2.9946,-3.0103,-3.0789,-3.1054,-3.1337,-3.2029,-3.2198,-3.2198,-3.2198,-3.2081,-3.1934,-3.1934,-3.1601,-3.1211,-3.0879,-3.0117,-2.9297,-2.8594,-2.8313,-2.8203,-2.8112,-2.8699,-2.9344,-2.9902,-3.0263,-3.04,-3.0215,-2.9922,-2.9512,-2.8937,-2.8535,-2.7988,-2.7285,-2.6557,-2.5971,-2.5571,-2.4961,-2.4297,-2.3574,-2.2402,-2.0898,0.0,0.0,0.0,0.0,0.0,0.0,0.0,0.0,0.0,0.0,0.0,0.0,0.0,0.0,0.0,0.0,0.0,0.0,0.0,0.0,0.0,0.0,0.0,0.0,0.0,0.0,-2.5202,-2.5783,-2.6598,-2.6937,-2.6559,-2.6396,-2.6777,-2.7821,-2.7308,-2.7571,-2.8932,-2.953,-3.0204,-3.0933,-3.194,-3.2587,-3.2763,-3.2778,-3.3052,-3.3629,-3.3501,-3.4944,-3.7733,-3.6574,-3.7055,-3.8724,-3.7561,-3.6764,-3.635,-3.5519,-3.5909,-3.6865,-3.4941,-3.461,-3.5151,-3.523,-3.5384,-3.5503,-3.5332,-3.3789,-3.1719,-3.0889,-3.1238,-3.1956,-3.1695,-3.2035,-3.2453,-3.2486,-3.2374,-3.2258,-3.2258,-3.2351,-3.2443,-3.2443,-3.2419,-3.2413,-3.2413,-3.2031,-3.1699,-3.1513,-3.0918,-3.0254,-2.9687,-2.9562,-2.9492,-2.9219,-2.9676,-3.0146,-3.0391,-3.0703,-3.0781,-3.0469,-3.0293,-2.9902,-2.9199,-2.8613,-2.793,-2.707,-2.6323,-2.5684,-2.5121,-2.4785,-2.4375,-2.3809,-2.2812,-2.166,-2.0332,0.0,0.0,0.0,0.0,0.0,0.0,0.0,0.0,0.0,0.0,0.0,0.0,0.0,0.0,0.0,0.0,0.0,0.0,0.0,0.0,0.0,0.0,0.0,-2.4579,-2.5909,-2.7063,-2.7738,-2.797,-2.7737,-2.678,-2.6886,-2.751,-2.875,-2.8248,-2.8717,-3.0501,-3.1632,-3.2623,-3.346,-3.5531,-3.66,-3.66,-3.66,-3.7474,-3.9128,-3.8747,-3.9451,-4.1172,-4.1113,-4.0899,-4.0529,-4.0977,-4.088,-4.0295,-3.8627,-3.87,-3.9586,-3.6725,-3.518,-3.4667,-3.581,-3.598,-3.558,-3.5118,-3.3037,-3.0841,-3.2625,-3.2425,-3.1701,-3.2817,-3.3091,-3.3033,-3.3014,-3.273,-3.2428,-3.2409,-3.2664,-3.2899,-3.2899,-3.2874,-3.2812,-3.2812,-3.2511,-3.2101,-3.1641,-3.1211,-3.0898,-3.0898,-3.0898,-3.0898,-3.0898,-3.0898,0.0,-3.0898,-3.0898,-3.0898,-3.0898,-3.0488,-3.0059,-2.9657,-2.8836,-2.7949,-2.707,-2.6602,-2.5981,-2.5121,-2.5082,-2.4691,-2.387,-2.2598,-2.1738,-2.1268,0.0,0.0,0.0,0.0,0.0,0.0,0.0,0.0,0.0,0.0,0.0,0.0,0.0,0.0,0.0,0.0,0.0,0.0,0.0,0.0,0.0,0.0,-2.8088,-2.8573,-2.8764,-2.9206,-3.013,-3.149,-3.1497,-2.942,-3.0806,-3.1945,-3.2083,-3.252,-3.3264,-3.4408,-3.5031,-3.5477,-3.5717,-3.663,-3.6953,-3.6598,-3.6953,-3.7177,-3.7301,-3.7567,-3.8576,-4.0232,-3.9613,-3.9762,-4.0477,-4.0035,-3.9548,-3.9114,-3.8977,-3.8943,-3.8774,-3.7063,-3.6692,-3.7101,-3.7146,-3.6664,-3.5866,-3.463,-3.4179,-3.4019,-3.3145,-3.3161,-3.3613,-3.3894,-3.373,-3.3479,-3.3445,-3.3359,-3.3189,-3.2919,-3.2889,-3.2975,-3.2893,-3.2898,-3.2947,-3.3179,-3.293,-3.2598,-3.2461,-3.1855,-3.125,-3.0937,-3.0898,-3.0898,-3.0898,-3.0898,0.0,-3.0898,-3.0898,-3.0898,-3.0898,-3.0781,-3.0508,-3.0059,-2.9238,-2.8242,-2.7064,-2.6016,-2.5336,-2.5102,-2.4766,-2.4629,-2.473,-2.3792,-2.3203,0.0,0.0,0.0,0.0,0.0,0.0,0.0,0.0,0.0,0.0,0.0,0.0,0.0,0.0,0.0,0.0,0.0,0.0,0.0,0.0,0.0,0.0,-3.0599,-3.0967,-3.3143,-3.2201,-3.1158,-3.0813,-3.2622,-3.2995,-3.0665,-3.2736,-3.4132,-3.3955,-3.4709,-3.5485,-3.6197,-3.7153,-3.777,-3.797,-3.9102,-3.9604,-3.9334,-3.9604,-3.9604,-3.9316,-3.9235,-3.9795,-4.0933,-4.0061,-4.0151,-4.1014,-4.0179,-3.9634,-3.9395,-3.9505,-3.9391,0.0,0.0,0.0,0.0,0.0,-3.7017,-3.6294,-3.5228,-3.4774,-3.4522,-3.3857,-3.3554,-3.3534,-3.4165,-3.3932,-3.3481,-3.3442,-3.3304,-3.3117,-3.2889,-3.2932,-3.2983,-3.2781,-3.2957,-3.3155,-3.3172,-3.3097,-3.3008,-3.2832,-3.2402,0.0,-3.1504,-3.1133,-3.0898,-3.0898,-3.0898,-3.0898,-3.0898,-3.0898,-3.0898,-3.0898,-3.0898,-3.0703,-3.0234,-2.957,0.0,0.0,0.0,-2.6021,-2.5669,-2.5171,0.0,0.0,0.0,0.0,0.0,0.0,0.0,0.0,-2.3806,-2.404,0.0,0.0,0.0,0.0,0.0,0.0,0.0,0.0,0.0,0.0,0.0,0.0,0.0,0.0,0.0,0.0,-3.3025,-3.2942,-3.7189,-3.5668,-3.3323,-3.1171,-3.2999,-3.3581,-3.1443,-3.373,-3.5303,-3.5188,-3.6066,-3.6767,-3.7235,0.0,0.0,0.0,0.0,-4.324,-4.31,-4.3182,-4.3162,-4.294,-4.2288,-4.2114,-4.2377,-4.149,-4.1309,-4.1694,-4.0813,-4.0424,-4.0386,-4.0069,-3.988,-3.9784,-3.943,-3.8815,-3.8041,-3.7628,-3.72,-3.6732,-3.6386,0.0,0.0,-3.474,-3.3911,-3.2714,-3.4015,-3.3908,-3.3306,-3.3269,-3.3028,-3.2716,-3.268,-3.2929,-3.3084,-3.2674,-3.3065,-3.3399,-3.3034,-3.3204,-3.3289,-3.293,-3.2832,-3.2676,-3.2335,-3.1523,-3.0957,-3.0957,-3.0918,-3.0898,-3.0898,-3.0898,-3.0898,-3.0898,0.0,0.0,-3.0312,-2.9911,-2.9324,-2.8496,-2.8073,-2.7467,-2.6666,-2.6303,-2.6303,-2.666,-2.7031,-2.7422,-2.7839,-2.8184,-2.8418,-2.8457,-2.6035,-2.5742,0.0,0.0,0.0,0.0,0.0,0.0,0.0,0.0,0.0,0.0,0.0,0.0,0.0,0.0,0.0,-3.5778,-3.5177,-3.4786,-3.6211,-3.7392,-3.7425,-3.558,-3.7065,-3.7105,-3.4224,-3.7218,-3.9076,-3.8405,-3.9787,-4.0868,-4.1256,-4.225,-4.2881,-4.2964,-4.4036,-4.4094,-4.3033,-4.3745,-4.3404,-4.2001,0.0,0.0,-4.2363,-4.1508,-4.1152,-4.1215,-4.0395,-4.0007,-4.001,-3.9943,-3.9708,-3.943,-3.9351,-3.9011,-3.8522,-3.8045,-3.7413,-3.6768,-3.6697,-3.6216,-3.561,-3.5522,-3.523,-3.4849,-3.4499,-3.4293,0.0,-3.378,-3.3651,-3.3505,-3.3193,-3.3373,-3.355,-3.3103,-3.3274,-3.3527,-3.3399,-3.3366,-3.3367,-3.332,-3.3027,-3.2773,-3.2695,-3.1953,-3.1377,-3.1377,-3.1113,-3.0898,-3.0898,-3.0898,-3.0898,-3.0898,-3.0898,-3.0859,-3.0762,-3.0332,-2.9863,-2.9383,-2.8906,-2.8457,-2.7949,-2.8516,-2.8711,-2.8411,-2.8489,-2.8594,-2.8672,-2.8769,-2.916,-2.9805,-2.8594,-2.8196,0.0,0.0,0.0,0.0,0.0,0.0,0.0,0.0,0.0,0.0,0.0,-3.2022,0.0,0.0,-3.4735,-3.7506,-3.7343,-3.709,-3.7872,-3.8684,-3.8168,-3.5325,-3.7733,-3.8563,-3.5921,-3.8783,-4.0599,-4.0171,-4.1586,-4.2506,-4.2674,-4.3327,-4.3695,-4.3651,-4.4307,-4.4326,-4.367,-4.4369,-4.4155,-4.3041,-4.3292,-4.3177,-4.2735,-4.1801,-4.1541,-4.1688,-4.0657,-4.0198,-4.0162,-3.9529,-3.9141,-3.8956,-3.8956,-3.8827,-3.8584,-3.8168,-3.7759,-3.7354,-3.7171,-3.6823,-3.6457,-3.6255,-3.5907,-3.5504,-3.5137,-3.4733,-3.4367,-3.4165,-3.3963,-3.3727,-3.3544,-3.3661,-3.3721,-3.3516,-3.369,-3.3945,-3.3879,-3.3785,-3.375,-3.375,-3.3398,-3.3105,-3.3105,-3.2578,-3.209,-3.1875,-3.1484,-3.1211,-3.1211,-3.1016,-3.0898,-3.0898,-3.0898,-3.0898,-3.0898,-3.0469,-3.0098,-2.9931,-2.9473,-2.916,-2.8973,-2.9364,-2.95,-2.9258,-2.9453,-2.9551,-2.9551,-2.9805,-3.0117,-3.0527,-3.0098,-2.9902,0.0,0.0,0.0,0.0,0.0,0.0,0.0,0.0,-3.0481,-3.2329,-3.3142,-3.4235,-3.6534,-3.6588,-3.6989,-3.9025,-3.904,-3.908,-3.9689,-3.9502,-3.8128,-3.4913,-3.7689,-3.9245,-3.7509,-3.9773,-4.138,-4.1447,-4.2493,-4.3124,-4.3249,-4.3622,-4.3875,-4.3985,-4.4444,-4.4549,-4.4281,-4.4772,-4.4686,-4.4006,-4.3614,-4.3216,-4.2808,-4.1961,-4.1798,-4.2091,-4.1064,-4.0515,-4.0284,-3.9274,-3.8747,-3.86,-3.86,-3.86,-3.8563,-3.8215,-3.8089,-3.7961,-3.7611,-3.7189,-3.6805,-3.6805,-3.6292,-3.5687,-3.5596,-3.5155,-3.4605,-3.444,-3.4165,-3.3908,-3.3835,-3.3851,-3.3916,-3.3824,-3.4067,-3.4235,-3.4127,-3.4035,-3.4018,-3.3985,-3.3693,-3.3421,-3.3406,-3.3144,-3.2773,-3.2374,-3.1914,-3.1621,-3.1494,-3.123,-3.0976,-3.0898,-3.0898,-3.0898,-3.0898,-3.0547,-3.0332,-3.0332,-3.0048,-2.9852,-2.9852,-2.9852,-2.9852,-2.9852,-3.0156,-3.0332,-3.0332,-3.0703,-3.0898,-3.0898,-3.0898,-3.0898,-2.3765,-2.5084,-2.702,-2.8151,-2.8916,-3.0143,0.0,0.0,-3.3725,-3.5375,-3.6311,-3.7081,-3.7743,-3.8365,-3.9043,-3.9707,-3.9781,-3.9652,-3.9336,-3.9575,-3.9524,-3.8753,-3.9403,-3.9931,-4.0066,-4.1411,-4.2411,-4.2776,-4.2913,-4.3352,-4.4113,-4.4219,-4.4621,-4.5413,-4.587,-4.5479,-4.4312,-4.4765,-4.4185,-4.2543,-4.2473,-4.2244,-4.1866,-4.1394,-4.1187,-4.1229,-4.1089,-4.0648,-3.9954,-3.9821,-3.9281,-3.86,-3.86,-3.86,-3.86,-3.8545,-3.8289,-3.8016,-3.7961,-3.7428,-3.6805,-3.6805,-3.6493,-3.6072,-3.5724,-3.5559,-3.5339,-3.4605,-3.4367,-3.4257,-3.3908,-3.4059,-3.4248,-3.3865,-3.4069,-3.4195,-3.3835,-3.3698,-3.3647,-3.3591,-3.354,-3.3482,-3.3413,-3.3347,-3.3203,-3.2793,-3.2363,-3.1953,-3.1562,-3.1455,-3.1309,-3.0937,-3.0898,-3.0898,-3.0898,-3.084,-3.082,-3.082,-3.0762,-3.0742,-3.0742,-3.0742,-3.0742,-3.0742,-3.0781,-3.082,-3.082,-3.0859,-3.0898,-3.0898,-3.0898,-3.0898,-2.7009,-2.8569,-3.0112,0.0,-3.2093,-3.367,-3.4568,-3.499,-3.5522,-3.6677,-3.7374,-3.7965,-3.8605,-3.9001,-3.9516,0.0,-4.0402,-4.0349,-4.0614,-4.0214,-3.9833,-3.9661,-3.9554,-3.9773,-4.0425,-4.1203,-4.2035,-4.2951,-4.3008,-4.3353,-4.419,-4.3989,-4.404,-4.4417,-4.4851,-4.4807,-4.4241,-4.4724,-4.4428,-4.3404,-4.3409,-4.3055,-4.2383,-4.1976,-4.1534,-4.1084,-4.0864,-4.0423,-3.9872,-3.9634,-3.9153,-3.86,-3.86,-3.86,-3.86,-3.86,-3.849,-3.8343,-3.8343,-3.7959,-3.7446,-3.7208,-3.686,-3.6457,-3.6091,-3.5797,-3.5522,-3.521,-3.4954,-3.4698,-3.4533,-3.4454,-3.441,-3.448,-3.4442,-3.4368,-3.4383,-3.4199,-3.3993,-3.397,-3.3565,-3.3198,-3.3187,-3.2989,-3.2822,-3.2838,-3.2688,-3.2461,-3.2285,-3.1816,-3.1367,-3.0937,-3.0898,-3.0898,-3.0898,-3.0898,-3.0898,-3.0898,-3.0898,-3.0898,-3.0898,-3.0898,-3.0898,-3.0898,-3.0898,-3.0898,-3.0898,-3.0898,-3.0898,-3.0898,-3.0898,-3.1016,-2.9354,-3.0937,-3.2239,-3.2588,-3.4458,-3.6109,-3.5742,-3.6219,-3.6954,-3.7767,-3.8135,-3.8624,-3.9465,-3.9677,-4.0046,-4.1106,-4.1148,-4.1087,-4.1357,-4.073,-4.0135,-3.9914,-3.952,-3.9548,-4.0419,-4.0883,-4.1657,-4.306,-4.3051,-4.3385,-4.4347,-4.4053,-4.4008,-4.4282,-4.4592,-4.4725,-4.4592,-4.4902,-4.4882,-4.4403,-4.414,-4.3715,-4.3093,-4.2419,-4.1743,-4.1084,-4.0809,-4.0442,-4.0019,-3.9575,-3.9171,-3.8747,-3.8637,-3.86,-3.86,-3.86,-3.86,-3.86,-3.86,-3.8325,-3.7961,-3.7647,-3.7208,-3.675,-3.6438,-3.6091,-3.576,-3.5614,-3.5376,-3.5138,-3.5028,-3.4771,-3.4639,-3.4941,-3.4696,-3.4469,-3.4711,-3.4462,-3.4176,-3.4131,-3.3638,-3.3129,-3.3033,-3.2749,-3.2618,-3.2759,-3.2724,-3.2712,-3.2781,-3.2148,-3.1543,-3.1113,-3.1055,-3.1016,-3.0898,-3.0898,-3.0898,-3.0898,-3.0898,-3.0898,-3.0898,-3.0898,-3.0898,-3.0898,-3.0898,-3.0898,-3.0898,-3.0898,-3.0957,-3.1055,-3.1055,-3.1289,-3.0057,-3.1359,-3.2863,-3.4037,-3.5284,-3.6402,-3.7134,-3.7668,-3.8188,-3.9063,-3.9235,-3.9484,-4.0294,-4.079,-4.1165,-4.16,-4.2076,-4.1933,-4.0715,-4.0868,-4.079,-3.9976,-3.9528,-3.9598,0.0,-4.0859,-4.1769,-4.3457,-4.3184,-4.3497,-4.4801,-4.4883,-4.528,-4.6177,-4.6221,-4.6046,-4.5563,-4.5563,-4.5324,-4.4883,-4.4009,-4.3584,-4.3566,-4.2291,-4.1506,-4.1102,-4.1084,-4.0864,-4.046,-4.0038,-3.9575,-3.9131,-3.8747,-3.86,-3.86,-3.86,-3.86,-3.86,-3.86,-3.8325,-3.8016,-3.7998,-3.7428,-3.6805,-3.6786,-3.6493,-3.6109,-3.5724,-3.5577,-3.5467,-3.5101,-3.4991,-3.4973,-3.5009,-3.4697,-3.4385,-3.442,-3.4108,-3.3792,-3.3728,-3.3703,-3.3524,-3.3081,-3.2976,-3.2844,-3.2478,-3.2403,-3.2505,-3.2758,-3.2452,-3.2003,-3.1513,-3.1474,-3.1328,-3.0918,-3.0898,-3.0898,-3.0898,-3.0898,-3.0898,-3.0898,-3.0898,-3.0898,-3.0898,-3.0898,-3.0898,-3.0898,-3.0898,-3.1094,-3.1474,-3.1474,-3.1738,-3.206,-3.3547,-3.4825,-3.5742,-3.6896,-3.7927,-3.8515,-3.876,-3.8952,-3.9251,-3.9045,-3.901,-3.9548,-3.9735,-4.0248,-4.1551,-4.1857,-4.2014,-4.2219,-4.1818,-4.1326,-4.083,-4.0365,0.0,0.0,0.0,0.0,-4.3164,-4.3386,-4.4009,-4.5329,-4.4769,-4.4592,-4.4902,-4.4592,-4.437,-4.4193,-4.4193,-4.4104,-4.3971,-4.3664,-4.3269,-4.2715,-4.2284,-4.1745,-4.1102,-4.1102,-4.0882,-4.0478,-4.0056,-3.9593,-3.915,-3.8765,-3.86,-3.86,-3.86,-3.86,-3.86,-3.86,-3.8508,-3.8343,-3.8108,-3.7649,-3.7134,-3.6878,-3.6512,-3.6182,-3.6054,-3.6017,-3.5981,-3.5852,-3.5577,-3.5394,-3.5394,-3.5083,-3.4698,-3.4458,-3.4293,-3.4127,-3.3826,-3.3532,-3.3342,-3.3166,-3.2903,-3.2687,-3.2506,-3.2432,-3.2429,-3.2447,-3.2367,-3.2176,-3.1992,-3.1953,-3.1925,-3.1788,-3.1768,-3.1651,-3.1328,-3.1309,-3.1191,-3.0898,-3.0898,-3.0898,-3.0898,-3.0898,-3.1035,-3.1309,-3.1309,-3.1523,-3.1953,-3.1953,-3.2168,-3.3855,-3.5186,-3.6293,-3.7404,-3.8272,-3.8956,-3.943,-3.9396,-3.9251,-3.907,-3.8709,-3.8479,-3.868,-3.8875,-3.9548,-4.1308,-4.1805,-4.2217,-4.2975,-4.271,-4.223,-4.1721,-4.1249,-4.1062,0.0,0.0,0.0,-4.2766,-4.3386,-4.4019,-4.4837,-4.4473,-4.4282,-4.4459,-4.4149,-4.4015,-4.4015,-4.4015,-4.3926,-4.3767,-4.3767,-4.3236,-4.2314,-4.2314,-4.1873,-4.1102,-4.1102,-4.0956,-4.068,-4.0276,-3.9854,-3.941,-3.8966,-3.8728,-3.86,-3.86,-3.86,-3.86,-3.86,-3.86,-3.8563,-3.8289,-3.7922,-3.7519,-3.7134,-3.6713,-3.6365,-3.6256,-3.6201,-3.6201,-3.6201,-3.6017,-3.5834,-3.5834,-3.5486,-3.5083,-3.4715,-3.4513,-3.4275,-3.389,-3.358,-3.336,-3.3214,-3.2881,-3.2593,-3.2515,-3.2463,-3.2465,-3.2522,-3.2621,-3.2603,-3.2441,-3.2413,-3.2374,-3.2218,-3.2198,-3.2081,-3.1758,-3.1758,-3.1621,-3.1397,-3.1348,-3.1348,-3.1348,-3.1348,-3.1484,-3.1758,-3.1758,-3.1973,-3.2413,-3.2413,-3.2617,-3.5358,-3.6294,-3.7271,-3.8895,-3.9326,-3.943,-3.9823,-3.96,-3.9146,-3.8665,-3.8182,-3.7829,0.0,0.0,-3.9099,-4.08,-4.1816,-4.2573,-4.3076,-4.346,-4.3448,0.0,0.0,0.0,0.0,0.0,0.0,-4.2402,0.0,-4.3609,-4.3665,-4.4013,-4.4415,-4.4857,-4.4857,-4.4813,-4.4813,-4.4813,-4.4592,-4.4149,-4.4149,-4.35,-4.2314,-4.2314,-4.1873,-4.1102,-4.1102,-4.1102,-4.1066,-4.068,-4.0258,-3.9836,-3.9392,-3.8948,-3.86,-3.86,-3.86,-3.86,-3.86,-3.86,-3.86,-3.86,-3.8325,-3.7943,-3.7537,-3.7134,-3.6713,-3.6347,-3.6219,-3.6201,-3.6201,-3.6201,-3.6201,-3.6201,-3.5925,-3.5504,-3.5119,-3.4752,-3.4348,-3.3927,-3.38,-3.3688,-3.3287,-3.29,-3.2596,-3.2538,-3.253,-3.2622,-3.2874,-3.3165,-3.323,-3.2871,-3.2832,-3.2656,-3.2296,-3.2257,-3.2257,-3.2237,-3.2237,-3.2218,-3.2198,-3.2198,-3.2198,-3.2198,-3.2198,-3.2218,-3.2237,-3.2237,-3.2452,-3.2832,-3.2832,-3.3047,-3.6757,-3.776,-3.8394,-3.9131,-3.9552,-3.9863,-4.0236,-3.951,-3.8646,-3.8183,-3.6992,-3.5972,0.0,0.0,0.0,-3.9099,-4.1035,0.0,-4.3429,-4.39,0.0,-4.3954,0.0,-4.3522,-4.3242,-4.3681,0.0,0.0,-4.3225,-4.3574,-4.4517,-4.4314,-4.4237,-4.437,-4.4015,-4.3856,-4.3856,-4.3856,-4.3811,-4.3678,-4.3678,-4.3192,-4.2314,-4.2314,-4.1873,-4.1102,-4.1102,-4.1102,-4.1066,-4.068,-4.0258,-3.9836,-3.9392,-3.8948,-3.86,-3.86,-3.86,-3.86,-3.86,-3.86,-3.86,-3.86,-3.8325,-3.7998,-3.7888,-3.7336,-3.6786,-3.6676,-3.642,-3.6201,-3.6201,-3.6201,-3.6201,-3.6201,-3.6127,-3.5944,-3.5522,-3.5394,-3.51,-3.4385,-3.4018,-3.378,-3.3635,-3.3287,-3.3028,-3.3019,-3.2977,-3.2941,-3.288,-3.2975,-3.3063,-3.325,-3.3262,-3.3223,-3.3105,-3.3105,-3.2969,-3.2687,-3.2637,-3.2531,-3.2218,-3.2198,-3.2198,-3.2198,-3.2198,-3.2355,-3.2637,-3.2637,-3.2851,-3.3262,-3.3262,-3.3289,-3.833,-3.9139,-3.961,-4.004,-4.0004,-3.9873,-3.9681,-3.8827,-3.7681,-3.6489,-3.5332,0.0,-3.3945,-3.5117,-3.6621,0.0,0.0,0.0,-4.3808,-4.4337,-4.4721,0.0,-4.4748,0.0,-4.4272,-4.4531,-4.4544,0.0,-4.4186,-4.4285,-4.4624,-4.4523,-4.4503,-4.4503,-4.406,-4.3722,-4.3499,-4.3499,-4.3499,-4.3499,-4.3499,-4.3059,-4.2314,-4.2314,-4.1873,-4.1102,0.0,-4.1102,-4.1084,-4.0864,-4.0423,-3.9854,-3.9634,-3.9153,-3.86,-3.86,-3.86,-3.86,-3.86,-3.86,-3.86,-3.86,-3.8435,-3.8215,-3.8032,-3.7537,-3.7024,-3.6841,-3.6493,-3.6201,-3.6201,-3.6201,-3.6201,-3.6201,-3.6201,-3.6109,-3.5705,-3.5577,-3.5375,-3.4568,-3.422,-3.4018,-3.3853,-3.3599,-3.3447,-3.3418,-3.3382,-3.3344,-3.3209,-3.3187,-3.3155,-3.3184,-3.3292,-3.3386,-3.3386,-3.3386,-3.3289,-3.3086,-3.3066,-3.2969,-3.2734,-3.2715,-3.2715,-3.2715,-3.2715,-3.2832,-3.3066,-3.3066,-3.3184,-3.3386,-3.3386,-3.3386,-3.9721,-4.0235,-4.0595,-4.1016,-4.0492,-3.968,-3.8794,-3.7734,-3.6367,-3.4349,0.0,-3.2918,-3.2519,-3.3633,-3.5293,-3.7344,0.0,-4.1797,-4.4082,-4.4707,-4.5176,-4.5762,-4.5493,-4.5232,-4.5232,-4.4878,-4.4787,-4.5123,-4.5452,-4.5241,-4.4328,-4.4561,-4.4725,-4.4725,-4.4326,-4.3926,-4.3499,-4.3499,-4.3499,-4.3499,-4.3499,-4.3059,-4.2314,-4.2314,-4.1873,-4.1102,-4.1102,0.0,-4.1102,-4.1102,-4.0644,-3.9964,-3.9909,-3.9392,-3.8673,-3.8618,-3.86,-3.86,-3.86,-3.86,-3.86,-3.86,-3.86,-3.8527,-3.8199,-3.7776,-3.7391,-3.7043,-3.6621,-3.6292,-3.6292,-3.6256,-3.6201,-3.6201,-3.6201,-3.6109,-3.576,-3.565,-3.5412,-3.4697,-3.4477,-3.4293,-3.3945,-3.3853,-3.3792,-3.3715,-3.3694,-3.3647,-3.3538,-3.3532,-3.3392,-3.3027,-3.325,-3.3421,-3.3421,-3.3425,-3.3386,-3.3386,-3.3386,-3.3386,-3.3386,-3.3386,-3.3386,-3.3386,-3.3386,-3.3386,-3.3386,-3.3386,-3.3386,-3.3386,-3.3386,-3.3425,-4.0075,-4.0464,-4.0527,-4.0607,-4.0259,-3.9671,-3.8789,-3.6797,0.0,0.0,-3.2109,-3.1191,-3.0742,-3.2578,-3.4648,-3.6113,-3.8476,-4.1113,-4.4004,-4.4453,-4.5058,0.0,-4.663,0.0,0.0,0.0,0.0,0.0,-4.6176,-4.5494,-4.4296,-4.3934,-4.3748,-4.3748,-4.3678,-4.3589,-4.3499,-4.3499,-4.3499,-4.3499,-4.3499,-4.3059,-4.2314,-4.2314,-4.1873,-4.1102,-4.1102,0.0,-4.1102,-4.1102,-4.0827,-4.0368,-4.0019,-3.9597,-3.9058,-3.8728,-3.86,-3.86,-3.86,-3.86,-3.86,-3.86,-3.86,-3.8582,-3.8508,-3.8197,-3.7888,-3.7833,-3.7244,-3.6695,-3.6695,-3.6438,-3.6201,-3.6201,-3.6201,-3.6182,-3.6127,-3.5852,-3.5577,-3.543,-3.4862,-3.4385,-3.4312,-3.4018,-3.378,-3.3794,-3.3776,-3.3663,-3.3311,-3.3456,-3.3572,-3.3496,-3.348,-3.3495,-3.3495,-3.3442,-3.3386,-3.3386,-3.3386,-3.3386,-3.3386,-3.3386,-3.3386,-3.3386,-3.3386,-3.3386,-3.3386,-3.3386,-3.3386,-3.3386,-3.3386,-3.3613,-4.0566,-4.0839,-4.0899,-4.1112,-4.0355,-3.9199,-3.7926,0.0,0.0,0.0,-3.0781,-3.0224,-3.0195,-3.1807,-3.3606,-3.5098,-3.6953,-3.9355,-4.2598,-4.3242,-4.4101,-4.6035,-4.666,-4.6889,0.0,0.0,-4.7199,-4.7199,-4.6556,-4.5756,-4.4931,-4.4438,-4.4104,-4.3882,-4.3837,-4.3767,-4.3499,-4.3499,-4.3499,-4.3499,-4.3499,-4.3059,-4.2314,-4.2314,-4.1873,-4.1102,-4.1102,0.0,-4.1102,-4.1102,-4.0864,-4.0478,-4.0038,-3.9593,-3.915,-3.8747,-3.86,-3.86,-3.86,-3.86,-3.86,-3.86,-3.86,-3.86,-3.86,-3.8307,-3.8016,-3.8016,-3.7556,-3.7061,-3.686,-3.664,-3.6438,-3.6256,-3.6201,-3.6201,-3.6201,-3.6054,-3.587,-3.565,-3.5302,-3.4972,-3.477,-3.4385,-3.411,-3.411,-3.3945,-3.3743,-3.356,-3.3632,-3.3674,-3.3643,-3.3778,-3.3925,-3.4102,-3.4102,-3.4082,-3.4082,-3.4082,-3.4082,-3.4082,-3.4082,-3.4082,-3.4082,-3.4082,-3.4082,-3.4082,-3.4082,-3.4082,-3.4082,-3.4082,-3.4199,-4.0841,-4.1094,-4.1289,-4.1582,-4.0293,-3.8516,-3.6894,-3.4707,0.0,0.0,-2.9726,-2.9598,-2.998,-3.1103,-3.2511,-3.4277,-3.5664,-3.7734,-4.1172,-4.2187,-4.334,0.0,-4.6504,0.0,-4.707,-4.7449,0.0,-4.7716,-4.6645,-4.5788,-4.526,-4.4806,-4.4415,-4.406,-4.406,-4.3882,-4.3499,-4.3499,-4.3499,-4.3499,-4.3499,-4.3059,-4.2314,-4.2314,-4.1873,-4.1102,-4.1102,0.0,0.0,-4.1102,-4.0919,-4.0607,-4.0185,-3.9762,-3.9318,-3.8875,-3.8673,-3.86,-3.86,-3.86,-3.86,-3.86,-3.86,-3.86,-3.86,-3.838,-3.8105,-3.8105,-3.7831,-3.7446,-3.7134,-3.6933,-3.6695,-3.6311,-3.6201,-3.6201,-3.6201,-3.6201,-3.6109,-3.5797,-3.5669,-3.5486,-3.5174,-3.4771,-3.4532,-3.4532,-3.4202,-3.3945,-3.3945,-3.3872,-3.3835,-3.3926,-3.4127,-3.4354,-3.4679,-3.4713,-3.4707,-3.4707,-3.4707,-3.4707,-3.4707,-3.4707,-3.4707,-3.4707,-3.4707,-3.4707,-3.4707,-3.4707,-3.4707,-3.4707,-3.4707,-3.4746,-4.043,-4.0879,-4.123,-4.1269,-3.9629,-3.7695,-3.6352,0.0,0.0,-2.995,-2.9277,-2.9121,-2.9579,-3.0419,-3.1699,-3.3821,-3.5234,-3.7285,-4.0781,-4.2266,-4.3713,-4.5512,0.0,0.0,-4.7519,-4.7851,0.0,-4.8057,-4.6439,-4.5149,-4.4375,-4.3874,-4.3633,-4.3589,-4.3589,-4.3544,-4.3499,-4.3499,-4.3499,-4.3499,-4.3499,-4.3059,-4.2314,-4.2314,-4.1873,-4.1102,-4.1102,0.0,0.0,-4.1102,-4.1084,-4.1011,-4.0607,-4.0203,-3.9781,-3.9336,-3.8911,-3.86,-3.86,-3.86,-3.86,-3.86,-3.86,-3.86,-3.86,-3.8582,-3.8545,-3.8545,-3.8252,-3.7943,-3.7924,-3.7336,-3.6695,-3.6311,-3.6201,-3.6201,-3.6201,-3.6201,-3.6201,-3.6164,-3.587,-3.5577,-3.5541,-3.5192,-3.4936,-3.4936,-3.4623,-3.4348,-3.4348,-3.4037,-3.4057,-3.4705,-3.4501,-3.4427,-3.4744,-3.4743,-3.4707,-3.4707,-3.4707,-3.4707,-3.4707,-3.4707,-3.4707,-3.4707,-3.4707,-3.4707,-3.4707,-3.4707,-3.4707,-3.4707,-3.4707,-3.4922,-3.9883,-4.0644,-4.1211,-4.1211,-3.9531,-3.7562,-3.6274,0.0,-3.1152,-2.9872,-2.9219,-2.9062,-2.952,-3.0087,-3.1094,-3.2988,-3.3535,-3.4824,-3.8044,-3.9336,-4.0918,-4.3418,-4.5098,0.0,0.0,0.0,-4.7948,-4.7441,-4.6459,-4.5367,-4.4249,-4.3748,-4.3633,-4.3926,-4.3633,-4.3499,-4.3499,-4.3499,-4.3499,-4.3499,-4.3499,-4.3059,-4.2314,-4.2314,-4.1873,-4.1102,-4.1102,0.0,0.0,-4.1102,-4.1102,-4.1066,-4.0662,-4.0258,-3.9836,-3.9373,-3.8948,-3.86,-3.86,-3.86,-3.86,-3.86,-3.86,-3.86,-3.86,-3.86,-3.86,-3.86,-3.849,-3.8289,-3.805,-3.7391,-3.675,-3.6585,-3.6384,-3.6201,-3.6201,-3.6201,-3.6201,-3.6201,-3.6072,-3.5981,-3.5981,-3.565,-3.5339,-3.5339,-3.5009,-3.4661,-3.444,-3.4257,-3.4283,-3.4561,-3.4633,-3.488,-3.5457,-3.5504,-3.5488,-3.5488,-3.5488,-3.5488,-3.5488,-3.5488,-3.5488,-3.5488,-3.5488,-3.5488,-3.5488,-3.5488,-3.5488,-3.5488,-3.5488,-3.5586,-3.8769,-3.9844,-4.0624,-4.0624,-3.9062,-3.7207,0.0,-3.3398,-3.1035,-3.0009,-2.9316,-2.9082,-2.9676,-3.0,-3.0684,-3.2168,-3.248,-3.3489,-3.6113,-3.7539,-3.9238,-4.1758,0.0,-4.5168,0.0,-4.7489,-4.7583,-4.6724,-4.6208,-4.5514,-4.4417,-4.3822,-4.3678,-4.3971,-4.3678,-4.3499,-4.3499,-4.3499,-4.3499,-4.3499,-4.3499,-4.3059,-4.2314,-4.2314,-4.1873,-4.1102,-4.1102,0.0,0.0,-4.1102,-4.1102,-4.1066,-4.079,-4.0442,-4.0019,-3.9557,-3.9153,-3.8765,-3.8637,-3.86,-3.86,-3.86,-3.86,-3.86,-3.86,-3.86,-3.86,-3.86,-3.86,-3.8508,-3.8087,-3.7556,-3.7116,-3.7006,-3.6658,-3.6384,-3.6384,-3.6292,-3.6201,-3.6201,-3.6201,-3.6201,-3.6201,-3.5981,-3.5797,-3.5797,-3.5431,-3.5064,-3.4807,-3.466,-3.4618,-3.4745,-3.4987,-3.529,-3.5797,-3.5845,-3.5879,-3.5982,-3.5982,-3.5982,-3.5982,-3.5982,-3.5982,-3.5982,-3.5982,-3.5982,-3.5982,-3.5982,-3.5982,-3.5982,-3.5982,-3.5982,-3.6973,-3.8262,-3.9219,-3.9219,-3.7949,-3.6382,-3.5019,-3.2734,-3.0762,-3.0293,-2.9512,-2.918,-3.0039,-3.0195,-3.0488,-3.1357,-3.2547,-3.3991,-3.5747,-3.7851,-3.9687,0.0,0.0,-4.4029,-4.4857,-4.6443,-4.7026,-4.6103,-4.5628,0.0,-4.4808,-4.397,-4.3499,-4.3499,-4.3499,-4.3499,-4.3499,-4.3499,-4.3499,-4.3499,-4.3499,-4.3059,-4.2314,-4.2314,-4.1873,0.0,0.0,0.0,0.0,-4.1102,-4.1102,-4.1102,-4.1102,-4.0864,-4.046,-4.0038,-3.9615,-3.9131,-3.8747,-3.86,-3.86,-3.86,-3.86,-3.86,-3.86,-3.86,-3.86,-3.86,-3.86,-3.8508,-3.8087,-3.8016,-3.7906,-3.7464,-3.7079,-3.6786,-3.6786,-3.6457,-3.6201,-3.6201,-3.6201,-3.6201,-3.6201,-3.6201,-3.6201,-3.6201,-3.587,-3.5577,-3.5577,-3.5229,-3.5135,-3.5565,-3.56,-3.5583,-3.5512,-3.5523,-3.5641,-3.5982,-3.5982,-3.5982,-3.5982,-3.5982,-3.5982,-3.5982,-3.5982,-3.5982,-3.5982,-3.5982,-3.5982,-3.5982,-3.5982,-3.5982,-3.4824,-3.582,-3.6523,-3.6211,-3.5273,-3.4258,-3.3555,-3.1855,-3.0371,-3.0234,-2.9746,-2.9531,-3.0098,-3.0449,-3.123,-3.2988,-3.3848,-3.4805,-3.6269,-3.832,0.0,-4.1093,-4.3945,-4.5684,0.0,0.0,-4.6479,-4.5282,-4.5069,0.0,-4.397,-4.3644,-4.3633,-4.3971,-4.3678,-4.3499,-4.3499,-4.3499,-4.3353,-4.3103,-4.3103,-4.2656,-4.1867,-4.1867,-4.1616,0.0,0.0,0.0,0.0,-4.1102,-4.1102,-4.1102,-4.1102,-4.068,-4.0056,-3.9928,-3.941,-3.8765,-3.8637,-3.86,-3.86,-3.86,-3.86,-3.86,-3.86,-3.86,-3.86,-3.86,-3.86,-3.8563,-3.8435,-3.8197,-3.7979,-3.7851,-3.7482,-3.7208,-3.7208,-3.6878,-3.6603,-3.6603,-3.6402,-3.6201,-3.6201,-3.6201,-3.6201,-3.6201,-3.6109,-3.5925,-3.565,-3.5467,-3.5465,-3.5583,-3.5582,-3.5696,-3.5881,-3.5893,-3.595,-3.6001,-3.5982,-3.5982,-3.5982,-3.5982,-3.5982,-3.5982,-3.5982,-3.5982,-3.5982,-3.5982,-3.6172,-3.6465,-3.6152,-3.6172,-3.2734,-3.375,-3.4375,-3.4258,-3.3691,-3.3027,-3.2441,-3.1211,-3.0195,-3.0195,-2.9891,-2.9774,-3.0351,-3.0703,-3.1387,-3.2871,-3.3594,-3.4551,-3.6191,-3.8144,0.0,-4.1463,0.0,0.0,0.0,-4.5517,-4.5664,-4.4842,-4.4612,0.0,-4.3783,-4.3573,-4.3633,-4.3945,-4.3678,-4.3499,-4.3499,-4.3499,-4.3279,-4.2901,-4.2901,-4.2498,-4.1684,-4.1684,-4.1506,0.0,0.0,0.0,0.0,-4.1102,-4.1102,-4.1102,-4.1102,-4.0699,-4.0111,-3.9946,-3.9428,-3.8801,-3.8655,-3.86,-3.86,-3.86,-3.86,-3.86,-3.86,-3.86,-3.86,-3.86,-3.86,-3.86,-3.86,-3.8417,-3.8215,-3.8215,-3.7904,-3.7611,-3.7611,-3.7299,-3.7024,-3.7024,-3.6805,-3.6659,-3.6659,-3.6659,-3.6659,-3.6659,-3.6493,-3.6366,-3.6072,-3.5944,-3.5815,-3.5849,-3.5812,-3.5916,-3.611,-3.6256,-3.636,-3.6489,-3.6504,-3.6426,-3.6269,-3.6426,-3.6426,-3.6269,-3.6426,-3.6504,-3.6504,-3.6504,-3.6641,-3.6929,-3.6621,-3.6641,0.0,-3.1836,-3.2617,-3.3008,-3.2812,-3.2324,-3.1562,-3.0723,0.0,-3.0137,-2.9872,-2.9872,-3.0762,-3.0918,-3.1094,-3.1699,-3.248,-3.3789,-3.5937,-3.7777,0.0,0.0,-4.3238,0.0,-4.3534,-4.4228,-4.4664,-4.4645,-4.4251,0.0,-4.405,-4.3701,-4.3499,-4.3499,-4.3499,-4.3499,-4.3499,-4.3499,-4.3261,-4.2865,-4.2865,-4.2461,-4.1647,-4.1647,-4.1427,0.0,0.0,0.0,0.0,-4.1102,-4.1102,-4.1102,-4.1102,-4.0864,-4.046,-4.0038,-3.9575,-3.9131,-3.8747,-3.86,-3.86,-3.86,-3.86,-3.86,-3.86,-3.86,-3.86,-3.86,-3.86,-3.86,-3.86,-3.86,-3.86,-3.86,-3.8307,-3.8014,-3.8014,-3.7741,-3.7428,-3.7428,-3.7409,-3.7391,-3.7391,-3.7391,-3.7391,-3.7391,-3.7079,-3.6841,-3.6841,-3.6475,-3.6256,-3.6293,-3.6256,-3.6239,-3.629,-3.6544,-3.6865,-3.7234,-3.7305,-3.7129,-3.6773,-3.709,-3.7109,-3.6753,-3.709,-3.7305,-3.7305,-3.7305,-3.7305,-3.7344,-3.7305,-3.7324,-2.7552,0.0,-2.9835,-2.9933,-2.9902,-2.9863,0.0,-2.9609,-2.9316,-2.9676,-2.9676,-2.997,-3.1152,-3.1113,-3.168,-3.4101,-3.4922,-3.6016,-3.8164,-4.0473,0.0,-4.368,-4.4227,-4.4375,-4.4063,-4.4136,-4.4086,-4.3793,-4.3683,-4.3628,-4.3628,-4.3536,-4.3499,-4.3499,-4.3499,-4.3499,-4.3499,-4.3499,-4.3133,-4.2461,-4.2461,-4.2039,-4.1249,-4.1249,-4.1194,0.0,0.0,0.0,-4.1102,-4.1102,-4.1102,-4.1102,-4.1102,-4.0864,-4.046,-4.0038,-3.9575,-3.9131,-3.8747,-3.86,-3.86,-3.86,-3.86,-3.86,-3.86,-3.86,-3.86,-3.86,-3.86,-3.86,-3.86,-3.86,-3.86,-3.86,-3.8527,-3.8453,-3.8453,-3.8124,-3.7869,-3.7869,-3.7592,-3.7391,-3.7391,-3.7391,-3.7391,-3.7391,-3.7299,-3.7244,-3.7244,-3.6896,-3.679,-3.7072,-3.685,-3.6775,-3.7086,-3.6927,-3.6799,-3.6846,-3.7109,-3.7246,-3.7148,-3.7246,-3.7246,-3.7148,-3.7246,-3.7305,-3.7305,-3.7305,-3.7461,-3.7738,-3.7441,-3.7461,-2.6576,-2.7812,-2.8769,-2.9355,-2.9512,-2.957,-2.9833,-2.9375,-2.8957,-2.9219,-2.9461,-2.9931,-3.1016,-3.1367,-3.2237,-3.4434,-3.5312,-3.6758,-3.9687,0.0,-4.3559,-4.4167,-4.4605,-4.4614,0.0,-4.3862,-4.3719,-4.3518,0.0,-4.3499,-4.3499,-4.3499,-4.3499,-4.3499,-4.3499,-4.3499,-4.3499,-4.3298,-4.2894,-4.2314,-4.2087,-4.1708,-4.1102,-4.1102,-4.1102,0.0,0.0,0.0,-4.1102,-4.1102,-4.1102,-4.1102,-4.1102,-4.0864,-4.046,-4.0038,-3.9575,-3.9131,-3.8747,-3.86,-3.86,-3.86,-3.86,-3.86,-3.86,-3.86,-3.86,-3.86,-3.86,-3.86,-3.86,-3.86,-3.86,-3.86,-3.86,-3.86,-3.86,-3.8417,-3.827,-3.827,-3.8087,-3.794,-3.794,-3.794,-3.794,-3.794,-3.7776,-3.7686,-3.7686,-3.7509,-3.731,-3.7144,-3.7259,-3.7277,-3.7126,-3.7249,-3.7349,-3.73,-3.7676,-3.7793,-3.7598,-3.7773,-3.7891,-3.7891,-3.7891,-3.7891,-3.7891,-3.7891,-3.8008,-3.8223,-3.7988,-3.8008,-2.6719,-2.7734,-2.8652,-2.9726,-3.0098,-3.0176,-3.0117,-2.9551,-2.9023,-2.9023,-2.9355,-3.0009,-3.0996,-3.1905,-3.2941,-3.429,-3.543,-3.7383,-4.0879,-4.271,-4.3832,-4.4274,-4.4549,0.0,-4.3678,-4.3544,-4.3499,-4.3499,0.0,-4.3499,-4.3499,-4.3499,-4.3499,-4.3499,-4.3499,-4.3463,-4.3408,-4.3085,-4.2718,-4.2314,-4.1867,-4.1506,-4.1102,-4.1102,-4.1102,-4.1102,0.0,0.0,-4.1102,-4.1102,-4.1102,-4.1102,-4.1102,-4.0901,-4.0552,-4.0129,-3.9726,-3.9223,-3.8765,-3.86,-3.86,-3.86,-3.86,-3.86,-3.86,-3.86,-3.86,-3.86,-3.86,-3.86,-3.86,-3.86,-3.86,-3.86,-3.86,-3.86,-3.86,-3.86,-3.86,-3.86,-3.86,-3.86,-3.8679,-3.8719,-3.8719,-3.8798,-3.8503,-3.8303,-3.8303,-3.8281,-3.8024,-3.7252,-3.7746,-3.7821,-3.7147,-3.7701,-3.8068,-3.8068,-3.8394,-3.8418,-3.8027,-3.8379,-3.8611,-3.8611,-3.8611,-3.8611,-3.8611,-3.8611,-3.8611,-3.8611,-3.8611,-3.8611,-2.7037,-2.8184,-2.884,-2.9035,-2.9668,-3.0098,-2.9774,-2.9598,-2.95,-2.95,-2.9805,-3.0586,-3.2207,-3.3234,-3.4368,-3.603,-3.8223,-4.0274,0.0,0.0,-4.3933,-4.4784,0.0,-4.3793,-4.406,-4.3722,-4.3499,-4.3499,0.0,-4.3499,-4.3499,-4.3499,-4.3499,-4.3499,-4.3499,-4.3316,-4.3012,-4.2938,-4.2718,-4.2314,-4.1867,-4.1506,-4.1102,-4.1102,-4.1102,-4.1102,0.0,-4.1102,-4.1102,-4.1102,-4.1102,-4.1102,-4.1102,-4.1066,-4.0956,-4.057,-4.0148,-3.9689,-3.8896,-3.86,-3.86,-3.86,-3.86,-3.86,-3.86,-3.86,-3.86,-3.86,-3.86,-3.86,-3.86,-3.86,-3.86,-3.86,-3.86,-3.86,-3.86,-3.86,-3.86,-3.86,-3.86,-3.8719,-3.9114,-3.9193,-3.9312,-3.9666,-3.9649,-3.9611,-3.9611,-3.9312,-3.9067,-3.8915,-3.8728,-3.852,-3.8425,-3.8478,-3.8491,-3.8491,-3.8569,-3.8591,-3.8513,-3.8571,-3.8611,-3.8611,-3.8611,-3.8611,-3.8611,-3.8611,-3.8611,-3.8611,-3.8611,-3.8611,-2.647,-2.7754,-2.8691,-2.916,-3.0449,-3.1543,-3.1377,-3.0957,-3.0625,-3.0625,-3.0781,-3.1289,-3.2559,-3.4062,-3.5918,-3.8359,-3.9941,-4.125,-4.2275,-4.31,-4.3795,0.0,0.0,-4.3837,-4.3837,-4.3633,-4.3499,-4.3499,0.0,0.0,-4.3499,-4.3499,-4.3499,-4.3499,-4.3279,-4.3103,-4.2901,-4.2479,-4.2142,-4.1959,-4.158,-4.1286,-4.1102,-4.1102,-4.1102,-4.1102,0.0,-4.1102,-4.1102,-4.1102,-4.1102,-4.1102,-4.1102,-4.1102,-4.1029,-4.0405,-3.9909,-3.9428,-3.8801,-3.86,-3.86,-3.86,-3.86,-3.86,-3.86,-3.86,-3.86,-3.86,-3.86,-3.86,-3.86,-3.86,-3.86,-3.86,-3.86,-3.86,-3.86,-3.86,-3.86,-3.86,-3.8798,-3.9035,-3.9272,-3.9469,-3.9706,-3.9863,-3.9902,-3.9902,-3.9902,-3.9927,-3.9776,-3.9354,-3.9529,-3.9509,-3.9051,-3.9199,-3.9174,-3.8922,-3.8698,-3.8708,-3.8906,-3.8728,-3.8611,-3.8611,-3.8611,-3.8611,-3.8611,-3.8611,-3.8611,-3.8611,-3.8611,-3.8611,-2.6294,-2.7506,-2.8496,-2.9383,-3.1064,-3.2598,-3.3008,-3.25,-3.204,-3.245,-3.25,-3.2656,-3.3418,-3.5234,-3.7539,-4.0371,-4.1191,-4.1717,-4.2455,-4.3215,-4.3657,-4.3528,-4.3818,-4.3882,-4.3544,-4.3499,-4.3499,0.0,0.0,0.0,-4.3499,-4.3499,-4.3499,-4.3499,-4.3188,-4.2975,-4.2773,-4.2167,-4.1776,-4.1684,-4.1304,-4.1102,-4.1102,-4.1102,-4.1102,-4.1102,-4.1102,-4.1102,-4.1102,-4.1102,-4.1102,-4.1102,-4.1102,-4.1102,-4.0992,-4.0185,-3.9689,-3.93,-3.8783,-3.86,-3.86,-3.86,-3.8679,-3.8758,-3.864,-3.8758,-3.8838,-3.864,-3.8679,-3.8758,-3.864,-3.86,-3.86,-3.86,-3.86,-3.86,-3.86,-3.86,-3.86,-3.86,-3.8877,-3.9193,-3.9272,-3.9627,-3.9902,-3.9902,-4.0059,-4.0137,-4.0059,-4.0411,-4.0433,-3.9796,-4.0318,-4.0393,-3.9642,-3.985,-3.9883,-3.9531,-3.9121,-3.9023,-3.9355,-3.9062,-3.8828,-3.873,-3.8865,-3.8826,-3.8611,-3.8708,-3.8708,-3.8611,-3.8611,-3.8611,-2.735,-2.7956,-2.8496,-2.9383,-3.0586,-3.2031,-3.3645,-3.3613,-3.3718,-3.5338,-3.5391,-3.5254,-3.5703,-3.7226,-3.9121,-4.1348,-4.207,-4.2495,-4.2977,0.0,-4.3593,-4.3591,-4.3579,-4.3544,-4.3499,-4.3499,-4.3499,0.0,0.0,0.0,-4.3499,-4.3499,-4.3499,-4.3499,-4.3463,-4.3096,-4.2369,-4.2314,-4.2051,-4.1684,-4.1304,-4.1102,-4.1102,-4.1102,-4.1102,-4.1102,-4.1102,-4.1102,-4.1102,-4.1102,-4.1102,-4.1102,-4.1102,-4.1102,-4.0992,-4.0185,-3.9872,-3.9726,-3.8875,-3.86,-3.86,-3.86,-3.8877,-3.9154,-3.8719,-3.9154,-3.9627,-3.8838,-3.8917,-3.9154,-3.8719,-3.86,-3.86,-3.86,-3.86,-3.86,-3.86,-3.86,-3.86,-3.86,-3.864,-3.8798,-3.9233,-3.9627,-3.9902,-3.9902,-4.0587,-4.0977,-4.0509,-4.0841,-4.1113,-4.1055,-4.1133,-4.0957,-4.0469,-4.043,-4.043,-4.0391,-4.0039,-3.9824,-3.9844,-3.9824,-3.959,-3.916,-3.957,-3.9394,-3.8611,-3.8965,-3.8965,-3.8611,-3.8611,-3.8611,-2.5981,-2.7565,-2.907,-2.8855,-3.0762,-3.3008,-3.4199,-3.4551,-3.5137,-3.6821,-3.6875,0.0,0.0,-3.8535,-3.9668,-4.1836,-4.2284,-4.2548,-4.2964,-4.313,-4.32,-4.3179,-4.3137,-4.314,-4.314,-4.314,-4.314,0.0,0.0,0.0,-4.3481,-4.3243,-4.314,-4.314,-4.2619,-4.2216,-4.1922,-4.169,-4.1488,-4.1341,-4.1176,-4.1102,-4.1102,-4.1102,-4.1102,-4.1102,-4.1102,-4.1102,-4.1102,-4.1102,-4.1102,-4.1102,-4.1102,-4.1102,-4.0992,-4.0185,-3.9891,-3.9762,-3.8875,-3.86,-3.86,-3.86,-3.8719,-3.8838,-3.864,-3.8838,-3.9035,-3.8679,-3.8956,-3.9193,-3.8719,-3.86,-3.86,-3.86,-3.86,-3.86,-3.86,-3.86,-3.8679,-3.8996,-3.9233,-3.9548,-3.9962,-4.0411,-4.0704,-4.0704,-4.0977,-4.1133,-4.0958,-4.1094,-4.1211,-4.1211,-4.1211,-4.1152,-4.0937,-4.0918,-4.0918,-4.0918,-4.0273,-4.0019,-4.0273,-4.0039,-3.9824,-3.9629,-3.9805,-3.9726,-3.9394,-3.9551,-3.9551,-3.9394,-3.9394,-3.9394,-2.5747,-2.7506,-2.9258,-2.8809,-3.0879,-3.3437,-3.498,-3.5664,-3.6562,-3.8535,-3.8379,-3.8167,-3.9033,0.0,0.0,0.0,-4.2004,-4.2183,-4.2751,-4.2805,-4.2724,-4.2548,-4.2644,-4.2718,-4.2718,-4.2718,-4.2718,0.0,0.0,0.0,0.0,-4.2883,-4.2718,-4.2718,-4.2204,-4.1812,-4.1684,-4.1451,-4.1231,-4.1102,-4.1102,-4.1102,-4.1102,-4.1102,-4.1102,-4.1102,-4.1102,-4.1102,-4.1102,-4.1102,-4.1102,-4.1102,-4.1102,-4.1102,-4.1011,-4.0331,-4.0074,-3.9964,-3.9076,-3.8783,-3.8765,-3.8637,-3.8719,-3.8798,-3.864,-3.8798,-3.8956,-3.8679,-3.8956,-3.9193,-3.8719,-3.8798,-3.8996,-3.8996,-3.8996,-3.8996,-3.8996,-3.8996,-3.9114,-3.943,-3.9706,-3.9981,-4.0236,-4.0685,-4.0919,-4.0821,-4.1016,-4.1133,-4.1016,-4.1094,-4.1211,-4.1211,-4.1211,-4.1211,-4.1211,-4.1211,-4.1211,-4.1211,-4.0625,-4.043,-4.0723,-4.0449,-4.0234,-4.0098,-4.0234,-4.0176,-3.9902,-4.0019,-4.0019,-3.9902,-3.9902,-3.9902,-2.7109,-2.7923,-2.9015,-2.95,-3.0928,-3.3019,-3.603,-3.7012,-3.8047,-4.0683,-4.0137,-3.9207,-3.922,-3.8895,0.0,-4.0914,-4.1149,-4.1436,-4.2288,-4.234,-4.2135,-4.1727,-4.2032,-4.2271,-4.2271,-4.2271,0.0,0.0,0.0,0.0,0.0,-4.2314,-4.2271,-4.2271,-4.2314,-4.2087,-4.1684,-4.1684,-4.1464,-4.1102,-4.1102,-4.1102,-4.1102,-4.1102,-4.1102,-4.1102,-4.1102,-4.1102,-4.1102,-4.1102,-4.1102,-4.1102,-4.1102,-4.1102,-4.1047,-4.0662,-4.0515,-4.0387,-3.952,-3.9226,-3.9171,-3.8728,-3.8917,-3.9233,-3.8758,-3.9233,-3.9724,-3.8838,-3.8956,-3.9193,-3.8758,-3.9272,-3.9902,-3.9902,-3.9902,-3.9902,-3.9902,-3.9902,-3.9902,-3.9902,-3.9902,-3.9902,-3.9902,-4.0236,-4.0353,-3.9981,-4.0665,-4.1036,-4.0588,-4.0919,-4.1211,-4.1211,-4.1211,-4.1211,-4.1211,-4.1211,-4.1211,-4.1211,-4.1211,-4.1211,-4.1211,-4.1211,-4.0976,-4.0527,-4.0957,-4.08,-3.9902,-4.0332,-4.0312,-3.9902,-3.9902,-3.9902,-2.604,-2.7695,-2.9844,-2.998,-3.2461,-3.5351,-3.7148,-3.7656,-3.8398,-4.0741,-4.0625,-4.0024,-3.9759,-3.9817,0.0,-4.1068,-4.1397,-4.1736,-4.2326,-4.212,-4.1843,-4.169,-4.1794,-4.1867,-4.1867,-4.1867,0.0,0.0,0.0,0.0,0.0,-4.2014,-4.1867,-4.1867,-4.1616,-4.1415,-4.1286,-4.1286,-4.1231,-4.1102,-4.1102,-4.1102,-4.1102,-4.1102,-4.1102,-4.1102,-4.1102,-4.1102,-4.1102,-4.1102,-4.1102,-4.1102,-4.1102,-4.1102,-4.1089,-4.0976,-4.0911,-4.0901,-4.0665,-4.0393,-4.009,-3.9978,-4.002,-4.0082,-3.9642,-3.9913,-4.0201,-3.9663,-3.9823,-4.0118,-3.9962,-4.0118,-4.0157,-3.9627,-3.9706,-3.9902,-3.9902,-3.9902,-3.9981,-4.0294,-4.0314,-4.0451,-4.0782,-4.0938,-4.0977,-4.0821,-4.1016,-4.1133,-4.0997,-4.1094,-4.1211,-4.1211,-4.1211,-4.1211,-4.1211,-4.1211,-4.1211,-4.1211,-4.1211,-4.1211,-4.1211,-4.1211,-4.1113,-4.0976,-4.1152,-4.1093,-4.0801,-4.0918,-4.0918,-4.0801,-4.0801,-4.0801,-2.7233,-2.9031,-3.1191,-3.2051,-3.4277,-3.6703,-3.8316,-3.8971,-3.9552,-4.0705,-4.0589,-4.0182,-3.9912,-3.9966,0.0,-4.0838,-4.1097,-4.1432,-4.2034,-4.1756,-4.1471,-4.1451,-4.1488,-4.1488,-4.1488,-4.1488,0.0,0.0,0.0,0.0,0.0,-4.1616,-4.1488,-4.1488,-4.1231,-4.1102,-4.1102,-4.1102,-4.1102,-4.1102,-4.1102,-4.1102,-4.1102,-4.1102,-4.1102,-4.1102,-4.1102,-4.1102,-4.1102,-4.1102,-4.1102,-4.1102,-4.1102,-4.1102,-4.1108,-4.112,-4.111,-4.1119,-4.1162,-4.0984,-4.072,-4.0542,-4.0508,-4.0432,-4.0035,-4.0072,-4.0224,-3.9978,-4.0059,-4.0236,-4.0236,-4.0392,-4.0431,-4.0137,-4.0098,-4.0177,-4.0372,-4.0431,-4.049,-4.0724,-4.0802,-4.088,-4.1133,-4.1211,-4.1211,-4.1211,-4.1211,-4.1211,-4.1211,-4.1211,-4.1211,-4.1211,-4.1211,-4.1211,-4.1211,-4.1211,-4.1211,-4.1211,-4.1211,-4.1211,-4.1211,-4.1211,-4.1211,-4.1211,-4.1211,-4.1211,-4.1211,-4.1211,-4.1211,-4.1211,-4.1211,-4.1211,-2.9551,-3.1064,-3.2726,-3.4902,-3.625,-3.7494,-3.9413,-4.0492,-4.0977,-4.0509,0.0,-3.9874,-3.9845,-3.9528,-3.9531,-4.0372,-4.0487,-4.0768,-4.1598,-4.1336,-4.1102,-4.1102,-4.1102,-4.1102,-4.1102,0.0,0.0,0.0,0.0,0.0,0.0,-4.1102,-4.1102,-4.1102,-4.1102,-4.1102,-4.1102,-4.1145,-4.1145,-4.1145,-4.1187,-4.1187,-4.1145,-4.1102,-4.1102,-4.1102,-4.1102,-4.1102,-4.1102,-4.1102,-4.1102,-4.1102,-4.1102,-4.1102,-4.1102,-4.1145,-4.1145,-4.1173,-4.1202,-4.1219,-4.1152,-4.0787,-4.0702,-4.0666,-4.021,-4.0115,-4.0115,-4.0039,-4.002,-4.002,-4.002,-4.0255,-4.0627,-4.1094,-4.088,-4.0666,-4.1094,-4.1211,-4.1211,-4.1211,-4.1211,-4.1211,-4.1211,-4.1211,-4.1211,-4.1211,-4.1211,-4.1211,-4.1211,-4.1211,-4.1211,-4.1211,-4.1211,-4.1211,-4.1211,-4.1211,-4.1211,-4.1211,-4.1211,-4.1211,-4.1211,-4.1211,-4.1211,-4.1211,-4.1211,-4.1211,-4.1211,-4.1211,-4.1211,-4.1211,-4.1211,-4.1211,-2.823,-3.0185,-3.2804,-3.5254,-3.7543,-3.9241,-3.9405,-3.9845,-4.0137,-4.0059,-3.9944,-3.9788,-3.949,-3.9613,-3.9925,-4.0428,-4.0487,-4.0768,-4.1598,-4.1336,-4.1102,-4.1102,-4.1102,-4.1102,-4.1102,0.0,0.0,0.0,0.0,0.0,-4.1102,-4.1102,-4.1102,-4.1102,-4.1102,-4.1102,-4.1102,-4.142,-4.1588,0.0,-4.1942,-4.1923,-4.1588,-4.1252,-4.1102,-4.1102,-4.1102,-4.1102,-4.1102,-4.1102,-4.1102,-4.1102,-4.1102,-4.1102,-4.1145,-4.1462,-4.1588,-4.1612,-4.1997,-4.2125,-4.2108,-4.1999,-4.2226,-4.2414,-4.1617,-4.1617,-4.1733,-4.1074,-4.0938,-4.0938,-4.0938,-4.0724,-4.0627,-4.1094,-4.1133,-4.1094,-4.1172,-4.1211,-4.1211,-4.1211,-4.1211,-4.1211,-4.1211,-4.1211,-4.1211,-4.1211,-4.1211,-4.1211,-4.1211,-4.1211,-4.1211,-4.1211,-4.1211,-4.1211,-4.1211,-4.1211,-4.1211,-4.1211,-4.1211,-4.1211,-4.1211,-4.1211,-4.1211,-4.1211,-4.1211,-4.1211,-4.1211,-4.1211,-4.1211,-4.1211,-4.1211,-4.1211,-2.8386,-3.0517,-3.3211,-3.6204,-3.8451,-3.9793,-3.9374,-3.9272,-3.9272,-3.9272,-3.9469,-3.9548,-3.9351,-3.9449,-3.964,-3.9844,-4.0234,-4.0672,-4.1064,-4.11,-4.1029,-4.0845,-4.0992,-4.1029,-4.0845,0.0,0.0,0.0,0.0,-4.1102,-4.1102,-4.1102,-4.1187,-4.1378,-4.1378,-4.1504,-4.1733,-4.1923,-4.2049,-4.2049,-4.2277,-4.2277,-4.2007,-4.1397,-4.1102,-4.1102,-4.1102,-4.1102,-4.1102,-4.1102,-4.1102,-4.1102,-4.1102,-4.1102,-4.1145,-4.1336,-4.142,-4.1462,-4.1923,-4.2209,-4.2414,-4.2409,-4.2719,-4.2951,-4.2051,-4.1953,-4.1992,-4.1348,-4.1211,-4.1211,-4.1211,-4.1016,-4.088,-4.1133,-4.1036,-4.0919,-4.1133,-4.1211,-4.1211,-4.1211,-4.1211,-4.1211,-4.1211,-4.1211,-4.1211,-4.1211,-4.1211,-4.1211,-4.1211,-4.1211,-4.1211,-4.1211,-4.1211,-4.1211,-4.1211,-4.1211,-4.1211,-4.1211,-4.1211,-4.1211,-4.1211,-4.1211,-4.1211,-4.1211,-4.1211,-4.1094,-4.088,-4.1094,-4.1094,-4.088,-4.1094,-4.1211,-2.8523,-3.1035,-3.3907,-3.7176,-3.8937,-3.9709,-3.9372,-3.8956,-3.86,-3.86,-3.8917,-3.9193,-3.9193,-3.9136,-3.9113,-3.9186,-3.9813,-4.029,-4.0387,-4.068,-4.0772,-4.0442,-4.0699,-4.0754,0.0,0.0,0.0,0.0,0.0,-4.1081,-4.121,-4.1142,-4.1296,-4.1686,-4.1728,-4.1894,-4.2288,-4.2447,-4.2527,-4.2527,-4.2527,-4.2527,-4.2485,-4.1691,-4.1313,-4.1313,-4.1313,-4.1313,-4.1313,-4.1313,-4.1313,-4.1313,-4.1313,-4.1313,-4.1313,-4.1313,-4.1313,-4.1355,-4.1714,-4.2132,-4.2512,-4.2521,-4.2816,-4.3047,-4.2266,-4.1973,-4.1836,-4.1484,-4.1328,-4.123,-4.1308,-4.1269,-4.1211,-4.1211,-4.088,-4.0724,-4.1133,-4.1211,-4.1211,-4.1211,-4.1211,-4.1211,-4.1211,-4.1211,-4.1211,-4.1211,-4.1211,-4.1211,-4.1211,-4.1211,-4.1211,-4.1211,-4.1211,-4.1211,-4.1211,-4.1211,-4.1211,-4.1211,-4.1211,-4.1211,-4.1211,-4.1211,-4.1211,-4.1211,-4.1211,-4.0997,-4.0627,-4.0997,-4.1016,-4.0627,-4.0919,-4.1133,-2.6523,-3.0547,-3.5018,-3.7408,-3.8708,-3.935,-3.9297,-3.8956,-3.86,0.0,-3.864,-3.8679,-3.8679,-3.8695,-3.8801,-3.9131,-3.9278,-3.952,-3.9909,-4.0019,-4.0019,-3.9964,-4.0019,-4.0019,0.0,0.0,0.0,0.0,-4.0588,-4.0886,-4.1593,-4.1309,-4.1289,-4.1669,-4.1748,-4.1789,-4.177,-4.2586,-4.3026,-4.3026,-4.3026,-4.3026,-4.2985,-4.2444,-4.2235,-4.2235,-4.2235,-4.2235,-4.2235,-4.2235,-4.2235,-4.2235,-4.2235,-4.2235,-4.2235,-4.2235,-4.2235,-4.2235,-4.2277,-4.261,-4.3007,-4.301,-4.3303,-4.3535,-4.3047,-4.2637,-4.2284,-4.2226,-4.1738,-4.1289,-4.1621,-4.1445,-4.1211,-4.1211,-4.1133,-4.1133,-4.1172,-4.1211,-4.1211,-4.1211,-4.1211,-4.1211,-4.1211,-4.1211,-4.1211,-4.1211,-4.1211,-4.1211,-4.1211,-4.1211,-4.1211,-4.1211,-4.1211,-4.1211,-4.1211,-4.1211,-4.1211,-4.1211,-4.1211,-4.1211,-4.1211,-4.1211,-4.1211,-4.1211,-4.1211,-4.1172,-4.1094,-4.1172,-4.1172,-4.1094,-4.0763,-4.0802,-2.7832,-3.1016,-3.4187,-3.6393,-3.7608,-3.8273,-3.8519,-3.8409,-3.8325,-3.8563,-3.86,-3.86,-3.86,-3.86,-3.8655,-3.8838,-3.904,-3.9259,-3.9483,-3.9744,-3.9799,-3.952,-3.9744,-3.9799,0.0,0.0,0.0,0.0,-4.0696,-4.0997,-4.1335,-4.1197,-4.1287,-4.1743,-4.1762,-4.1884,-4.2108,-4.2504,-4.2704,-4.2723,-4.2956,-4.3113,-4.3092,-4.3118,-4.286,-4.2402,-4.2402,-4.2402,-4.2402,-4.2402,-4.2402,-4.2402,-4.2402,-4.2402,-4.2402,-4.2402,-4.2402,-4.2402,-4.2402,-4.2694,-4.3109,-4.3109,-4.338,-4.3633,-4.3203,-4.2949,-4.2734,-4.246,-4.2168,-4.1914,-4.2109,-4.2012,-4.1875,-4.1875,-4.1875,-4.1816,-4.1582,-4.1387,-4.1211,-4.1211,-4.1211,-4.1211,-4.1211,-4.1211,-4.1211,-4.1211,-4.1211,-4.1211,-4.1211,-4.1211,-4.1211,-4.1211,-4.1211,-4.1211,-4.1211,-4.1211,-4.1211,-4.1211,-4.1211,-4.1211,-4.1211,-4.1211,-4.1211,-4.1211,-4.1211,-4.1055,-4.0802,-4.1094,-4.1055,-4.0802,-4.088,-4.088,-2.8164,-3.0332,-3.223,-3.4672,-3.6066,-3.7064,-3.7722,-3.7916,-3.8096,0.0,-3.8527,-3.86,-3.86,-3.86,-3.86,-3.86,-3.8856,-3.904,-3.904,-3.9336,-3.9428,-3.9076,-3.9355,0.0,0.0,0.0,0.0,0.0,-4.0745,-4.1045,-4.1273,-4.1164,-4.1329,-4.1805,-4.1805,-4.1965,-4.2226,-4.2343,-4.2382,-4.2382,-4.2754,-4.291,-4.293,-4.3359,-4.3184,-4.2582,-4.2678,-4.2735,-4.2735,-4.2735,-4.2735,-4.2735,-4.2735,-4.2735,-4.2735,-4.2735,-4.2735,-4.2735,-4.2735,-4.2985,-4.3275,-4.3275,-4.3463,-4.3652,-4.334,-4.3164,-4.3027,-4.2812,-4.2557,-4.2421,-4.2558,-4.25,-4.2382,-4.2382,-4.2382,-4.2265,-4.1894,-4.1465,-4.1211,-4.1211,-4.1211,-4.1211,-4.1211,-4.1211,-4.1211,-4.1211,-4.1211,-4.1211,-4.1211,-4.1211,-4.1211,-4.1211,-4.1211,-4.1211,-4.1211,-4.1211,-4.1211,-4.1211,-4.1211,-4.1211,-4.1211,-4.1211,-4.1211,-4.1211,-4.1211,-4.1036,-4.0666,-4.0919,-4.0841,-4.0509,-4.0763,-4.0724,-2.5421,-2.7201,-2.9258,-3.2224,-3.423,-3.5854,-3.7137,-3.7746,-3.7999,-3.8039,-3.8325,-3.86,-3.86,-3.86,-3.86,-3.86,-3.8618,-3.8637,-3.8637,-3.8655,-3.8655,-3.8637,-3.8655,0.0,0.0,0.0,0.0,0.0,-4.0305,-4.0893,-4.1719,-4.1404,-4.1387,-4.1777,-4.1796,-4.1796,-4.1836,-4.2226,-4.2382,-4.2382,-4.2401,-4.2421,-4.244,-4.291,-4.3105,-4.3084,-4.3453,-4.3628,-4.3628,-4.3628,-4.3628,-4.3628,-4.3628,-4.3628,-4.3628,-4.3628,-4.3628,-4.3628,-4.3628,-4.367,-4.367,-4.367,-4.367,-4.3691,-4.3672,-4.3398,-4.3164,-4.3535,-4.3047,-4.2479,-4.293,-4.2734,-4.2382,-4.2382,-4.2382,-4.2265,-4.1894,-4.1465,-4.1211,-4.1211,-4.1211,-4.1211,-4.1211,-4.1211,-4.1211,-4.1211,-4.1211,-4.1211,-4.1211,-4.1211,-4.1211,-4.1211,-4.1211,-4.1211,-4.1211,-4.1211,-4.1211,-4.1211,-4.1211,-4.1211,-4.1211,-4.1211,-4.1211,-4.1211,-4.1211,-4.1172,-4.1172,-4.0763,-4.0509,-4.0509,-4.0137,-4.0177,-2.5386,-2.6797,-2.845,-3.0645,-3.2102,-3.3448,-3.4982,-3.6115,-3.6905,-3.7127,-3.7921,-3.851,-3.8236,-3.8417,-3.86,-3.86,-3.86,-3.86,-3.86,-3.86,-3.86,-3.86,0.0,0.0,0.0,0.0,0.0,0.0,0.0,-4.1094,-4.1424,-4.1269,-4.1289,-4.1387,-4.1387,-4.1387,-4.1387,-4.1543,-4.1758,-4.2031,-4.2305,-4.2578,-4.2851,-4.3281,-4.3476,-4.3496,-4.3633,-4.3711,-4.3711,-4.3711,-4.3711,-4.3711,-4.3711,-4.3711,-4.3711,-4.3711,-4.3711,-4.3711,-4.3711,-4.3711,-4.3711,-4.3711,-4.3711,-4.3711,-4.3711,-4.3594,-4.3516,-4.3672,-4.3476,-4.3281,-4.3437,-4.3359,-4.3242,-4.3242,-4.3047,-4.2793,-4.2656,-4.2285,-4.1973,-4.1973,-4.1758,-4.1582,-4.1582,-4.1348,-4.1211,-4.1211,-4.1211,-4.1211,-4.1211,-4.1211,-4.1211,-4.1211,-4.1211,-4.1211,-4.1211,-4.1211,-4.1211,-4.1211,-4.1211,-4.1211,-4.1211,-4.1211,-4.1211,-4.1211,-4.1211,-4.1055,-4.0763,-4.0588,-4.0353,-4.0098,-3.9981,-3.9823,-2.4699,-2.5801,-2.7279,-2.9166,-3.0093,-3.1157,-3.3429,-3.4777,-3.5663,-3.6198,-3.7315,-3.8131,-3.7835,-3.8124,-3.8435,-3.8582,-3.86,-3.86,-3.86,-3.86,-3.86,-3.86,0.0,0.0,0.0,0.0,0.0,0.0,0.0,0.0,-4.1211,-4.1211,-4.1211,-4.1211,-4.1211,-4.1211,-4.1211,-4.1211,-4.1308,-4.1601,-4.2012,-4.2363,-4.2656,-4.3242,-4.3496,-4.3496,-4.3633,-4.3711,-4.3711,-4.3711,-4.3711,-4.3711,-4.3711,-4.3711,-4.3711,-4.3711,-4.3711,-4.3711,-4.3711,-4.3711,-4.3711,-4.3711,-4.3711,-4.3711,-4.3711,-4.3711,-4.3711,-4.3711,-4.3711,-4.3711,-4.3711,-4.3711,-4.3711,-4.3711,-4.3496,-4.3281,-4.3281,-4.2832,-4.2382,-4.2382,-4.2207,-4.2012,-4.2012,-4.1777,-4.1543,-4.1406,-4.1387,-4.1328,-4.123,-4.1211,-4.1211,-4.1211,-4.1211,-4.1211,-4.1211,-4.1211,-4.1211,-4.1211,-4.1211,-4.1211,-4.1211,-4.1211,-4.1211,-4.1211,-4.1211,-4.0958,-4.0509,-4.0353,-4.0236,-4.0098,-3.9941,-3.9745,0.0,0.0,0.0,-2.7695,0.0,0.0,-3.2565,-3.3712,-3.4265,-3.5224,-3.644,-3.7314,-3.7377,-3.7704,-3.8108,-3.849,-3.8582,-3.86,-3.86,-3.86,-3.86,0.0,0.0,0.0,0.0,0.0,0.0,0.0,-4.0919,-4.1211,-4.1211,-4.1211,-4.1211,-4.1211,-4.1211,-4.1211,-4.1211,-4.1211,-4.1211,-4.123,-4.1621,-4.1816,-4.1875,-4.2715,-4.3146,-4.3166,-4.3535,-4.3711,-4.3711,-4.3711,-4.3711,-4.3711,-4.3711,-4.3711,-4.3711,-4.3711,-4.3711,-4.3711,-4.3711,-4.3711,-4.3711,-4.3711,-4.3711,-4.3711,-4.3711,-4.3711,-4.3711,-4.3711,-4.3711,-4.3711,-4.3711,-4.3711,-4.3711,-4.3711,-4.3711,-4.3711,-4.3711,-4.3047,-4.2421,-4.2421,-4.2421,-4.2401,-4.2401,-4.2401,-4.2245,-4.1875,-4.1816,-4.166,-4.1289,-4.1211,-4.1211,-4.1211,-4.1211,-4.1211,-4.1211,-4.1211,-4.1211,-4.1211,-4.1211,-4.1211,-4.1211,-4.1211,-4.1211,-4.1211,-4.1211,-4.0977,-4.0509,-4.0098,-4.0098,-4.047,-4.0059,-3.9863,-2.373,0.0,0.0,0.0,0.0,0.0,0.0,-3.0818,-3.1915,-3.3699,-3.4607,-3.5384,-3.6366,-3.7091,-3.7591,-3.7721,-3.8209,-3.86,-3.86,-3.86,-3.86,0.0,0.0,0.0,0.0,0.0,0.0,0.0,-4.1133,-4.1211,-4.1211,-4.1211,-4.1211,-4.1211,-4.1211,-4.1211,-4.1211,-4.1211,-4.1367,-4.1621,-4.2051,-4.2422,-4.2734,-4.3281,-4.3535,-4.3535,-4.3652,-4.3711,-4.3711,-4.3711,-4.3711,-4.3711,-4.3711,-4.3711,-4.3711,-4.3711,-4.3711,-4.3711,-4.3711,-4.3711,-4.3711,-4.3711,-4.3711,-4.3711,-4.3711,-4.3711,-4.3711,-4.3711,-4.3711,-4.3711,-4.3711,-4.3711,-4.3711,-4.3711,-4.3711,-4.3711,-4.3711,-4.3516,-4.3359,-4.3359,-4.3105,-4.2891,-4.2891,-4.2637,-4.2343,-4.2226,-4.1992,-4.1758,-4.1641,-4.1367,-4.1211,-4.1211,-4.1211,-4.1211,-4.1211,-4.1211,-4.1211,-4.1211,-4.1211,-4.1211,-4.1211,-4.1211,-4.1211,-4.1211,-4.1211,-4.1133,-4.0997,-4.0255,-3.9823,-3.9608,-3.9154,-3.8956,-2.4766,-2.5293,0.0,0.0,0.0,0.0,-2.9241,-2.9897,-3.0615,0.0,-3.3459,-3.4149,-3.5018,-3.5807,-3.6477,-3.6849,-3.7572,-3.8231,-3.8564,-3.8767,-3.8838,0.0,0.0,0.0,0.0,-4.0236,-4.0666,-4.1172,-4.1211,-4.1211,-4.1211,-4.1211,-4.1211,-4.1211,-4.1211,-4.1211,-4.1211,-4.1211,-4.1387,-4.1797,-4.2226,-4.2656,-4.3086,-4.3516,-4.3711,-4.3711,-4.3711,-4.3711,-4.3711,-4.3711,-4.3711,-4.3711,-4.3711,-4.3711,-4.3711,-4.3711,-4.3711,-4.3711,-4.3711,-4.3711,-4.3711,-4.3711,-4.3711,-4.3711,-4.3711,-4.3711,-4.3711,-4.3711,-4.3711,-4.3711,-4.3711,-4.3711,-4.3711,-4.3711,-4.3711,-4.3711,-4.3711,-4.3711,-4.3711,-4.3711,-4.3496,-4.334,-4.334,-4.3125,-4.2891,-4.2734,-4.248,-4.2266,-4.209,-4.1855,-4.1699,-4.1699,-4.1543,-4.1426,-4.1426,-4.1426,-4.1367,-4.123,-4.1387,-4.1387,-4.1211,-4.1211,-4.1211,-4.1211,-4.0997,-4.0724,-4.0411,-4.0059,-3.9706,-3.9312,-3.9035,-3.8877,-2.6167,-2.6309,0.0,0.0,0.0,0.0,-2.9766,-2.9922,-2.9954,0.0,-3.2445,-3.3135,-3.3475,-3.4162,-3.4946,-3.5782,-3.6698,-3.7633,-3.8491,-3.9015,0.0,0.0,0.0,0.0,-3.9941,-4.0333,-4.0763,-4.1172,-4.1211,-4.1211,-4.1211,-4.1211,-4.1211,-4.1211,-4.1211,-4.1211,-4.1211,-4.1211,-4.1387,-4.1797,-4.2226,-4.2656,-4.3086,-4.3516,-4.3711,-4.3711,-4.3711,-4.3711,-4.3711,-4.3711,-4.3711,-4.3711,-4.3711,-4.3711,-4.3711,-4.3711,-4.3711,-4.3711,-4.3711,-4.3711,-4.3711,-4.3711,-4.3711,-4.3711,-4.3711,-4.3711,-4.3711,-4.3711,-4.3711,-4.3711,-4.3711,-4.3711,-4.3711,-4.3711,-4.3711,-4.3711,-4.3711,-4.3711,-4.3711,-4.3711,-4.3711,-4.3711,-4.3711,-4.3711,-4.3574,-4.3203,-4.3146,-4.293,-4.2558,-4.2421,-4.2382,-4.2382,-4.209,-4.1875,-4.1875,-4.1875,-4.1699,-4.1387,-4.166,-4.1699,-4.1367,-4.1308,-4.1289,-4.1289,-4.0782,-4.0118,-3.9312,-3.9666,-3.9627,-3.9233,-3.9233,-3.9233,-2.7519,-2.7851,-2.834,-2.8015,0.0,0.0,-2.7578,-2.8184,-2.9133,0.0,-2.9708,-3.0398,-3.218,-3.2944,-3.344,-3.3936,-3.562,-3.7259,-3.8444,-3.899,0.0,0.0,0.0,0.0,-4.0392,-4.0802,-4.1094,-4.1172,-4.1211,-4.1211,-4.1211,-4.1211,-4.1211,-4.1211,-4.1211,-4.1211,-4.1211,-4.1211,-4.1387,-4.1797,-4.2226,-4.2656,-4.3086,-4.3516,-4.3711,-4.3711,-4.3711,-4.3711,-4.3711,-4.3711,-4.3711,-4.3711,-4.3711,-4.3711,-4.3711,-4.3711,-4.3711,-4.3711,-4.3711,-4.3711,-4.3711,-4.3711,-4.3711,-4.3711,-4.3711,-4.3711,-4.3711,-4.3711,-4.3711,-4.3711,-4.3711,-4.3711,-4.3711,-4.3711,-4.3711,-4.3711,-4.3711,-4.3711,-4.3711,-4.3711,-4.3711,-4.3711,-4.3711,-4.3711,-4.3672,-4.3594,-4.3301,-4.3087,-4.2969,-4.2637,-4.2382,-4.2382,-4.2304,-4.2265,-4.2265,-4.2265,-4.2266,-4.2187,-4.2226,-4.2266,-4.2187,-4.1855,-4.168,-4.168,-4.0878,-4.0118,-3.9312,-3.9391,-3.9193,-3.8758,-3.8758,-3.8758,-2.8992,-2.8953,-2.9297,-2.9531,0.0,0.0,0.0,-2.8926,-2.9133,-3.0011,-2.9722,-2.9784,-3.1323,-3.1773,-3.2169,-3.2784,-3.4346,-3.5733,-3.655,0.0,0.0,0.0,0.0,0.0,-4.0202,-4.0802,-4.1211,-4.1211,-4.1211,-4.1211,-4.1211,-4.1211,-4.1211,-4.1211,-4.1211,-4.1211,-4.1211,-4.1211,-4.1484,-4.2109,-4.2284,-4.2773,-4.3398,-4.3613,-4.3711,-4.3711,-4.3711,-4.3711,-4.3711,-4.3711,-4.3711,-4.3711,-4.3711,-4.3711,-4.3711,-4.3711,-4.3711,-4.3711,-4.3711,-4.3711,-4.3711,-4.3711,-4.3711,-4.3711,-4.3711,-4.3711,-4.3711,-4.3711,-4.3711,-4.3711,-4.3711,-4.3711,-4.3711,-4.3711,-4.3711,-4.3711,-4.3711,-4.3711,-4.3711,-4.3711,-4.3711,-4.3711,-4.3711,-4.3711,-4.3711,-4.3711,-4.3535,-4.3398,-4.3398,-4.3203,-4.3066,-4.3066,-4.2871,-4.2754,-4.2754,-4.2754,-4.2656,-4.2401,-4.2637,-4.2656,-4.2401,-4.2226,-4.1813,-4.1163,-4.0544,-3.9784,-3.8956,-3.8956,-3.8838,-3.86,-3.86,-3.86,0.0,0.0,0.0,0.0,0.0,-3.0264,0.0,0.0,0.0,-3.0684,-3.0195,0.0,0.0,0.0,0.0,0.0,0.0,0.0,0.0,0.0,0.0,0.0,0.0,0.0,-3.9623,-4.02,-4.0644,-4.0937,-4.08,-4.082,-4.1035,-4.1172,-4.1211,-4.1211,-4.1211,-4.1211,-4.1211,-4.1211,-4.1562,-4.2265,-4.2265,-4.2754,-4.3574,-4.3574,-4.3633,-4.3711,-4.3711,-4.3711,-4.3711,-4.3711,-4.3711,-4.3711,-4.3711,-4.3711,-4.3711,-4.3711,-4.3711,-4.3711,-4.3711,-4.3711,-4.3711,-4.3711,-4.3711,-4.3711,-4.3711,-4.3711,-4.3711,-4.3711,-4.3711,-4.3711,-4.3711,-4.3711,-4.3711,-4.3711,-4.3711,-4.3711,-4.3711,-4.3711,-4.3711,-4.3711,-4.3711,-4.3711,-4.3711,-4.3711,-4.3711,-4.3711,-4.3711,-4.3711,-4.3711,-4.3711,-4.3711,-4.3711,-4.3398,-4.3244,-4.3244,-4.3244,-4.3047,-4.2655,-4.3008,-4.3047,-4.2695,-4.2477,-4.1823,-4.0641,-4.0239,-3.9596,-3.871,-3.871,-3.8673,-3.86,-3.86,-3.86,0.0,0.0,0.0,0.0,-3.3105,0.0,0.0,0.0,-3.0742,-2.9004,0.0,0.0,0.0,0.0,0.0,0.0,0.0,0.0,0.0,0.0,0.0,0.0,0.0,0.0,0.0,-3.846,-3.8769,-3.9961,-3.9316,-3.9375,-4.0527,-4.0957,-4.1211,-4.1211,-4.1211,-4.1211,-4.1211,-4.1211,-4.1406,-4.1875,-4.1875,-4.2324,-4.3185,-4.3185,-4.3359,-4.3711,-4.3711,-4.3711,-4.3711,-4.3711,-4.3711,-4.3711,-4.3711,-4.3711,-4.3711,-4.3711,-4.3711,-4.3711,-4.3711,-4.3711,-4.3711,-4.3711,-4.3711,-4.3711,-4.3711,-4.3711,-4.3711,-4.3711,-4.3711,-4.3711,-4.3711,-4.3711,-4.3711,-4.3711,-4.3711,-4.3711,-4.3711,-4.3711,-4.3711,-4.3711,-4.3711,-4.3711,-4.3711,-4.3711,-4.3711,-4.3711,-4.3711,-4.3711,-4.3711,-4.3711,-4.3711,-4.3711,-4.3672,-4.3633,-4.3633,-4.3633,-4.3613,-4.3574,-4.3613,-4.3613,-4.3555,-4.2794,-4.1982,-4.1057,-4.0615,-4.0024,-3.9131,-3.9131,-3.8948,-3.86,-3.86,-3.86,0.0,0.0,0.0,0.0,0.0,0.0,0.0,0.0,-3.0644,0.0,0.0,0.0,0.0,0.0,0.0,0.0,0.0,0.0,0.0,0.0,0.0,0.0,0.0,0.0,0.0,0.0,0.0,0.0,-3.8418,-3.8769,-4.0098,-4.0566,-4.0918,-4.1211,-4.1211,-4.1211,-4.1211,-4.1211,-4.1387,-4.1797,-4.2051,-4.248,-4.3127,-4.332,-4.3535,-4.3711,-4.3711,-4.3711,-4.3711,-4.3711,-4.3711,-4.3711,-4.3711,-4.3711,-4.3711,-4.3711,-4.3711,-4.3711,-4.3711,-4.3711,-4.3711,-4.3711,-4.3711,-4.3711,-4.3711,-4.3711,-4.3711,-4.3711,-4.3711,-4.3711,-4.3711,-4.3711,-4.3711,-4.3711,-4.3711,-4.3711,-4.3711,-4.3711,-4.3711,-4.3711,-4.3711,-4.3711,-4.3711,-4.3711,-4.3711,-4.3711,-4.3711,-4.3711,-4.3711,-4.3711,-4.3711,-4.3711,-4.3711,-4.3711,-4.3711,-4.3711,-4.3711,-4.3711,-4.3463,-4.3214,-4.2965,-4.2315,-4.1723,-4.1125,-4.0696,-4.0206,-3.9634,-3.9355,-3.9113,-3.8948,-3.871,-3.86,-3.4687,0.0,0.0,0.0,0.0,0.0,0.0,0.0,0.0,0.0,0.0,0.0,0.0,0.0,0.0,0.0,0.0,0.0,0.0,0.0,0.0,0.0,0.0,0.0,0.0,0.0,0.0,0.0,0.0,-3.7598,-3.9258,-3.9863,-4.041,-4.0976,-4.1152,-4.1211,-4.1211,-4.1211,-4.1367,-4.1621,-4.1933,-4.2363,-4.291,-4.3223,-4.3476,-4.3711,-4.3711,-4.3711,-4.3711,-4.3711,-4.3711,-4.3711,-4.3711,-4.3711,-4.3711,-4.3711,-4.3711,-4.3711,-4.3711,-4.3711,-4.3711,-4.3711,-4.3711,-4.3711,-4.3711,-4.3711,-4.3711,-4.3711,-4.3711,-4.3711,-4.3711,-4.3711,-4.3711,-4.3711,-4.3711,-4.3711,-4.3711,-4.3711,-4.3711,-4.3711,-4.3711,-4.3711,-4.3711,-4.3711,-4.3711,-4.3711,-4.3711,-4.3711,-4.3711,-4.3711,-4.3711,-4.3711,-4.3711,-4.3711,-4.3711,-4.3587,-4.3463,-4.3339,-4.3173,-4.2902,-4.2402,-4.1933,-4.1557,-4.1267,-4.0864,-4.0454,-4.0056,-3.9722,-3.952,-3.9392,-3.8838,-3.86,0.0,0.0,0.0,-3.4258,0.0,0.0,0.0,0.0,-3.2363,0.0,0.0,0.0,0.0,0.0,0.0,0.0,0.0,0.0,0.0,0.0,0.0,0.0,0.0,0.0,0.0,0.0,0.0,0.0,-3.472,0.0,-3.7816,-3.8789,-3.9648,-4.0527,-4.0957,-4.1211,-4.1211,-4.1211,-4.1211,-4.123,-4.125,-4.1641,-4.2401,-4.2421,-4.291,-4.3711,-4.3711,-4.3711,-4.3711,-4.3711,-4.3711,-4.3711,-4.3711,-4.3711,-4.3711,-4.3711,-4.3711,-4.3711,-4.3711,-4.3711,-4.3711,-4.3711,-4.3711,-4.3711,-4.3711,-4.3711,-4.3711,-4.3711,-4.3711,-4.3711,-4.3711,-4.3711,-4.3711,-4.3711,-4.3711,-4.3711,-4.3711,-4.3711,-4.3711,-4.3711,-4.3711,-4.3711,-4.3711,-4.3711,-4.3711,-4.3711,-4.3711,-4.3711,-4.3711,-4.3711,-4.3711,-4.3711,-4.3711,-4.3711,-4.3711,-4.3339,-4.2943,-4.2485,-4.286,-4.2902,-4.2402,-4.1946,-4.1677,-4.1677,-4.1276,-4.0882,-4.0497,-4.0478,-4.0258,-3.9836,-3.9006,-3.86,0.0,0.0,-3.875,-3.5859,0.0,0.0,0.0,0.0,0.0,0.0,0.0,0.0,0.0,0.0,0.0,0.0,0.0,0.0,0.0,0.0,0.0,0.0,0.0,0.0,0.0,0.0,0.0,0.0,-3.3958,0.0,0.0,-3.8437,-3.9473,-4.0098,-4.0801,-4.1211,-4.1211,-4.1211,-4.1211,-4.1211,-4.1445,-4.1875,-4.2401,-4.2734,-4.3164,-4.3711,-4.3711,-4.3711,-4.3711,-4.3711,-4.3711,-4.3711,-4.3711,-4.3711,-4.3711,-4.3711,-4.3711,-4.3711,-4.3711,-4.3711,-4.3711,-4.3711,-4.3711,-4.3711,-4.3711,-4.3711,-4.3711,-4.3711,-4.3711,-4.3711,-4.3711,-4.3711,-4.3711,-4.3711,-4.3711,-4.3711,-4.3711,-4.3711,-4.3711,-4.3711,-4.3711,-4.3711,-4.3711,-4.3711,-4.3711,-4.3711,-4.3711,-4.3711,-4.3711,-4.3711,-4.3711,-4.3711,-4.3711,-4.3711,-4.3711,-4.3587,-4.3173,-4.2444,-4.2569,-4.2318,-4.1565,-4.1397,-4.1294,-4.1294,-4.1187,-4.1029,-4.0901,-4.0644,-4.0442,-4.0295,-3.9726,-3.9281,-3.9336,-3.9551,0.0,-3.7051,-3.6465,0.0,-3.3203,0.0,0.0,0.0,0.0,0.0,0.0,0.0,0.0,0.0,0.0,0.0,0.0,0.0,0.0,0.0,0.0,0.0,0.0,0.0,-3.1406,-3.2266,-3.2851,0.0,0.0,0.0,-3.8867,-3.9629,-4.0683,-4.1211,-4.1211,-4.1211,-4.1211,-4.1211,-4.1445,-4.1875,-4.2401,-4.2715,-4.3164,-4.3711,-4.3711,-4.3711,-4.3711,-4.3711,-4.3711,-4.3711,-4.3711,-4.3711,-4.3711,-4.3711,-4.3711,-4.3711,-4.3711,-4.3711,-4.3711,-4.3711,-4.3711,-4.3711,-4.3711,-4.3711,-4.3711,-4.3711,-4.3711,-4.3711,-4.3711,-4.3711,-4.3711,-4.3711,-4.3711,-4.3711,-4.3711,-4.3711,-4.3711,-4.3711,-4.3711,-4.3711,-4.3711,-4.3711,-4.3711,-4.3711,-4.3711,-4.3711,-4.3711,-4.3711,-4.3711,-4.3711,-4.3711,-4.3587,-4.3256,-4.338,-4.3048,-4.1984,-4.2068,-4.1858,-4.1145,-4.1102,-4.1102,-4.1102,-4.1102,-4.1102,-4.1102,-4.0845,-4.0717,-4.0717,-4.0295,-3.9964]},{"header":{"parameterUnit":"m.s-1","parameterCategory":1,"la1":30.6,"la2":29.2853,"lo1":-89.7004,"lo2":-87.6739,"dy":0.0162,"dx":0.0183,"nx":112,"ny":82,"refTime":"2024-06-12T18:00:00:Z","depth":0,"parameterNumber":3,"parameterNumberName":"V-component_of_WINDS"},"data":[0.0,0.0,0.0,0.0,0.0,0.0,0.0,0.0,0.0,0.0,0.0,0.0,0.0,0.0,0.0,0.0,0.0,0.0,0.0,0.0,0.0,0.0,0.0,0.0,0.0,0.0,0.0,0.0,0.0,0.0,0.0,0.0,0.0,0.0,0.0,0.0,0.0,0.0,0.0,0.0,0.0,0.0,0.0,0.0,0.0,0.0,0.0,0.0,0.0,0.0,0.0,0.0,0.0,0.0,0.0,0.0,0.0,0.0,0.0,0.0,0.0,0.0,0.0,0.0,0.0,0.0,0.0,0.0,0.0,0.0,0.0,0.0,0.0,0.0,0.0,0.0,0.0,0.0,0.0,0.0,0.0,0.0,0.0,0.0,0.0,0.0,0.0,0.0,0.0,0.0,0.0,4.2885,4.613,4.8299,4.9061,4.7537,4.4677,4.0254,0.0,0.0,0.0,0.0,0.0,0.0,0.0,0.0,0.0,0.0,0.0,0.0,0.0,0.0,0.0,0.0,0.0,0.0,0.0,0.0,0.0,0.0,0.0,0.0,0.0,0.0,0.0,0.0,0.0,0.0,0.0,0.0,0.0,0.0,0.0,0.0,0.0,0.0,0.0,0.0,0.0,0.0,0.0,0.0,0.0,0.0,0.0,0.0,0.0,0.0,0.0,0.0,0.0,0.0,0.0,0.0,0.0,0.0,0.0,0.0,0.0,0.0,0.0,0.0,0.0,0.0,0.0,0.0,0.0,0.0,0.0,0.0,0.0,0.0,0.0,0.0,0.0,0.0,0.0,0.0,0.0,0.0,0.0,0.0,0.0,0.0,0.0,0.0,0.0,0.0,0.0,0.0,0.0,0.0,0.0,0.0,0.0,0.0,0.0,0.0,0.0,0.0,0.0,0.0,3.9686,4.6444,4.7669,4.8299,4.9061,4.6609,4.3923,4.1313,0.0,0.0,0.0,0.0,0.0,0.0,0.0,0.0,0.0,0.0,0.0,0.0,0.0,0.0,0.0,0.0,0.0,0.0,0.0,0.0,0.0,0.0,0.0,0.0,0.0,0.0,0.0,0.0,0.0,0.0,0.0,0.0,0.0,0.0,0.0,0.0,0.0,0.0,0.0,0.0,0.0,0.0,0.0,0.0,0.0,0.0,0.0,0.0,0.0,0.0,0.0,0.0,0.0,0.0,0.0,0.0,0.0,0.0,0.0,0.0,0.0,0.0,0.0,0.0,0.0,0.0,0.0,0.0,0.0,0.0,0.0,0.0,0.0,0.0,0.0,0.0,0.0,0.0,0.0,0.0,0.0,0.0,0.0,0.0,0.0,0.0,0.0,0.0,0.0,0.0,0.0,0.0,0.0,0.0,0.0,0.0,0.0,0.0,0.0,0.0,0.0,0.0,0.0,3.8182,4.1792,4.7934,4.8233,4.8299,4.9061,4.6742,4.4191,4.156,3.6241,0.0,0.0,0.0,0.0,0.0,0.0,0.0,0.0,0.0,0.0,0.0,0.0,0.0,0.0,0.0,0.0,0.0,0.0,0.0,0.0,0.0,0.0,0.0,0.0,0.0,0.0,0.0,0.0,0.0,0.0,0.0,0.0,0.0,0.0,0.0,0.0,0.0,0.0,0.0,0.0,0.0,0.0,0.0,0.0,0.0,0.0,0.0,0.0,0.0,0.0,0.0,0.0,0.0,0.0,0.0,0.0,0.0,0.0,0.0,0.0,0.0,0.0,0.0,0.0,0.0,0.0,0.0,0.0,0.0,0.0,0.0,0.0,0.0,0.0,0.0,0.0,0.0,0.0,0.0,0.0,0.0,0.0,0.0,0.0,0.0,0.0,0.0,0.0,0.0,0.0,0.0,0.0,0.0,0.0,0.0,0.0,0.0,0.0,0.0,0.0,0.0,0.0,4.1494,4.3712,4.8349,4.8332,4.8233,4.8796,4.651,4.3926,4.1342,3.5358,0.0,0.0,0.0,0.0,0.0,0.0,0.0,0.0,0.0,0.0,0.0,0.0,0.0,0.0,0.0,0.0,0.0,0.0,0.0,0.0,0.0,0.0,0.0,0.0,0.0,0.0,0.0,0.0,0.0,0.0,0.0,0.0,0.0,0.0,0.0,0.0,0.0,0.0,0.0,0.0,0.0,0.0,0.0,0.0,0.0,0.0,0.0,0.0,0.0,0.0,0.0,0.0,0.0,0.0,0.0,0.0,0.0,0.0,0.0,0.0,0.0,0.0,0.0,0.0,0.0,0.0,0.0,0.0,0.0,0.0,0.0,0.0,0.0,0.0,0.0,0.0,0.0,0.0,0.0,0.0,0.0,0.0,0.0,0.0,0.0,0.0,0.0,0.0,0.0,0.0,0.0,0.0,0.0,0.0,0.0,0.0,0.0,0.0,0.0,0.0,0.0,0.0,4.1806,4.464,4.7769,4.8034,4.8034,4.8067,4.4805,4.2071,4.0561,3.3701,0.0,0.0,0.0,0.0,0.0,0.0,0.0,0.0,0.0,0.0,0.0,0.0,0.0,0.0,0.0,0.0,0.0,0.0,0.0,0.0,0.0,0.0,0.0,0.0,0.0,0.0,0.0,0.0,0.0,0.0,0.0,0.0,0.0,0.0,0.0,0.0,0.0,0.0,0.0,0.0,0.0,0.0,0.0,0.0,0.0,0.0,0.0,0.0,0.0,0.0,0.0,0.0,0.0,0.0,0.0,0.0,0.0,0.0,0.0,0.0,0.0,0.0,0.0,0.0,0.0,0.0,0.0,0.0,0.0,0.0,0.0,0.0,0.0,0.0,0.0,0.0,0.0,0.0,0.0,0.0,0.0,0.0,0.0,0.0,0.0,0.0,0.0,0.0,0.0,0.0,0.0,0.0,0.0,0.0,0.0,0.0,0.0,0.0,0.0,0.0,0.0,0.0,4.1011,4.3712,0.0,4.8001,4.7802,4.7338,4.5185,4.2682,3.9912,0.0,0.0,0.0,0.0,0.0,0.0,0.0,0.0,0.0,0.0,0.0,0.0,0.0,0.0,0.0,0.0,0.0,0.0,0.0,0.0,0.0,0.0,0.0,0.0,0.0,0.0,0.0,0.0,0.0,0.0,0.0,0.0,0.0,0.0,0.0,0.0,0.0,0.0,0.0,0.0,0.0,0.0,0.0,0.0,0.0,0.0,0.0,0.0,0.0,0.0,0.0,0.0,0.0,0.0,0.0,0.0,0.0,0.0,0.0,0.0,0.0,0.0,0.0,0.0,0.0,0.0,0.0,0.0,0.0,0.0,0.0,0.0,0.0,0.0,0.0,0.0,0.0,0.0,0.0,0.0,0.0,0.0,0.0,0.0,0.0,0.0,0.0,0.0,0.0,0.0,0.0,0.0,0.0,0.0,0.0,0.0,0.0,0.0,0.0,0.0,0.0,0.0,3.8453,4.1158,4.386,0.0,4.8001,4.7703,4.6974,4.4887,4.2204,3.8805,0.0,0.0,0.0,0.0,0.0,0.0,0.0,0.0,0.0,0.0,0.0,0.0,0.0,0.0,0.0,0.0,0.0,0.0,0.0,0.0,0.0,0.0,0.0,0.0,0.0,0.0,0.0,0.0,0.0,0.0,0.0,0.0,0.0,0.0,0.0,0.0,0.0,0.0,0.0,0.0,0.0,0.0,0.0,0.0,0.0,0.0,0.0,0.0,0.0,0.0,0.0,0.0,0.0,0.0,0.0,0.0,0.0,0.0,0.0,0.0,0.0,0.0,0.0,0.0,0.0,0.0,0.0,0.0,0.0,0.0,0.0,0.0,0.0,0.0,0.0,0.0,0.0,0.0,0.0,0.0,0.0,0.0,0.0,0.0,0.0,0.0,0.0,0.0,0.0,0.0,0.0,0.0,0.0,0.0,0.0,0.0,0.0,0.0,0.0,0.0,0.0,0.0,3.8652,4.245,4.5565,4.7769,4.8001,4.7703,4.6941,4.3514,4.0202,0.0,0.0,0.0,0.0,0.0,0.0,0.0,0.0,0.0,0.0,0.0,0.0,0.0,0.0,0.0,0.0,0.0,0.0,0.0,0.0,0.0,0.0,0.0,0.0,0.0,0.0,0.0,0.0,0.0,0.0,0.0,0.0,0.0,0.0,0.0,0.0,0.0,0.0,0.0,0.0,0.0,0.0,0.0,0.0,0.0,0.0,0.0,0.0,0.0,0.0,0.0,0.0,0.0,0.0,0.0,0.0,0.0,0.0,0.0,0.0,0.0,0.0,0.0,0.0,0.0,0.0,0.0,0.0,0.0,0.0,0.0,0.0,0.0,0.0,0.0,0.0,0.0,0.0,0.0,0.0,0.0,0.0,0.0,0.0,0.0,0.0,0.0,0.0,0.0,0.0,0.0,0.0,0.0,0.0,0.0,0.0,0.0,0.0,0.0,0.0,0.0,0.0,0.0,3.8652,4.245,4.5565,4.7769,4.8001,4.7504,4.6228,4.4176,4.1295,3.7354,0.0,0.0,0.0,0.0,0.0,0.0,0.0,0.0,0.0,0.0,0.0,0.0,0.0,0.0,0.0,0.0,0.0,0.0,0.0,0.0,0.0,0.0,0.0,0.0,0.0,0.0,0.0,0.0,0.0,0.0,0.0,0.0,0.0,0.0,0.0,0.0,0.0,0.0,0.0,0.0,0.0,0.0,0.0,0.0,0.0,0.0,0.0,0.0,0.0,0.0,0.0,0.0,0.0,0.0,0.0,0.0,0.0,0.0,0.0,0.0,0.0,0.0,0.0,0.0,0.0,0.0,0.0,0.0,0.0,0.0,0.0,0.0,0.0,0.0,0.0,0.0,0.0,0.0,0.0,0.0,0.0,0.0,0.0,0.0,0.0,0.0,0.0,0.0,0.0,0.0,0.0,0.0,0.0,0.0,0.0,0.0,0.0,0.0,0.0,0.0,0.0,0.0,3.9242,4.3069,4.6049,4.7979,4.8212,4.7713,4.6549,4.5024,4.2318,3.7964,0.0,0.0,0.0,0.0,0.0,0.0,0.0,0.0,0.0,0.0,0.0,0.0,0.0,0.0,0.0,0.0,0.0,0.0,0.0,0.0,0.0,0.0,0.0,0.0,0.0,0.0,0.0,0.0,0.0,0.0,0.0,0.0,0.0,0.0,0.0,0.0,0.0,0.0,0.0,0.0,0.0,0.0,0.0,0.0,0.0,0.0,0.0,0.0,0.0,0.0,0.0,0.0,0.0,0.0,0.0,0.0,0.0,0.0,0.0,0.0,0.0,0.0,0.0,0.0,0.0,0.0,0.0,0.0,0.0,0.0,0.0,0.0,0.0,0.0,0.0,0.0,0.0,0.0,0.0,0.0,0.0,0.0,0.0,0.0,0.0,0.0,0.0,0.0,0.0,0.0,0.0,0.0,0.0,0.0,0.0,0.0,0.0,0.0,0.0,0.0,0.0,0.0,4.0146,4.4011,4.6858,4.8332,4.8499,4.8198,4.7479,4.5918,4.3246,3.908,0.0,0.0,0.0,0.0,0.0,0.0,0.0,0.0,0.0,0.0,0.0,0.0,0.0,0.0,0.0,0.0,0.0,0.0,0.0,0.0,0.0,0.0,0.0,0.0,0.0,0.0,0.0,0.0,0.0,0.0,0.0,0.0,0.0,0.0,0.0,0.0,0.0,0.0,0.0,0.0,0.0,0.0,0.0,0.0,0.0,0.0,0.0,0.0,0.0,0.0,0.0,0.0,0.0,0.0,0.0,0.0,0.0,0.0,0.0,0.0,4.3378,0.0,0.0,0.0,0.0,0.0,0.0,0.0,0.0,0.0,0.0,0.0,0.0,0.0,0.0,0.0,0.0,0.0,0.0,0.0,0.0,0.0,0.0,0.0,0.0,0.0,0.0,0.0,0.0,0.0,0.0,0.0,0.0,0.0,0.0,0.0,0.0,0.0,0.0,0.0,0.0,0.0,4.0293,4.4011,4.6858,4.8332,4.8499,4.8198,4.7479,4.6024,4.3796,4.0534,3.6965,0.0,0.0,0.0,0.0,0.0,0.0,0.0,0.0,0.0,0.0,0.0,0.0,0.0,0.0,0.0,0.0,0.0,0.0,0.0,0.0,0.0,0.0,0.0,0.0,0.0,0.0,0.0,0.0,0.0,0.0,0.0,0.0,0.0,0.0,0.0,0.0,0.0,0.0,0.0,0.0,0.0,0.0,0.0,0.0,0.0,0.0,0.0,0.0,0.0,0.0,0.0,0.0,0.0,0.0,0.0,0.0,0.0,0.0,0.0,0.0,4.6496,0.0,0.0,0.0,0.0,0.0,0.0,0.0,0.0,0.0,0.0,0.0,0.0,0.0,0.0,0.0,0.0,0.0,0.0,0.0,0.0,0.0,0.0,0.0,0.0,0.0,0.0,0.0,0.0,0.0,0.0,0.0,0.0,0.0,0.0,0.0,0.0,0.0,0.0,0.0,0.0,4.152,4.4985,4.7509,4.8635,4.8736,4.8601,4.8182,4.7093,4.5326,4.2772,3.9357,0.0,0.0,0.0,0.0,0.0,0.0,0.0,0.0,0.0,0.0,0.0,0.0,0.0,0.0,0.0,0.0,0.0,0.0,0.0,0.0,0.0,0.0,0.0,0.0,0.0,0.0,0.0,0.0,0.0,0.0,0.0,0.0,0.0,0.0,0.0,0.0,0.0,0.0,0.0,0.0,0.0,0.0,0.0,0.0,0.0,0.0,0.0,0.0,0.0,0.0,0.0,0.0,0.0,5.679,5.7152,5.7429,5.7003,5.7138,5.7559,5.4253,5.2582,5.1943,4.9209,0.0,0.0,0.0,0.0,0.0,0.0,0.0,0.0,0.0,0.0,0.0,0.0,0.0,0.0,0.0,0.0,0.0,0.0,0.0,0.0,0.0,0.0,0.0,0.0,4.6921,4.5819,0.0,0.0,0.0,0.0,0.0,0.0,0.0,0.0,0.0,0.0,0.0,0.0,4.3254,4.6196,4.8225,4.9086,4.9086,4.9018,4.9018,4.8201,4.6937,4.5108,4.2065,3.9248,0.0,0.0,0.0,0.0,0.0,0.0,0.0,0.0,0.0,0.0,0.0,0.0,0.0,0.0,0.0,0.0,0.0,0.0,0.0,0.0,0.0,0.0,0.0,0.0,0.0,0.0,0.0,0.0,0.0,0.0,0.0,0.0,4.4732,4.6547,0.0,0.0,0.0,0.0,0.0,0.0,0.0,0.0,0.0,0.0,0.0,0.0,0.0,5.7333,5.9529,6.1136,6.2019,6.2128,6.4215,6.4541,6.3309,6.3912,6.4231,6.4318,6.3788,0.0,5.3546,5.2495,0.0,0.0,0.0,0.0,0.0,0.0,0.0,0.0,0.0,0.0,0.0,0.0,0.0,0.0,0.0,0.0,0.0,0.0,0.0,0.0,0.0,0.0,5.0146,4.9643,4.9609,4.9271,0.0,4.4248,4.0912,3.9254,3.6975,0.0,0.0,0.0,0.0,0.0,0.0,0.0,4.4978,4.6872,4.8428,4.9796,4.939,4.9018,4.9018,4.8311,4.7466,4.6563,4.424,4.2469,4.1461,3.8029,0.0,0.0,0.0,0.0,0.0,0.0,0.0,0.0,0.0,0.0,0.0,0.0,0.0,0.0,0.0,0.0,0.0,0.0,0.0,0.0,0.0,0.0,0.0,0.0,0.0,0.0,0.0,0.0,0.0,4.5536,4.8119,4.8425,4.9289,4.9184,0.0,0.0,0.0,0.0,0.0,0.0,0.0,0.0,0.0,6.0085,6.1299,6.2875,6.4816,6.6424,6.7235,6.7272,6.8742,6.8853,6.7725,6.8131,6.8031,6.7601,6.7223,6.4869,6.1074,5.8431,5.6376,5.4625,0.0,0.0,0.0,0.0,5.0361,4.9986,5.2228,5.2762,0.0,5.049,0.0,0.0,0.0,0.0,0.0,0.0,0.0,0.0,0.0,0.0,5.1718,5.1941,5.1995,5.1928,5.1589,4.9627,4.6989,0.0,4.2523,4.0899,3.7697,0.0,0.0,0.0,0.0,4.4045,4.6602,4.8597,4.9848,5.0083,4.9796,4.9458,4.9052,4.8698,4.8191,4.7447,4.5689,4.435,4.3619,4.0759,3.8096,0.0,0.0,0.0,0.0,0.0,0.0,0.0,0.0,0.0,0.0,0.0,0.0,0.0,0.0,0.0,0.0,0.0,0.0,0.0,0.0,0.0,0.0,0.0,0.0,0.0,0.0,0.0,0.0,4.9206,5.1416,5.0847,5.307,5.3638,0.0,0.0,0.0,0.0,0.0,0.0,5.8574,6.0844,6.3152,6.5414,6.6736,6.809,6.9487,7.0698,7.1198,7.1007,7.1548,7.1369,7.0576,7.0646,7.0327,6.9727,6.922,6.8694,6.7816,6.3599,6.1148,5.9713,5.634,5.4585,5.4047,5.459,5.4595,5.4734,5.7342,5.7849,5.7081,5.5544,0.0,5.1624,4.7664,0.0,0.0,0.0,0.0,5.0341,5.1276,5.2252,5.3126,5.389,5.3923,5.3788,5.3788,5.3179,5.1522,0.0,4.7259,4.6244,4.2706,0.0,0.0,0.0,0.0,4.6447,4.8496,5.0186,5.1066,5.071,5.032,4.988,4.9323,4.912,4.8698,4.7954,4.6669,4.5635,4.4905,4.2861,4.0692,3.8366,0.0,0.0,0.0,0.0,0.0,0.0,0.0,0.0,0.0,0.0,0.0,0.0,0.0,0.0,0.0,0.0,0.0,0.0,0.0,0.0,0.0,0.0,0.0,0.0,0.0,0.0,0.0,0.0,0.0,5.5825,5.8647,0.0,0.0,0.0,0.0,5.8083,6.1223,6.3775,6.504,6.7528,6.9561,7.1039,7.1929,7.2746,7.3615,7.3687,7.3341,7.2601,7.262,7.2191,7.1323,7.1342,7.1323,7.1285,7.125,7.1214,7.0847,6.6374,6.4414,6.408,6.2047,6.1046,6.0671,6.0312,5.9293,5.8261,5.9643,5.9816,5.9529,6.0675,5.8888,5.5884,5.3552,5.2107,0.0,0.0,5.3294,5.4159,5.5178,5.548,5.5531,5.5564,5.504,5.4532,5.4532,5.3957,5.2942,0.0,4.9814,4.8612,4.7684,0.0,4.6684,4.7413,4.8225,4.9323,5.0829,5.1133,5.1438,5.2131,5.0963,5.0083,5.0049,4.939,4.8698,4.7954,4.7158,4.6413,4.5669,4.4133,4.2239,4.0032,3.7031,0.0,0.0,0.0,0.0,0.0,0.0,0.0,0.0,0.0,0.0,0.0,0.0,0.0,0.0,0.0,0.0,0.0,0.0,0.0,0.0,0.0,0.0,0.0,0.0,0.0,0.0,0.0,0.0,6.0609,6.3666,0.0,6.2395,6.3953,6.4954,6.4591,6.6428,6.8152,6.9524,7.0929,7.2419,7.3954,7.4151,7.4629,7.5442,7.5442,7.5308,7.5018,7.5018,7.4297,7.2937,7.3527,7.3261,7.2365,7.2388,7.2519,7.2456,7.034,6.8503,6.6826,6.5334,6.4058,6.2977,6.2374,6.2107,6.202,6.1889,6.2089,6.2282,6.1593,5.9762,5.7631,5.6478,5.5659,5.5084,5.4838,5.4958,5.5247,5.5616,5.5699,5.5699,5.5699,5.5496,5.531,5.531,5.4735,5.4059,5.3484,5.2164,5.0744,4.9526,4.9101,4.8849,4.8631,4.9645,5.0761,5.1792,5.2351,5.2588,5.2334,5.1826,5.1116,5.0184,4.9424,4.8477,4.7259,4.6056,4.5041,4.4234,4.3234,4.2083,4.0832,3.8802,3.6197,0.0,0.0,0.0,0.0,0.0,0.0,0.0,0.0,0.0,0.0,0.0,0.0,0.0,0.0,0.0,0.0,0.0,0.0,0.0,0.0,0.0,0.0,0.0,0.0,0.0,0.0,6.2871,6.3816,6.7739,6.9493,6.7208,6.899,7.0099,6.9733,7.1025,7.2179,7.2864,7.3551,7.429,7.5258,7.5133,7.5281,7.5801,7.5836,7.5675,7.542,7.5135,7.4302,7.297,7.3557,7.3316,7.2448,7.2443,7.2544,7.2709,7.2423,7.105,6.8969,6.83,6.7109,6.5677,6.4969,6.4663,6.4463,6.3576,6.3968,6.4497,6.238,6.098,5.9943,5.9064,5.8391,5.7801,5.72,5.6859,5.6655,5.6655,5.6602,5.6549,5.6549,5.6293,5.6071,5.6071,5.548,5.4905,5.4651,5.3551,5.2401,5.142,5.1267,5.1082,5.0608,5.1336,5.2148,5.2638,5.3179,5.3315,5.2773,5.2469,5.1792,5.0574,4.956,4.8376,4.6887,4.565,4.4485,4.3457,4.2929,4.2219,4.1238,3.9512,3.7516,3.5261,0.0,0.0,0.0,0.0,0.0,0.0,0.0,0.0,0.0,0.0,0.0,0.0,0.0,0.0,0.0,0.0,0.0,0.0,0.0,0.0,0.0,0.0,0.0,5.7039,6.3428,6.7512,6.5544,7.0893,7.3453,7.0223,7.227,7.358,7.3104,7.493,7.5797,7.5139,7.5433,7.5478,7.5153,7.5019,7.4938,7.4938,7.4938,7.4549,7.3782,7.2968,7.2189,7.1402,7.139,7.1468,7.1634,7.1424,7.1434,7.1676,7.2456,7.193,7.0596,7.1116,7.0368,6.8965,6.8334,6.705,6.5445,6.4763,6.5368,6.6044,6.343,6.2873,6.2979,6.1477,6.0396,5.967,5.9636,5.9123,5.8576,5.8542,5.84,5.8223,5.8223,5.7518,5.6833,5.6833,5.624,5.553,5.4803,5.4059,5.3518,5.3518,5.3518,5.3518,5.3518,5.3518,0.0,5.3518,5.3518,5.3518,5.3518,5.2807,5.2063,5.1302,4.9882,4.8409,4.6887,4.6075,4.4945,4.3457,4.3389,4.2713,4.1292,3.914,3.7652,3.6931,0.0,0.0,0.0,0.0,0.0,0.0,0.0,0.0,0.0,0.0,0.0,0.0,0.0,0.0,0.0,0.0,0.0,0.0,0.0,0.0,0.0,0.0,6.2536,6.2789,6.655,6.9969,7.1742,7.3627,7.4769,7.4688,7.5183,7.5258,7.4562,7.5352,7.571,7.5283,7.577,7.608,7.6054,7.5836,7.5765,7.5981,7.5765,7.5699,7.5638,7.5245,7.46,7.381,7.3434,7.3043,7.2649,7.2224,7.218,7.2416,7.2446,7.2287,7.2067,7.1865,7.0957,6.9684,6.8951,6.7702,6.6401,6.6702,6.6364,6.5699,6.4875,6.4472,6.3972,6.2183,6.156,6.1341,6.0647,6.0337,6.003,5.9465,5.9258,5.9032,5.8361,5.7999,5.7791,5.7613,5.7036,5.6461,5.6224,5.5175,5.4126,5.3585,5.3518,5.3518,5.3518,5.3518,0.0,5.3518,5.3518,5.3518,5.3518,5.3315,5.2841,5.2063,5.0642,4.8917,4.6936,4.506,4.3829,4.3423,4.2895,4.2658,4.278,4.1157,4.0189,0.0,0.0,0.0,0.0,0.0,0.0,0.0,0.0,0.0,0.0,0.0,0.0,0.0,0.0,0.0,0.0,0.0,0.0,0.0,0.0,0.0,0.0,6.3262,6.6503,6.7671,6.9849,7.2196,7.4504,7.5138,7.5657,7.6378,7.6195,7.588,7.5488,7.5832,7.599,7.5783,7.5755,7.5755,7.5742,7.5516,7.5474,7.566,7.5474,7.5474,7.5625,7.527,7.4843,7.4227,7.4169,7.3854,7.3423,7.2859,7.2712,7.2841,7.2382,7.2266,0.0,0.0,0.0,0.0,0.0,6.8443,6.7724,6.7404,6.6979,6.6494,6.5826,6.5411,6.485,6.3502,6.274,6.2229,6.1673,6.1259,6.0915,6.0417,6.026,5.9965,5.9139,5.8773,5.8527,5.8113,5.7616,5.7171,5.6867,5.6122,0.0,5.4566,5.3923,5.3518,5.3518,5.3518,5.3518,5.3518,5.3518,5.3518,5.3518,5.3518,5.3179,5.2367,5.1217,0.0,0.0,0.0,4.5012,4.4404,4.3653,0.0,0.0,0.0,0.0,0.0,0.0,0.0,0.0,4.1284,4.169,0.0,0.0,0.0,0.0,0.0,0.0,0.0,0.0,0.0,0.0,0.0,0.0,0.0,0.0,0.0,0.0,6.7338,6.9848,7.1535,7.2828,7.3974,7.4906,7.5442,7.5869,7.6146,7.576,7.5601,7.5784,7.6148,7.6333,7.6237,0.0,0.0,0.0,0.0,7.4989,7.4934,7.4887,7.4853,7.4846,7.4364,7.4058,7.3863,7.4275,7.4332,7.4071,7.3534,7.3303,7.3235,7.2473,7.2131,7.205,7.2245,7.1956,7.1263,6.9756,6.9232,6.9084,6.7541,0.0,0.0,6.6469,6.5931,6.5704,6.4909,6.3772,6.2721,6.2652,6.2117,6.153,6.1461,6.1284,6.0933,6.0178,5.9652,5.9107,5.8461,5.8095,5.773,5.7036,5.6867,5.6596,5.5936,5.46,5.3619,5.3619,5.3551,5.3518,5.3518,5.3518,5.3518,5.3518,0.0,0.0,5.2503,5.1742,5.0728,4.9357,4.8563,4.7515,4.6128,4.5616,4.5616,4.6177,4.6819,4.7496,4.8157,4.8815,4.9221,4.9289,4.5094,4.4587,0.0,0.0,0.0,0.0,0.0,0.0,0.0,0.0,0.0,0.0,0.0,0.0,0.0,0.0,0.0,6.6848,6.9319,7.152,7.3127,7.3584,7.4048,7.4909,7.3836,7.3816,7.5753,7.4546,7.4075,7.5171,7.5422,7.5465,7.5298,7.6222,7.6765,7.6718,7.7144,7.7246,7.7038,7.6635,7.6425,7.6359,0.0,0.0,7.5935,7.5561,7.5399,7.532,7.4788,7.4553,7.4463,7.3566,7.2849,7.2245,7.2288,7.185,7.1227,7.1084,7.027,6.9242,6.8926,6.8473,6.7953,6.7072,6.6785,6.65,6.5139,6.4496,0.0,6.3531,6.3289,6.3013,6.2427,6.211,6.1792,6.0968,6.0027,5.9259,5.9107,5.8452,5.7866,5.7712,5.7205,5.6765,5.663,5.5344,5.4414,5.4414,5.389,5.3518,5.3518,5.3518,5.3518,5.3518,5.3518,5.345,5.3281,5.2536,5.1725,5.0829,5.0067,4.9289,4.8409,4.939,4.9729,4.9271,4.9406,4.9526,4.9661,4.983,5.0507,5.1623,4.9526,4.8898,0.0,0.0,0.0,0.0,0.0,0.0,0.0,0.0,0.0,0.0,0.0,5.9908,0.0,0.0,6.7352,7.0353,7.1544,7.2597,7.4128,7.4016,7.4108,7.49,7.4155,7.4079,7.5309,7.4801,7.4677,7.5352,7.5606,7.59,7.6298,7.6873,7.7428,7.7945,7.8114,7.8148,7.7979,7.7629,7.7256,7.6854,7.6713,7.6509,7.6309,7.6291,7.6211,7.6085,7.5667,7.5204,7.4647,7.3568,7.2845,7.2501,7.2501,7.226,7.1903,7.1594,7.1015,7.0346,7.0001,6.9345,6.8655,6.8276,6.762,6.6861,6.6083,6.5324,6.4634,6.4255,6.3876,6.3515,6.317,6.2975,6.2676,6.181,6.1092,6.0458,5.9957,5.9112,5.8457,5.8457,5.7848,5.734,5.734,5.6427,5.5581,5.5209,5.4532,5.4059,5.4059,5.3721,5.3518,5.3518,5.3518,5.3518,5.3518,5.2773,5.2131,5.1776,5.1048,5.0507,5.0119,5.0795,5.1032,5.0676,5.1014,5.1183,5.1183,5.1623,5.2164,5.2875,5.2131,5.1792,0.0,0.0,0.0,0.0,0.0,0.0,0.0,0.0,5.71,6.001,6.1923,6.4218,6.7905,6.8452,6.9566,7.3395,7.352,7.3498,7.4546,7.4292,7.4129,7.4446,7.4571,7.4692,7.4924,7.5297,7.572,7.6039,7.6266,7.6807,7.7722,7.7693,7.8044,7.8743,7.8754,7.874,7.8667,7.8433,7.7987,7.7386,7.7383,7.7069,7.6537,7.6782,7.6782,7.6622,7.6424,7.5699,7.4581,7.3572,7.2968,7.2692,7.2692,7.2692,7.2623,7.1967,7.1636,7.1394,7.0829,7.0035,6.9311,6.9311,6.8345,6.7206,6.7034,6.6117,6.5083,6.4772,6.4255,6.3772,6.3634,6.3581,6.3369,6.2621,6.2177,6.1683,6.0938,6.0004,5.9294,5.9087,5.8579,5.8105,5.7934,5.7408,5.6765,5.6003,5.5277,5.4769,5.4617,5.4093,5.3653,5.3518,5.3518,5.3518,5.3518,5.2909,5.2536,5.2536,5.1979,5.1641,5.1641,5.1641,5.1641,5.1641,5.2232,5.2536,5.2536,5.3179,5.3518,5.3518,5.3518,5.3518,4.7862,4.9297,5.1154,5.3295,5.4526,5.6616,0.0,0.0,6.3427,6.6443,6.829,6.9739,7.0891,7.2153,7.3429,7.458,7.4718,7.4477,7.3981,7.443,7.4236,7.2787,7.3237,7.3928,7.4566,7.49,7.573,7.727,7.7417,7.7709,7.8268,7.906,7.9372,7.9056,7.965,7.9874,7.9634,7.9425,7.9303,7.9177,7.8327,7.8007,7.8121,7.7444,7.7156,7.7133,7.7075,7.6248,7.4847,7.4697,7.3878,7.2692,7.2692,7.2692,7.2692,7.2588,7.2105,7.1498,7.1394,7.0484,6.9311,6.9311,6.8724,6.7842,6.7187,6.6876,6.6462,6.5083,6.4634,6.4427,6.3772,6.347,6.3324,6.3441,6.2666,6.1928,6.1993,6.1266,6.0312,5.9447,5.9207,5.888,5.8019,5.7832,5.7509,5.6799,5.6055,5.5344,5.4668,5.455,5.4228,5.3585,5.3518,5.3518,5.3518,5.3416,5.3382,5.3382,5.3281,5.3247,5.3247,5.3247,5.3247,5.3247,5.3315,5.3382,5.3382,5.345,5.3518,5.3518,5.3518,5.3518,5.1953,5.4444,5.6633,0.0,6.0358,6.3324,6.5014,6.5807,6.6807,6.898,7.0291,7.1215,7.1847,7.2965,7.393,0.0,7.5094,7.5389,7.4802,7.4841,7.4425,7.3142,7.3422,7.3925,7.455,7.5104,7.6028,7.7486,7.7588,7.8111,7.921,7.9768,8.0275,8.0648,8.0809,8.0834,8.0744,8.0478,8.0151,7.9733,7.9329,7.8989,7.8775,7.8018,7.7502,7.7166,7.6753,7.5925,7.4891,7.4442,7.3636,7.2692,7.2692,7.2692,7.2692,7.2692,7.2485,7.2209,7.2209,7.1484,7.0518,7.007,6.9414,6.8655,6.7876,6.7325,6.6896,6.6221,6.5738,6.5343,6.5033,6.4544,6.4124,6.4087,6.3352,6.2725,6.2672,6.2015,6.1326,6.0892,6.0089,5.9355,5.8957,5.8531,5.8087,5.7674,5.6904,5.6224,5.5919,5.5108,5.4329,5.3585,5.3518,5.3518,5.3518,5.3518,5.3518,5.3518,5.3518,5.3518,5.3518,5.3518,5.3518,5.3518,5.3518,5.3518,5.3518,5.3518,5.3518,5.3518,5.3518,5.3721,5.5134,5.8185,6.0634,6.1289,6.4807,6.7911,6.731,6.8118,6.9408,7.0657,7.1346,7.1882,7.2403,7.3266,7.4044,7.4444,7.549,7.5968,7.5287,7.4917,7.4306,7.3227,7.3263,7.3602,7.4153,7.5101,7.6325,7.7782,7.7966,7.8674,8.0106,8.0402,8.0738,8.1345,8.1175,8.1102,8.1175,8.1005,8.0658,8.0209,8.0042,7.9785,7.9368,7.8534,7.7789,7.7166,7.6649,7.596,7.5167,7.443,7.3671,7.2968,7.2761,7.2692,7.2692,7.2692,7.2692,7.2692,7.2692,7.2174,7.1394,7.0898,7.007,6.9207,6.8621,6.7876,6.7256,6.7068,6.662,6.6171,6.5964,6.5481,6.4976,6.4859,6.4236,6.3649,6.3517,6.2896,6.2295,6.2053,6.1076,6.0152,5.967,5.9157,5.8694,5.8346,5.7693,5.7161,5.6851,5.5683,5.4634,5.389,5.3788,5.3721,5.3518,5.3518,5.3518,5.3518,5.3518,5.3518,5.3518,5.3518,5.3518,5.3518,5.3518,5.3518,5.3518,5.3518,5.3619,5.3788,5.3788,5.4194,5.6529,5.8978,6.1806,6.4014,6.6359,6.8463,6.9932,7.0843,7.1539,7.2133,7.2262,7.2438,7.2974,7.3681,7.4456,7.5242,7.6005,7.604,7.4792,7.4397,7.3681,7.2212,7.2236,7.2553,0.0,7.4669,7.6531,7.85,7.8918,7.9593,8.0927,8.097,8.0749,8.0284,8.0259,8.036,8.0635,8.0635,8.0724,8.097,8.0426,8.0168,8.0134,7.8913,7.7959,7.7201,7.7166,7.6753,7.5994,7.5201,7.443,7.3692,7.2968,7.2692,7.2692,7.2692,7.2692,7.2692,7.2692,7.2174,7.1498,7.1463,7.0484,6.9311,6.9276,6.8724,6.7911,6.7187,6.6999,6.6792,6.6102,6.5895,6.5861,6.5842,6.5255,6.4669,6.465,6.4064,6.3303,6.2362,6.2153,6.1584,5.9911,5.9567,5.9328,5.8593,5.8456,5.8041,5.6954,5.6139,5.5361,5.4651,5.4583,5.4262,5.3551,5.3518,5.3518,5.3518,5.3518,5.3518,5.3518,5.3518,5.3518,5.3518,5.3518,5.3518,5.3518,5.3518,5.3856,5.4583,5.4583,5.4972,5.9666,6.2681,6.5497,6.731,6.9483,7.1236,7.1586,7.1853,7.1927,7.1452,7.0986,7.0648,7.0617,7.1408,7.2329,7.3255,7.4741,7.5504,7.4717,7.5345,7.5036,7.272,7.3291,0.0,0.0,0.0,0.0,7.777,7.7869,7.8685,8.0632,8.1078,8.1175,8.1005,8.1175,8.1297,8.1393,8.1393,8.1442,8.1514,8.1368,8.0738,7.9705,7.9316,7.8408,7.7201,7.7201,7.6787,7.6029,7.5235,7.4464,7.3727,7.3002,7.2692,7.2692,7.2692,7.2692,7.2692,7.2692,7.2519,7.2209,7.167,7.0808,6.9932,6.9449,6.8759,6.8049,6.7807,6.7738,6.7669,6.7428,6.6999,6.6654,6.6654,6.6068,6.5343,6.4807,6.4496,6.4098,6.3285,6.2733,6.2215,6.1644,6.1076,6.0438,5.9558,5.8886,5.8129,5.7132,5.6773,5.6297,5.5412,5.5344,5.5225,5.4989,5.4955,5.4752,5.4262,5.4228,5.4025,5.3518,5.3518,5.3518,5.3518,5.3518,5.3754,5.4228,5.4228,5.46,5.5344,5.5344,5.5716,6.2515,6.557,6.8167,6.9522,7.1228,7.2501,7.2245,7.1996,7.1452,7.0213,6.9386,6.8709,6.8192,6.88,6.999,7.1729,7.3515,7.4808,7.5096,7.5875,7.5697,7.3742,7.432,7.4557,0.0,0.0,0.0,7.7052,7.7869,7.8903,8.037,8.1063,8.1345,8.1248,8.1417,8.149,8.149,8.149,8.1538,8.1668,8.1668,8.0889,7.9477,7.9477,7.8649,7.7201,7.7201,7.6925,7.6408,7.5649,7.4856,7.4119,7.3382,7.2933,7.2692,7.2692,7.2692,7.2692,7.2692,7.2692,7.2623,7.2105,7.1415,7.0656,6.9932,6.9138,6.8483,6.8187,6.8083,6.8083,6.8083,6.7738,6.7394,6.7394,6.6827,6.6068,6.529,6.491,6.4462,6.3738,6.3239,6.2825,6.2549,6.1841,6.0976,6.0042,5.9403,5.8644,5.7628,5.7438,5.7043,5.619,5.6071,5.6003,5.5733,5.5699,5.5496,5.5006,5.5006,5.4769,5.4312,5.4296,5.4296,5.4296,5.4296,5.4532,5.5006,5.5006,5.5378,5.6071,5.6071,5.6494,6.5122,6.7546,6.9638,7.0622,7.1589,7.2245,7.2029,7.1349,7.026,6.8515,6.7486,6.6609,0.0,0.0,6.7637,7.0579,7.2428,7.4111,7.5848,7.5944,7.5635,0.0,0.0,0.0,0.0,0.0,0.0,7.6495,0.0,8.011,8.0213,8.0957,8.1273,8.1029,8.1029,8.1054,8.1054,8.1054,8.1175,8.1417,8.1417,8.0747,7.9477,7.9477,7.8649,7.7201,7.7201,7.7201,7.7132,7.6408,7.5615,7.4822,7.4085,7.3347,7.2692,7.2692,7.2692,7.2692,7.2692,7.2692,7.2692,7.2692,7.2174,7.136,7.0691,6.9932,6.9138,6.8359,6.8118,6.8083,6.8083,6.8083,6.8083,6.8083,6.7566,6.6861,6.6137,6.5359,6.46,6.3807,6.3653,6.3358,6.2687,6.1875,6.1063,6.0163,5.999,5.9539,5.8327,5.8027,5.7629,5.6934,5.6867,5.6562,5.5868,5.58,5.58,5.5767,5.5767,5.5733,5.5699,5.5699,5.5699,5.5699,5.5699,5.5733,5.5767,5.5767,5.6139,5.6867,5.6867,5.7239,6.8051,6.9818,7.0896,7.1696,7.2,7.2007,7.1754,7.028,6.8481,6.6722,6.4478,6.2541,0.0,0.0,0.0,6.7637,7.1075,0.0,7.5601,7.6907,0.0,7.6516,0.0,7.7121,7.5753,7.6717,0.0,0.0,7.778,7.9016,8.0726,8.1194,8.1369,8.1297,8.149,8.162,8.162,8.162,8.1644,8.1715,8.1715,8.0912,7.9477,7.9477,7.8649,7.7201,7.7201,7.7201,7.7132,7.6408,7.5615,7.4822,7.4085,7.3347,7.2692,7.2692,7.2692,7.2692,7.2692,7.2692,7.2692,7.2692,7.2174,7.1463,7.1256,7.0311,6.9276,6.9069,6.8586,6.8083,6.8083,6.8083,6.8083,6.8083,6.7945,6.7601,6.6896,6.6566,6.6014,6.4669,6.3979,6.3531,6.3342,6.2687,6.2117,6.1856,6.1213,6.0122,5.8413,5.8135,5.7995,5.7663,5.7611,5.7543,5.734,5.734,5.7103,5.6544,5.6528,5.6274,5.5733,5.5699,5.5699,5.5699,5.5699,5.5969,5.6528,5.6528,5.69,5.7611,5.7611,5.773,6.9685,7.1157,7.2013,7.1864,7.1615,7.1017,6.978,6.8019,6.5929,6.328,6.1197,0.0,5.8795,6.0825,6.3429,0.0,0.0,0.0,7.5879,7.7377,7.8147,0.0,7.8492,0.0,7.7459,7.8211,7.8832,0.0,7.8899,7.9381,8.0399,8.0946,8.1224,8.1224,8.1466,8.1691,8.181,8.181,8.181,8.181,8.181,8.0983,7.9477,7.9477,7.8649,7.7201,0.0,7.7201,7.7166,7.6753,7.5925,7.4856,7.4442,7.3636,7.2692,7.2692,7.2692,7.2692,7.2692,7.2692,7.2692,7.2692,7.2381,7.1967,7.1622,7.0691,6.9725,6.938,6.8724,6.8083,6.8083,6.8083,6.8083,6.8083,6.8083,6.7911,6.7152,6.6999,6.6531,6.5014,6.4358,6.3979,6.3669,6.3273,6.2823,6.244,6.1883,6.1014,5.9527,5.8957,5.8527,5.8061,5.7954,5.79,5.79,5.79,5.773,5.7306,5.7273,5.7103,5.6697,5.6664,5.6664,5.6664,5.6664,5.6867,5.7273,5.7273,5.7476,5.79,5.79,5.79,7.0655,7.1844,7.2673,7.1582,7.0846,6.969,6.7362,6.5358,6.299,5.9419,0.0,5.7088,5.6325,5.8254,6.1129,6.4681,0.0,7.2394,7.6352,7.7435,7.8247,7.9261,7.9596,7.9744,7.9744,8.0034,8.0487,8.1195,8.1056,8.0681,8.0072,8.0702,8.1102,8.1102,8.1321,8.1538,8.181,8.181,8.181,8.181,8.181,8.0983,7.9477,7.9477,7.8649,7.7201,7.7201,0.0,7.7201,7.7201,7.6339,7.5063,7.496,7.4085,7.283,7.2726,7.2692,7.2692,7.2692,7.2692,7.2692,7.2692,7.2692,7.2554,7.1843,7.1139,7.0415,6.9759,6.8966,6.8256,6.8256,6.8187,6.8083,6.8083,6.8083,6.7911,6.7256,6.7049,6.66,6.5255,6.4841,6.4496,6.3841,6.3669,6.3303,6.2502,6.238,6.205,6.1131,6.0107,5.9246,5.8599,5.8248,5.8105,5.8105,5.7967,5.79,5.79,5.79,5.79,5.79,5.79,5.79,5.79,5.79,5.79,5.79,5.79,5.79,5.79,5.79,5.7967,7.2112,7.2253,7.1814,7.159,7.0439,6.8885,6.7184,6.3734,0.0,0.0,5.5615,5.4025,5.3247,5.6427,6.0013,6.255,6.6643,7.121,7.6217,7.6995,7.8044,0.0,8.097,0.0,0.0,0.0,0.0,0.0,8.2665,8.2284,8.116,8.1445,8.1633,8.1633,8.1715,8.1763,8.181,8.181,8.181,8.181,8.181,8.0983,7.9477,7.9477,7.8649,7.7201,7.7201,0.0,7.7201,7.7201,7.6684,7.5822,7.5167,7.4373,7.3554,7.2933,7.2692,7.2692,7.2692,7.2692,7.2692,7.2692,7.2692,7.2657,7.2519,7.1933,7.1256,7.1153,7.0139,6.9104,6.9104,6.8621,6.8083,6.8083,6.8083,6.8049,6.7945,6.7428,6.6911,6.6635,6.5566,6.4669,6.4531,6.3979,6.3531,6.339,6.3356,6.3062,6.232,6.122,6.0487,6.0351,5.9554,5.9052,5.9052,5.8363,5.79,5.79,5.79,5.79,5.79,5.79,5.79,5.79,5.79,5.79,5.79,5.79,5.79,5.79,5.79,5.822,7.1792,7.1817,7.1558,7.1931,7.025,6.7895,6.5608,0.0,0.0,0.0,5.3315,5.2283,5.23,5.5023,5.8134,6.0791,6.4005,6.8166,7.3781,7.4897,7.6386,7.9735,8.0818,8.1317,0.0,0.0,8.258,8.258,8.2496,8.2228,8.1792,8.1527,8.1442,8.1562,8.1585,8.1668,8.181,8.181,8.181,8.181,8.181,8.0983,7.9477,7.9477,7.8649,7.7201,7.7201,0.0,7.7201,7.7201,7.6753,7.6029,7.5201,7.4464,7.3727,7.2968,7.2692,7.2692,7.2692,7.2692,7.2692,7.2692,7.2692,7.2692,7.2692,7.214,7.1498,7.1498,7.0725,6.9794,6.9414,6.9,6.8621,6.8187,6.8083,6.8083,6.8083,6.7807,6.7463,6.7049,6.6393,6.5773,6.5393,6.4669,6.4152,6.4152,6.3841,6.3462,6.3117,6.2591,6.1858,6.085,6.0238,5.9886,5.9741,5.9291,5.9032,5.9032,5.9032,5.9032,5.9032,5.9032,5.9032,5.9032,5.9032,5.9032,5.9032,5.9032,5.9032,5.9032,5.9032,5.9235,7.0916,7.1176,7.1424,7.2022,6.9789,6.6711,6.3903,6.0114,0.0,0.0,5.1488,5.1201,5.1928,5.3805,5.624,5.937,6.1772,6.5358,7.1312,7.3071,7.5067,0.0,8.0547,0.0,8.1528,8.2392,0.0,8.2959,8.2446,8.2076,8.1967,8.1459,8.1273,8.1466,8.1466,8.1562,8.181,8.181,8.181,8.181,8.181,8.0983,7.9477,7.9477,7.8649,7.7201,7.7201,0.0,0.0,7.7201,7.6856,7.627,7.5477,7.4684,7.3947,7.3209,7.283,7.2692,7.2692,7.2692,7.2692,7.2692,7.2692,7.2692,7.2692,7.2278,7.176,7.176,7.1243,7.0518,6.9932,6.9552,6.9104,6.829,6.8083,6.8083,6.8083,6.8083,6.7911,6.7325,6.7083,6.6827,6.624,6.5481,6.4945,6.4945,6.4324,6.3841,6.3841,6.3703,6.297,6.1363,6.0938,6.0721,6.0446,6.0201,6.0114,6.0114,6.0114,6.0114,6.0114,6.0114,6.0114,6.0114,6.0114,6.0114,6.0114,6.0114,6.0114,6.0114,6.0114,6.0182,7.0116,7.0804,7.1323,7.1391,6.8639,6.529,6.3043,0.0,0.0,5.181,5.071,5.0439,5.1167,5.2621,5.4905,5.8506,6.1028,6.458,7.0545,7.3206,7.5618,7.8729,0.0,0.0,8.2306,8.3827,0.0,8.4833,8.3993,8.283,8.1517,8.1654,8.1739,8.1763,8.1763,8.1787,8.181,8.181,8.181,8.181,8.181,8.0983,7.9477,7.9477,7.8649,7.7201,7.7201,0.0,0.0,7.7201,7.7166,7.7028,7.627,7.5511,7.4718,7.3981,7.3278,7.2692,7.2692,7.2692,7.2692,7.2692,7.2692,7.2692,7.2692,7.2657,7.2588,7.2588,7.2036,7.136,7.1325,7.0311,6.9104,6.829,6.8083,6.8083,6.8083,6.8083,6.8083,6.8014,6.7463,6.6999,6.693,6.6275,6.5792,6.5792,6.5117,6.46,6.46,6.4014,6.3383,6.2852,6.2161,6.171,6.1488,6.0634,6.0114,6.0114,6.0114,6.0114,6.0114,6.0114,6.0114,6.0114,6.0114,6.0114,6.0114,6.0114,6.0114,6.0114,6.0114,6.0486,6.9079,7.0398,7.1289,7.1289,6.847,6.5141,6.2908,0.0,5.3957,5.1674,5.0608,5.0338,5.1066,5.2046,5.3856,5.7137,5.8084,6.0317,6.5811,6.8132,7.0872,7.5202,7.8111,0.0,0.0,0.0,8.3997,8.3746,8.3491,8.28,8.1496,8.1633,8.1739,8.1538,8.1739,8.181,8.181,8.181,8.181,8.181,8.181,8.0983,7.9477,7.9477,7.8649,7.7201,7.7201,0.0,0.0,7.7201,7.7201,7.7132,7.6373,7.5615,7.4822,7.405,7.3347,7.2692,7.2692,7.2692,7.2692,7.2692,7.2692,7.2692,7.2692,7.2692,7.2692,7.2692,7.2485,7.2105,7.1657,7.0415,6.9207,6.8897,6.8428,6.8083,6.8083,6.8083,6.8083,6.8083,6.7842,6.7669,6.7669,6.7049,6.6551,6.6551,6.593,6.5274,6.4772,6.4427,6.3971,6.3242,6.2802,6.2442,6.2116,6.1729,6.1467,6.1467,6.1467,6.1467,6.1467,6.1467,6.1467,6.1467,6.1467,6.1467,6.1467,6.1467,6.1467,6.1467,6.1467,6.1637,6.7151,6.9011,7.0275,7.0275,6.7658,6.4444,0.0,5.7848,5.3754,5.1911,5.0777,5.0371,5.1336,5.1961,5.3145,5.5716,5.6258,5.7931,6.255,6.5019,6.7963,7.2326,0.0,7.8431,0.0,8.3089,8.389,8.3432,8.3362,8.2853,8.1805,8.1771,8.1715,8.1514,8.1715,8.181,8.181,8.181,8.181,8.181,8.181,8.0983,7.9477,7.9477,7.8649,7.7201,7.7201,0.0,0.0,7.7201,7.7201,7.7132,7.6615,7.596,7.5167,7.4395,7.3636,7.3002,7.2761,7.2692,7.2692,7.2692,7.2692,7.2692,7.2692,7.2692,7.2692,7.2692,7.2692,7.2519,7.1726,7.0725,6.9897,6.969,6.9035,6.8428,6.8428,6.8256,6.8083,6.8083,6.8083,6.8083,6.8083,6.7669,6.7325,6.7325,6.6723,6.6033,6.5462,6.5186,6.4766,6.4076,6.3856,6.342,6.2552,6.2479,6.2459,6.24,6.24,6.24,6.24,6.24,6.24,6.24,6.24,6.24,6.24,6.24,6.24,6.24,6.24,6.24,6.4038,6.6271,6.7929,6.7929,6.573,6.2936,6.0655,5.6697,5.3281,5.2469,5.1116,5.0541,5.2029,5.23,5.2807,5.438,5.6445,5.8949,6.1994,6.5561,6.8741,0.0,0.0,7.6743,7.9284,8.3142,8.5276,8.4801,8.4037,0.0,8.2526,8.2046,8.181,8.181,8.181,8.181,8.181,8.181,8.181,8.181,8.181,8.0983,7.9477,7.9477,7.8649,0.0,0.0,0.0,0.0,7.7201,7.7201,7.7201,7.7201,7.6753,7.5994,7.5201,7.4408,7.3692,7.2968,7.2692,7.2692,7.2692,7.2692,7.2692,7.2692,7.2692,7.2692,7.2692,7.2692,7.2519,7.1726,7.1498,7.1291,7.0553,6.9828,6.9276,6.9276,6.8655,6.8083,6.8083,6.8083,6.8083,6.8083,6.8083,6.8083,6.8083,6.7463,6.6999,6.6999,6.6344,6.5819,6.5587,6.5568,6.4776,6.2848,6.2707,6.2596,6.24,6.24,6.24,6.24,6.24,6.24,6.24,6.24,6.24,6.24,6.24,6.24,6.24,6.24,6.24,6.0317,6.2042,6.326,6.2719,6.1095,5.9336,5.8118,5.5175,5.2604,5.2367,5.1522,5.115,5.2131,5.2739,5.4093,5.7137,5.8626,6.0283,6.2821,6.6373,0.0,7.1086,7.6791,8.0746,0.0,0.0,8.4284,8.3291,8.3007,0.0,8.2046,8.1866,8.1739,8.1514,8.1715,8.181,8.181,8.181,8.1535,8.0959,8.0959,8.0224,7.8741,7.8741,7.8166,0.0,0.0,0.0,0.0,7.7201,7.7201,7.7201,7.7201,7.6408,7.5235,7.4994,7.4119,7.3002,7.2761,7.2692,7.2692,7.2692,7.2692,7.2692,7.2692,7.2692,7.2692,7.2692,7.2692,7.2623,7.2381,7.1933,7.1429,7.1187,7.0587,7.007,7.007,6.9449,6.8931,6.8931,6.8463,6.8083,6.8083,6.8083,6.8083,6.8083,6.7911,6.7566,6.7049,6.6792,6.6351,6.5622,6.5534,6.4981,6.3582,6.3441,6.3139,6.2434,6.24,6.24,6.24,6.24,6.24,6.24,6.24,6.24,6.24,6.24,6.2651,6.3159,6.2618,6.2651,5.6697,5.8457,5.9539,5.9336,5.8355,5.7205,5.619,5.4059,5.23,5.23,5.1708,5.1505,5.257,5.3179,5.4363,5.6934,5.8186,5.9844,6.2685,6.6068,0.0,7.2361,0.0,0.0,0.0,8.3074,8.3884,8.3129,8.281,0.0,8.2235,8.1948,8.1739,8.1572,8.1715,8.181,8.181,8.181,8.1397,8.058,8.058,7.9821,7.8396,7.8396,7.7959,0.0,0.0,0.0,0.0,7.7201,7.7201,7.7201,7.7201,7.6442,7.5339,7.5029,7.4154,7.3071,7.2795,7.2692,7.2692,7.2692,7.2692,7.2692,7.2692,7.2692,7.2692,7.2692,7.2692,7.2692,7.2692,7.2347,7.1967,7.1967,7.1381,7.0829,7.0829,7.0242,6.9725,6.9725,6.9311,6.8946,6.8946,6.8946,6.8946,6.8946,6.8724,6.8394,6.7931,6.7601,6.7182,6.6544,6.6475,6.6063,6.4976,6.4492,6.3939,6.328,6.3226,6.3091,6.2821,6.3091,6.3091,6.2821,6.3091,6.3226,6.3226,6.3226,6.3463,6.3883,6.3429,6.3463,0.0,5.5141,5.6494,5.7171,5.6833,5.5987,5.4668,5.3213,0.0,5.2198,5.1674,5.1674,5.3281,5.3551,5.3856,5.4905,5.6258,5.8524,6.2245,6.5514,0.0,0.0,7.7505,0.0,8.0284,8.2528,8.389,8.3855,8.3225,0.0,8.2845,8.219,8.181,8.181,8.181,8.181,8.181,8.181,8.1362,8.0511,8.0511,7.9752,7.8327,7.8327,7.7913,0.0,0.0,0.0,0.0,7.7201,7.7201,7.7201,7.7201,7.6753,7.5994,7.5201,7.443,7.3692,7.2968,7.2692,7.2692,7.2692,7.2692,7.2692,7.2692,7.2692,7.2692,7.2692,7.2692,7.2692,7.2692,7.2692,7.2692,7.2692,7.214,7.1588,7.1588,7.0981,7.0484,7.0484,7.0449,7.0415,7.0415,7.0415,7.0415,7.0415,6.9828,6.938,6.938,6.869,6.8187,6.8167,6.8098,6.7709,6.6838,6.5673,6.491,6.4654,6.4613,6.4309,6.3612,6.4241,6.4275,6.3579,6.4241,6.4613,6.4613,6.4613,6.4613,6.4681,6.4613,6.4647,4.7782,0.0,5.1741,5.191,5.1792,5.1725,0.0,5.1285,5.0777,5.1336,5.1336,5.1844,5.3957,5.389,5.4871,5.9066,6.0486,6.2381,6.6102,7.0812,0.0,7.7302,7.9994,8.1517,8.1153,8.2356,8.2914,8.2362,8.2155,8.2052,8.2052,8.1879,8.181,8.181,8.181,8.181,8.181,8.181,8.1121,7.9752,7.9752,7.8959,7.7477,7.7477,7.7373,0.0,0.0,0.0,7.7201,7.7201,7.7201,7.7201,7.7201,7.6753,7.5994,7.5201,7.443,7.3692,7.2968,7.2692,7.2692,7.2692,7.2692,7.2692,7.2692,7.2692,7.2692,7.2692,7.2692,7.2692,7.2692,7.2692,7.2692,7.2692,7.2554,7.2416,7.2416,7.1795,7.1222,7.1222,7.0794,7.0415,7.0415,7.0415,7.0415,7.0415,7.0242,7.0139,7.0139,6.9483,6.892,6.8724,6.8223,6.7731,6.7338,6.6533,6.571,6.4876,6.4681,6.4512,6.4343,6.4512,6.4512,6.4343,6.4512,6.4613,6.4613,6.4613,6.4884,6.5446,6.485,6.4884,4.609,4.8173,4.983,5.0845,5.1116,5.1217,5.1607,5.0879,5.0218,5.0608,5.0964,5.1776,5.3721,5.4329,5.5767,5.9641,6.1163,6.3666,6.8741,0.0,7.6697,7.8865,8.0678,8.1743,0.0,8.206,8.2224,8.1845,0.0,8.181,8.181,8.181,8.181,8.181,8.181,8.181,8.181,8.1431,8.0672,7.9477,7.9155,7.8339,7.7201,7.7201,7.7201,0.0,0.0,0.0,7.7201,7.7201,7.7201,7.7201,7.7201,7.6753,7.5994,7.5201,7.443,7.3692,7.2968,7.2692,7.2692,7.2692,7.2692,7.2692,7.2692,7.2692,7.2692,7.2692,7.2692,7.2692,7.2692,7.2692,7.2692,7.2692,7.2692,7.2692,7.2692,7.2347,7.2071,7.2071,7.1726,7.145,7.145,7.145,7.145,7.145,7.1139,7.0877,7.0877,7.0175,6.9528,6.9129,6.8534,6.8035,6.7672,6.7113,6.6521,6.6011,6.5752,6.5459,6.5121,6.5425,6.5628,6.5628,6.5628,6.5628,6.5628,6.5628,6.5831,6.6203,6.5797,6.5831,4.6278,4.8037,4.9627,5.1488,5.2131,5.2266,5.2164,5.1183,5.027,5.027,5.0845,5.1911,5.3687,5.5192,5.6984,5.9317,6.1366,6.4749,7.0804,7.4257,7.708,7.9566,8.0575,0.0,8.1715,8.1787,8.181,8.181,0.0,8.181,8.181,8.181,8.181,8.181,8.181,8.1741,8.1638,8.0925,8.0235,7.9477,7.8741,7.7959,7.7201,7.7201,7.7201,7.7201,0.0,0.0,7.7201,7.7201,7.7201,7.7201,7.7201,7.6822,7.6166,7.5373,7.4615,7.3865,7.3002,7.2692,7.2692,7.2692,7.2692,7.2692,7.2692,7.2692,7.2692,7.2692,7.2692,7.2692,7.2692,7.2692,7.2692,7.2692,7.2692,7.2692,7.2692,7.2692,7.2692,7.2692,7.2692,7.2692,7.2649,7.2628,7.2628,7.2586,7.2035,7.1566,7.1566,7.078,7.0031,6.9603,6.907,6.8583,6.815,6.7667,6.7371,6.7371,6.7006,6.6542,6.5865,6.6474,6.6791,6.6791,6.6791,6.6791,6.6791,6.6791,6.6791,6.6791,6.6791,6.6791,4.6771,4.8815,5.0015,5.0353,5.1386,5.2131,5.1505,5.1201,5.1032,5.1032,5.1623,5.2976,5.5784,5.7491,5.9453,6.2327,6.6203,6.9845,0.0,0.0,7.8548,7.9459,0.0,8.1609,8.1466,8.1691,8.181,8.181,0.0,8.181,8.181,8.181,8.181,8.181,8.181,8.1466,8.0787,8.0649,8.0235,7.9477,7.8741,7.7959,7.7201,7.7201,7.7201,7.7201,0.0,7.7201,7.7201,7.7201,7.7201,7.7201,7.7201,7.7132,7.6925,7.6201,7.5408,7.4546,7.3153,7.2692,7.2692,7.2692,7.2692,7.2692,7.2692,7.2692,7.2692,7.2692,7.2692,7.2692,7.2692,7.2692,7.2692,7.2692,7.2692,7.2692,7.2692,7.2692,7.2692,7.2692,7.2692,7.2628,7.2416,7.2373,7.2309,7.2115,7.1991,7.1923,7.1923,7.1195,7.0661,7.0567,6.9956,6.9491,6.941,6.862,6.8119,6.8119,6.7311,6.6757,6.6622,6.6724,6.6791,6.6791,6.6791,6.6791,6.6791,6.6791,6.6791,6.6791,6.6791,6.6791,4.579,4.8071,4.9695,5.0507,5.2739,5.4634,5.4279,5.3619,5.3044,5.3044,5.3315,5.4194,5.6393,5.8998,6.2212,6.644,6.918,7.1627,7.3966,7.6373,7.8402,0.0,0.0,8.1585,8.1585,8.1739,8.181,8.181,0.0,0.0,8.181,8.181,8.181,8.181,8.1397,8.0959,8.058,7.9787,7.9258,7.8913,7.8097,7.7546,7.7201,7.7201,7.7201,7.7201,0.0,7.7201,7.7201,7.7201,7.7201,7.7201,7.7201,7.7201,7.7063,7.5891,7.496,7.4154,7.3071,7.2692,7.2692,7.2692,7.2692,7.2692,7.2692,7.2692,7.2692,7.2692,7.2692,7.2692,7.2692,7.2692,7.2692,7.2692,7.2692,7.2692,7.2692,7.2692,7.2692,7.2692,7.2586,7.2459,7.2331,7.2223,7.2094,7.2007,7.1985,7.1985,7.1985,7.1569,7.1116,7.0815,7.0314,6.9832,6.9552,6.902,6.854,6.8099,6.7282,6.696,6.7387,6.6994,6.6791,6.6791,6.6791,6.6791,6.6791,6.6791,6.6791,6.6791,6.6791,6.6791,4.5486,4.7582,4.9357,5.0829,5.3737,5.6461,5.7171,5.6292,5.5565,5.6275,5.6292,5.6562,5.7881,6.1028,6.5019,6.9925,7.1345,7.2621,7.4943,7.6577,7.8255,8.0065,8.1019,8.1562,8.1787,8.181,8.181,0.0,0.0,0.0,8.181,8.181,8.181,8.181,8.1224,8.0718,8.0339,7.9201,7.8568,7.8396,7.758,7.7201,7.7201,7.7201,7.7201,7.7201,7.7201,7.7201,7.7201,7.7201,7.7201,7.7201,7.7201,7.7201,7.6994,7.5477,7.4546,7.3912,7.3037,7.2692,7.2692,7.2692,7.2649,7.2607,7.2671,7.2607,7.2565,7.2671,7.2649,7.2607,7.2671,7.2692,7.2692,7.2692,7.2692,7.2692,7.2692,7.2692,7.2692,7.2692,7.2544,7.2373,7.2331,7.2137,7.1985,7.1985,7.1898,7.1854,7.1898,7.17,7.1374,7.0971,7.0631,7.0228,6.9622,6.9458,6.9079,6.847,6.776,6.759,6.8166,6.7658,6.7252,6.7083,6.7231,6.7163,6.6791,6.696,6.696,6.6791,6.6791,6.6791,4.7312,4.836,4.9357,5.0829,5.2976,5.548,5.8201,5.822,5.8475,6.1284,6.1298,6.1061,6.1839,6.4478,6.776,7.1616,7.2868,7.3976,7.5769,0.0,7.905,8.0076,8.1104,8.1787,8.181,8.181,8.181,0.0,0.0,0.0,8.181,8.181,8.181,8.181,8.1741,8.1052,7.958,7.9477,7.9086,7.8396,7.758,7.7201,7.7201,7.7201,7.7201,7.7201,7.7201,7.7201,7.7201,7.7201,7.7201,7.7201,7.7201,7.7201,7.6994,7.5477,7.4891,7.4615,7.3209,7.2692,7.2692,7.2692,7.2544,7.2395,7.2628,7.2395,7.2137,7.2565,7.2523,7.2395,7.2628,7.2692,7.2692,7.2692,7.2692,7.2692,7.2692,7.2692,7.2692,7.2692,7.2671,7.2586,7.2352,7.2137,7.1985,7.1985,7.1646,7.1424,7.16,7.1457,7.13,7.1289,7.1244,7.0939,7.0184,7.0116,7.0116,7.0048,6.935,6.8977,6.9011,6.8977,6.8571,6.7827,6.8538,6.8233,6.6791,6.7489,6.7489,6.6791,6.6791,6.6791,4.4945,4.7684,5.0288,4.9916,5.3281,5.7171,5.9235,5.9844,6.0858,6.3855,6.3869,0.0,0.0,6.6745,6.8707,7.2462,7.3331,7.435,7.6718,7.7609,7.8642,8.0254,8.0809,8.1028,8.1028,8.1028,8.1028,0.0,0.0,0.0,8.1776,8.1328,8.1028,8.1028,8.0155,7.9396,7.8844,7.8304,7.7925,7.7649,7.7339,7.7201,7.7201,7.7201,7.7201,7.7201,7.7201,7.7201,7.7201,7.7201,7.7201,7.7201,7.7201,7.7201,7.6994,7.5477,7.4925,7.4684,7.3209,7.2692,7.2692,7.2692,7.2628,7.2565,7.2671,7.2565,7.2459,7.2649,7.2501,7.2373,7.2628,7.2692,7.2692,7.2692,7.2692,7.2692,7.2692,7.2692,7.2649,7.248,7.2352,7.218,7.1907,7.17,7.158,7.158,7.1424,7.1334,7.139,7.1356,7.1289,7.1289,7.1289,7.1188,7.0906,7.0872,7.0872,7.0872,6.9755,6.9316,6.9755,6.935,6.8977,6.8639,6.8944,6.8808,6.8233,6.8504,6.8504,6.8233,6.8233,6.8233,4.4539,4.7582,5.0676,4.9898,5.3484,5.7915,6.0588,6.1772,6.3328,6.6745,6.6474,6.619,6.8035,0.0,0.0,0.0,7.3492,7.4558,7.6927,7.7522,7.8279,7.9706,8.0097,8.0235,8.0235,8.0235,8.0235,0.0,0.0,0.0,0.0,8.0545,8.0235,8.0235,7.927,7.8637,7.8396,7.7856,7.7442,7.7201,7.7201,7.7201,7.7201,7.7201,7.7201,7.7201,7.7201,7.7201,7.7201,7.7201,7.7201,7.7201,7.7201,7.7201,7.7028,7.5753,7.527,7.5063,7.3589,7.3037,7.3002,7.2761,7.2628,7.2586,7.2671,7.2586,7.2501,7.2649,7.2501,7.2373,7.2628,7.2586,7.248,7.248,7.248,7.248,7.248,7.248,7.2416,7.2245,7.2094,7.1942,7.1754,7.1546,7.1412,7.1513,7.1401,7.1334,7.1401,7.1356,7.1289,7.1289,7.1289,7.1289,7.1289,7.1289,7.1289,7.1289,7.0364,7.0026,7.0534,7.006,6.9688,6.9451,6.9688,6.9586,6.9113,6.9316,6.9316,6.9113,6.9113,6.9113,4.6955,4.8425,5.032,5.1032,5.3501,5.7119,6.2327,6.4106,6.5899,7.0376,6.9519,6.8251,6.9233,6.8834,0.0,7.2224,7.3571,7.4752,7.629,7.7376,7.811,7.8373,7.9051,7.95,7.95,7.95,0.0,0.0,0.0,0.0,0.0,7.9477,7.95,7.95,7.9477,7.9155,7.8396,7.8396,7.7982,7.7201,7.7201,7.7201,7.7201,7.7201,7.7201,7.7201,7.7201,7.7201,7.7201,7.7201,7.7201,7.7201,7.7201,7.7201,7.7097,7.6373,7.6097,7.5856,7.4326,7.3774,7.3671,7.2933,7.2523,7.2352,7.2607,7.2352,7.2128,7.2565,7.2501,7.2373,7.2607,7.2331,7.1985,7.1985,7.1985,7.1985,7.1985,7.1985,7.1985,7.1985,7.1985,7.1985,7.1985,7.1754,7.1688,7.1942,7.1602,7.1345,7.1556,7.1412,7.1289,7.1289,7.1289,7.1289,7.1289,7.1289,7.1289,7.1289,7.1289,7.1289,7.1289,7.1289,7.0973,7.0195,7.0939,7.0579,6.9113,6.9857,6.9823,6.9113,6.9113,6.9113,4.5046,4.797,5.1691,5.1928,5.6224,6.1231,6.4343,6.5222,6.6508,7.0478,7.0364,6.9674,7.0095,7.0466,0.0,7.2496,7.4014,7.539,7.6358,7.6873,7.7468,7.8304,7.8603,7.8741,7.8741,7.8741,0.0,0.0,0.0,0.0,0.0,7.9017,7.8741,7.8741,7.8166,7.7787,7.7546,7.7546,7.7442,7.7201,7.7201,7.7201,7.7201,7.7201,7.7201,7.7201,7.7201,7.7201,7.7201,7.7201,7.7201,7.7201,7.7201,7.7201,7.7075,7.6161,7.5841,7.5625,7.4508,7.3722,7.3264,7.3058,7.2946,7.2778,7.2351,7.247,7.2712,7.2296,7.2029,7.182,7.1907,7.182,7.1798,7.2137,7.2094,7.1985,7.1985,7.1985,7.1942,7.1766,7.171,7.1678,7.1535,7.1446,7.1424,7.1513,7.1401,7.1334,7.1367,7.1356,7.1289,7.1289,7.1289,7.1289,7.1289,7.1289,7.1289,7.1289,7.1289,7.1289,7.1289,7.1289,7.121,7.0973,7.1188,7.1086,7.0669,7.0872,7.0872,7.0669,7.0669,7.0669,4.7109,5.022,5.4025,5.5513,5.937,6.3652,6.687,6.7756,6.8593,7.0949,7.0836,7.0483,7.0995,7.1547,0.0,7.3297,7.4717,7.5914,7.6519,7.6805,7.7181,7.7856,7.7925,7.7925,7.7925,7.7925,0.0,0.0,0.0,0.0,0.0,7.8166,7.7925,7.7925,7.7442,7.7201,7.7201,7.7201,7.7201,7.7201,7.7201,7.7201,7.7201,7.7201,7.7201,7.7201,7.7201,7.7201,7.7201,7.7201,7.7201,7.7201,7.7201,7.7201,7.7109,7.6527,7.631,7.6128,7.5126,7.4511,7.4032,7.3328,7.3078,7.2942,7.2224,7.2293,7.2566,7.2122,7.1898,7.1754,7.1754,7.1666,7.1644,7.1854,7.1876,7.1832,7.1722,7.1734,7.1656,7.1523,7.1479,7.1434,7.1334,7.1289,7.1289,7.1289,7.1289,7.1289,7.1289,7.1289,7.1289,7.1289,7.1289,7.1289,7.1289,7.1289,7.1289,7.1289,7.1289,7.1289,7.1289,7.1289,7.1289,7.1289,7.1289,7.1289,7.1289,7.1289,7.1289,7.1289,7.1289,7.1289,5.1183,5.3737,5.6612,6.0452,6.2787,6.5271,6.9662,7.1026,7.1424,7.16,0.0,7.0927,7.1883,7.2236,7.2901,7.4356,7.5448,7.6272,7.6713,7.7031,7.7201,7.7201,7.7201,7.7201,7.7201,0.0,0.0,0.0,0.0,0.0,0.0,7.7201,7.7201,7.7201,7.7201,7.7201,7.7201,7.7178,7.7178,7.7178,7.7156,7.7156,7.7178,7.7201,7.7201,7.7201,7.7201,7.7201,7.7201,7.7201,7.7201,7.7201,7.7201,7.7201,7.7201,7.7178,7.7178,7.703,7.6083,7.5719,7.5399,7.3772,7.3239,7.308,7.2261,7.209,7.209,7.1954,7.192,7.192,7.192,7.1788,7.1534,7.1356,7.1434,7.1512,7.1356,7.1289,7.1289,7.1289,7.1289,7.1289,7.1289,7.1289,7.1289,7.1289,7.1289,7.1289,7.1289,7.1289,7.1289,7.1289,7.1289,7.1289,7.1289,7.1289,7.1289,7.1289,7.1289,7.1289,7.1289,7.1289,7.1289,7.1289,7.1289,7.1289,7.1289,7.1289,7.1289,7.1289,7.1289,7.1289,4.8834,5.2216,5.6747,6.1061,6.5603,6.9535,7.1456,7.1883,7.1854,7.1898,7.1783,7.178,7.2167,7.2768,7.3532,7.4459,7.5448,7.6272,7.6713,7.7031,7.7201,7.7201,7.7201,7.7201,7.7201,0.0,0.0,0.0,0.0,0.0,7.7201,7.7201,7.7201,7.7201,7.7201,7.7201,7.7201,7.6986,7.6896,0.0,7.6748,7.6714,7.6896,7.7077,7.7201,7.7201,7.7201,7.7201,7.7201,7.7201,7.7201,7.7201,7.7201,7.7201,7.7178,7.6964,7.6896,7.6839,7.6451,7.58,7.5093,7.4707,7.4444,7.4022,7.2723,7.2723,7.2926,7.1773,7.1446,7.1446,7.1446,7.1523,7.1534,7.1356,7.1334,7.1356,7.1312,7.1289,7.1289,7.1289,7.1289,7.1289,7.1289,7.1289,7.1289,7.1289,7.1289,7.1289,7.1289,7.1289,7.1289,7.1289,7.1289,7.1289,7.1289,7.1289,7.1289,7.1289,7.1289,7.1289,7.1289,7.1289,7.1289,7.1289,7.1289,7.1289,7.1289,7.1289,7.1289,7.1289,7.1289,7.1289,4.9104,5.279,5.7595,6.3264,6.7962,7.142,7.2142,7.2331,7.2331,7.2331,7.2223,7.218,7.2288,7.3035,7.3774,7.4153,7.5273,7.6191,7.6424,7.6892,7.7063,7.6718,7.6994,7.7063,7.6718,0.0,0.0,0.0,0.0,7.7201,7.7201,7.7201,7.7156,7.7009,7.7009,7.6941,7.6862,7.6714,7.6645,7.6645,7.6564,7.6564,7.6668,7.7043,7.7201,7.7201,7.7201,7.7201,7.7201,7.7201,7.7201,7.7201,7.7201,7.7201,7.7178,7.7031,7.6986,7.6964,7.6714,7.6245,7.5638,7.5148,7.4837,7.4299,7.2834,7.2665,7.2732,7.1616,7.1289,7.1289,7.1289,7.1401,7.1434,7.1334,7.1345,7.1412,7.1334,7.1289,7.1289,7.1289,7.1289,7.1289,7.1289,7.1289,7.1289,7.1289,7.1289,7.1289,7.1289,7.1289,7.1289,7.1289,7.1289,7.1289,7.1289,7.1289,7.1289,7.1289,7.1289,7.1289,7.1289,7.1289,7.1289,7.1289,7.1289,7.1356,7.1434,7.1356,7.1356,7.1434,7.1356,7.1289,4.9341,5.3754,5.8952,6.5542,6.9527,7.1914,7.2232,7.2501,7.2692,7.2692,7.2523,7.2373,7.2373,7.3026,7.3658,7.3796,7.4878,7.5775,7.5856,7.6408,7.658,7.596,7.6442,7.6546,0.0,0.0,0.0,0.0,0.0,7.6858,7.7099,7.687,7.6654,7.6576,7.6554,7.6462,7.629,7.638,7.6425,7.6425,7.6425,7.6425,7.6449,7.6885,7.7088,7.7088,7.7088,7.7088,7.7088,7.7088,7.7088,7.7088,7.7088,7.7088,7.7088,7.7088,7.7088,7.7066,7.6828,7.6599,7.63,7.5444,7.5007,7.4559,7.3206,7.2699,7.2462,7.1853,7.1492,7.1323,7.1458,7.1391,7.1289,7.1289,7.1434,7.1523,7.1334,7.1289,7.1289,7.1289,7.1289,7.1289,7.1289,7.1289,7.1289,7.1289,7.1289,7.1289,7.1289,7.1289,7.1289,7.1289,7.1289,7.1289,7.1289,7.1289,7.1289,7.1289,7.1289,7.1289,7.1289,7.1289,7.1289,7.1289,7.1289,7.1367,7.1534,7.1367,7.1401,7.1534,7.1412,7.1334,4.594,5.2909,6.0882,6.595,6.9118,7.1264,7.2095,7.2501,7.2692,0.0,7.2671,7.2649,7.2649,7.2774,7.3071,7.3692,7.3968,7.4326,7.496,7.5167,7.5167,7.5063,7.5167,7.5167,0.0,0.0,0.0,0.0,7.5438,7.5499,7.6804,7.5491,7.4968,7.5561,7.5607,7.5584,7.555,7.5945,7.6145,7.6145,7.6145,7.6145,7.6169,7.6472,7.6587,7.6587,7.6587,7.6587,7.6587,7.6587,7.6587,7.6587,7.6587,7.6587,7.6587,7.6587,7.6587,7.6587,7.6564,7.6379,7.6111,7.602,7.5764,7.5405,7.4559,7.3849,7.3331,7.3229,7.2293,7.1424,7.209,7.1785,7.1289,7.1289,7.1334,7.1334,7.1312,7.1289,7.1289,7.1289,7.1289,7.1289,7.1289,7.1289,7.1289,7.1289,7.1289,7.1289,7.1289,7.1289,7.1289,7.1289,7.1289,7.1289,7.1289,7.1289,7.1289,7.1289,7.1289,7.1289,7.1289,7.1289,7.1289,7.1289,7.1289,7.1312,7.1356,7.1312,7.1312,7.1356,7.1501,7.1479,4.8206,5.3721,5.9512,6.4818,6.7585,6.9493,7.1406,7.1953,7.2174,7.2623,7.2692,7.2692,7.2692,7.2692,7.2795,7.314,7.352,7.3934,7.4257,7.4649,7.4753,7.4326,7.4649,7.4753,0.0,0.0,0.0,0.0,7.4758,7.4727,7.5344,7.4706,7.4388,7.4537,7.4571,7.4503,7.4331,7.4555,7.4621,7.4655,7.5062,7.5242,7.5299,7.5824,7.6239,7.6495,7.6495,7.6495,7.6495,7.6495,7.6495,7.6495,7.6495,7.6495,7.6495,7.6495,7.6495,7.6495,7.6495,7.6332,7.6098,7.6098,7.5899,7.5574,7.483,7.439,7.4018,7.3635,7.3037,7.2597,7.2935,7.2766,7.2529,7.2529,7.2529,7.2428,7.2022,7.1594,7.1289,7.1289,7.1289,7.1289,7.1289,7.1289,7.1289,7.1289,7.1289,7.1289,7.1289,7.1289,7.1289,7.1289,7.1289,7.1289,7.1289,7.1289,7.1289,7.1289,7.1289,7.1289,7.1289,7.1289,7.1289,7.1289,7.1289,7.1379,7.1479,7.1356,7.1379,7.1479,7.1434,7.1434,4.8781,5.2536,5.6177,6.1753,6.4732,6.7038,6.9838,7.0843,7.1367,0.0,7.2554,7.2692,7.2692,7.2692,7.2692,7.2692,7.3175,7.352,7.352,7.3981,7.4154,7.3589,7.4016,0.0,0.0,0.0,0.0,0.0,7.3885,7.3763,7.4173,7.3786,7.3515,7.3515,7.3515,7.3424,7.3229,7.3432,7.35,7.35,7.4052,7.4322,7.4356,7.51,7.5652,7.6036,7.6207,7.6309,7.6309,7.6309,7.6309,7.6309,7.6309,7.6309,7.6309,7.6309,7.6309,7.6309,7.6309,7.6169,7.6004,7.6004,7.5852,7.5608,7.5067,7.4762,7.4525,7.4153,7.3804,7.3567,7.3713,7.3612,7.35,7.35,7.35,7.3297,7.2563,7.1819,7.1289,7.1289,7.1289,7.1289,7.1289,7.1289,7.1289,7.1289,7.1289,7.1289,7.1289,7.1289,7.1289,7.1289,7.1289,7.1289,7.1289,7.1289,7.1289,7.1289,7.1289,7.1289,7.1289,7.1289,7.1289,7.1289,7.1289,7.1345,7.1512,7.1412,7.1457,7.16,7.1501,7.1523,4.4141,4.7173,5.0676,5.5955,6.0118,6.3777,6.6997,6.8981,7.0443,7.1353,7.2174,7.2692,7.2692,7.2692,7.2692,7.2692,7.2726,7.2761,7.2761,7.2795,7.2795,7.2761,7.2795,0.0,0.0,0.0,0.0,0.0,7.2432,7.237,7.3833,7.235,7.1774,7.2451,7.2485,7.2485,7.2462,7.3138,7.35,7.35,7.3534,7.3567,7.3601,7.4322,7.4661,7.4718,7.5452,7.5757,7.5757,7.5757,7.5757,7.5757,7.5757,7.5757,7.5757,7.5757,7.5757,7.5757,7.5757,7.5733,7.5733,7.5733,7.5733,7.5676,7.5642,7.5168,7.4762,7.5405,7.4559,7.3669,7.4356,7.4018,7.35,7.35,7.35,7.3297,7.2563,7.1819,7.1289,7.1289,7.1289,7.1289,7.1289,7.1289,7.1289,7.1289,7.1289,7.1289,7.1289,7.1289,7.1289,7.1289,7.1289,7.1289,7.1289,7.1289,7.1289,7.1289,7.1289,7.1289,7.1289,7.1289,7.1289,7.1289,7.1289,7.1312,7.1312,7.1501,7.16,7.16,7.1854,7.1832,4.4025,4.6413,4.9338,5.3753,5.7103,6.0109,6.319,6.5999,6.8148,6.9006,7.0574,7.1765,7.1912,7.2347,7.2692,7.2692,7.2692,7.2692,7.2692,7.2692,7.2692,7.2692,0.0,0.0,0.0,0.0,0.0,0.0,0.0,7.1627,7.2203,7.1661,7.1424,7.1684,7.1684,7.1684,7.1684,7.1954,7.2326,7.28,7.3274,7.3747,7.4221,7.4965,7.5303,7.5337,7.5574,7.5709,7.5709,7.5709,7.5709,7.5709,7.5709,7.5709,7.5709,7.5709,7.5709,7.5709,7.5709,7.5709,7.5709,7.5709,7.5709,7.5709,7.5709,7.5506,7.5371,7.5642,7.5303,7.4965,7.5236,7.51,7.4897,7.4897,7.4559,7.4119,7.3883,7.324,7.2699,7.2699,7.2326,7.2022,7.2022,7.1616,7.1289,7.1289,7.1289,7.1289,7.1289,7.1289,7.1289,7.1289,7.1289,7.1289,7.1289,7.1289,7.1289,7.1289,7.1289,7.1289,7.1289,7.1289,7.1289,7.1289,7.1289,7.1379,7.1501,7.1556,7.1688,7.1876,7.1942,7.2029,4.2888,4.4688,4.7308,5.1224,5.3392,5.5707,6.0075,6.2901,6.5089,6.6755,6.8904,7.0595,7.1063,7.1795,7.2381,7.2657,7.2692,7.2692,7.2692,7.2692,7.2692,7.2692,0.0,0.0,0.0,0.0,0.0,0.0,0.0,0.0,7.1289,7.1289,7.1289,7.1289,7.1289,7.1289,7.1289,7.1289,7.1548,7.2056,7.2766,7.3375,7.3883,7.4897,7.5337,7.5337,7.5574,7.5709,7.5709,7.5709,7.5709,7.5709,7.5709,7.5709,7.5709,7.5709,7.5709,7.5709,7.5709,7.5709,7.5709,7.5709,7.5709,7.5709,7.5709,7.5709,7.5709,7.5709,7.5709,7.5709,7.5709,7.5709,7.5709,7.5709,7.5337,7.4965,7.4965,7.4187,7.35,7.35,7.3105,7.2766,7.2766,7.236,7.1954,7.1718,7.1684,7.1582,7.1323,7.1289,7.1289,7.1289,7.1289,7.1289,7.1289,7.1289,7.1289,7.1289,7.1289,7.1289,7.1289,7.1289,7.1289,7.1289,7.1289,7.139,7.16,7.1688,7.1754,7.1876,7.1963,7.2072,0.0,0.0,0.0,4.797,0.0,0.0,5.7559,5.9738,6.1264,6.4706,6.7201,6.9082,7.0112,7.0912,7.167,7.2485,7.2657,7.2692,7.2692,7.2692,7.2692,0.0,0.0,0.0,0.0,0.0,0.0,0.0,7.1412,7.1289,7.1289,7.1289,7.1289,7.1289,7.1289,7.1289,7.1289,7.1289,7.1289,7.1323,7.209,7.2428,7.2529,7.3984,7.4637,7.4671,7.5405,7.5709,7.5709,7.5709,7.5709,7.5709,7.5709,7.5709,7.5709,7.5709,7.5709,7.5709,7.5709,7.5709,7.5709,7.5709,7.5709,7.5709,7.5709,7.5709,7.5709,7.5709,7.5709,7.5709,7.5709,7.5709,7.5709,7.5709,7.5709,7.5709,7.5709,7.4559,7.3567,7.3567,7.3567,7.3534,7.3534,7.3534,7.3263,7.2529,7.2428,7.2157,7.1424,7.1289,7.1289,7.1289,7.1289,7.1289,7.1289,7.1289,7.1289,7.1289,7.1289,7.1289,7.1289,7.1289,7.1289,7.1289,7.1289,7.1424,7.16,7.1876,7.1876,7.1622,7.1898,7.2007,4.1102,0.0,0.0,0.0,0.0,0.0,0.0,5.4194,5.6625,6.0327,6.2593,6.4663,6.7241,6.8759,6.9687,6.9928,7.1484,7.2692,7.2692,7.2692,7.2692,0.0,0.0,0.0,0.0,0.0,0.0,0.0,7.1334,7.1289,7.1289,7.1289,7.1289,7.1289,7.1289,7.1289,7.1289,7.1289,7.156,7.209,7.2834,7.3477,7.4018,7.4965,7.5405,7.5405,7.5608,7.5709,7.5709,7.5709,7.5709,7.5709,7.5709,7.5709,7.5709,7.5709,7.5709,7.5709,7.5709,7.5709,7.5709,7.5709,7.5709,7.5709,7.5709,7.5709,7.5709,7.5709,7.5709,7.5709,7.5709,7.5709,7.5709,7.5709,7.5709,7.5709,7.5709,7.5371,7.51,7.51,7.4661,7.4289,7.4289,7.3849,7.3432,7.3229,7.2732,7.2326,7.2124,7.165,7.1289,7.1289,7.1289,7.1289,7.1289,7.1289,7.1289,7.1289,7.1289,7.1289,7.1289,7.1289,7.1289,7.1289,7.1289,7.1334,7.1367,7.1788,7.2029,7.2103,7.2395,7.2501,4.2895,4.3809,0.0,0.0,0.0,0.0,5.0775,5.2111,5.377,0.0,5.9745,6.1686,6.4328,6.6034,6.727,6.7868,6.9742,7.1339,7.1958,7.2337,7.2565,0.0,0.0,0.0,0.0,7.1754,7.1512,7.1312,7.1289,7.1289,7.1289,7.1289,7.1289,7.1289,7.1289,7.1289,7.1289,7.1289,7.1684,7.2394,7.3138,7.3883,7.4627,7.5371,7.5709,7.5709,7.5709,7.5709,7.5709,7.5709,7.5709,7.5709,7.5709,7.5709,7.5709,7.5709,7.5709,7.5709,7.5709,7.5709,7.5709,7.5709,7.5709,7.5709,7.5709,7.5709,7.5709,7.5709,7.5709,7.5709,7.5709,7.5709,7.5709,7.5709,7.5709,7.5709,7.5709,7.5709,7.5709,7.5709,7.5337,7.5067,7.5067,7.4695,7.4289,7.4018,7.3578,7.3206,7.2902,7.2496,7.2225,7.2225,7.1954,7.1751,7.1751,7.1751,7.165,7.1323,7.1594,7.1594,7.1289,7.1289,7.1289,7.1289,7.1367,7.1523,7.17,7.1898,7.2094,7.2309,7.2459,7.2544,4.5379,4.5568,0.0,0.0,0.0,0.0,5.1555,5.1826,5.2078,0.0,5.7492,5.9166,6.1254,6.2837,6.4279,6.5647,6.7239,6.8953,7.0799,7.167,0.0,0.0,0.0,0.0,7.1963,7.1744,7.1501,7.1312,7.1289,7.1289,7.1289,7.1289,7.1289,7.1289,7.1289,7.1289,7.1289,7.1289,7.1684,7.2394,7.3138,7.3883,7.4627,7.5371,7.5709,7.5709,7.5709,7.5709,7.5709,7.5709,7.5709,7.5709,7.5709,7.5709,7.5709,7.5709,7.5709,7.5709,7.5709,7.5709,7.5709,7.5709,7.5709,7.5709,7.5709,7.5709,7.5709,7.5709,7.5709,7.5709,7.5709,7.5709,7.5709,7.5709,7.5709,7.5709,7.5709,7.5709,7.5709,7.5709,7.5709,7.5709,7.5709,7.5709,7.5473,7.483,7.4637,7.4356,7.3713,7.3567,7.35,7.35,7.2902,7.2529,7.2529,7.2529,7.2225,7.1594,7.2157,7.2225,7.156,7.1458,7.1424,7.1424,7.1535,7.182,7.2309,7.2115,7.2137,7.2352,7.2352,7.2352,4.7665,4.824,4.9086,4.8462,0.0,0.0,4.7767,4.8815,5.0523,0.0,5.2309,5.4072,5.7462,5.8825,5.9711,6.0597,6.2877,6.5854,6.9533,7.0704,0.0,0.0,0.0,0.0,7.1666,7.1479,7.1356,7.1312,7.1289,7.1289,7.1289,7.1289,7.1289,7.1289,7.1289,7.1289,7.1289,7.1289,7.1684,7.2394,7.3138,7.3883,7.4627,7.5371,7.5709,7.5709,7.5709,7.5709,7.5709,7.5709,7.5709,7.5709,7.5709,7.5709,7.5709,7.5709,7.5709,7.5709,7.5709,7.5709,7.5709,7.5709,7.5709,7.5709,7.5709,7.5709,7.5709,7.5709,7.5709,7.5709,7.5709,7.5709,7.5709,7.5709,7.5709,7.5709,7.5709,7.5709,7.5709,7.5709,7.5709,7.5709,7.5709,7.5709,7.5642,7.5506,7.4999,7.4536,7.4424,7.3849,7.35,7.35,7.3364,7.3297,7.3297,7.3297,7.3206,7.3071,7.3229,7.3206,7.3071,7.2496,7.2191,7.2191,7.1795,7.182,7.2309,7.2266,7.2373,7.2607,7.2607,7.2607,5.0153,5.0085,5.0744,5.115,0.0,0.0,0.0,5.0101,5.0523,5.2045,5.1806,5.231,5.5434,5.6302,5.6931,5.8019,6.0321,6.2678,6.4684,0.0,0.0,0.0,0.0,0.0,7.1056,7.1209,7.1289,7.1289,7.1289,7.1289,7.1289,7.1289,7.1289,7.1289,7.1289,7.1289,7.1289,7.1289,7.1853,7.2935,7.3331,7.4086,7.5168,7.554,7.5709,7.5709,7.5709,7.5709,7.5709,7.5709,7.5709,7.5709,7.5709,7.5709,7.5709,7.5709,7.5709,7.5709,7.5709,7.5709,7.5709,7.5709,7.5709,7.5709,7.5709,7.5709,7.5709,7.5709,7.5709,7.5709,7.5709,7.5709,7.5709,7.5709,7.5709,7.5709,7.5709,7.5709,7.5709,7.5709,7.5709,7.5709,7.5709,7.5709,7.5709,7.5709,7.5405,7.5168,7.5168,7.483,7.4593,7.4593,7.4255,7.4052,7.4052,7.4052,7.3883,7.3534,7.3849,7.3883,7.3534,7.3138,7.2881,7.2756,7.2119,7.205,7.2501,7.2501,7.2565,7.2692,7.2692,7.2692,0.0,0.0,0.0,0.0,0.0,5.2485,0.0,0.0,0.0,5.3145,5.23,0.0,0.0,0.0,0.0,0.0,0.0,0.0,0.0,0.0,0.0,0.0,0.0,0.0,6.9768,7.0068,7.0398,7.0816,7.0579,7.0613,7.1075,7.1222,7.1289,7.1289,7.1289,7.1289,7.1289,7.1289,7.1988,7.3297,7.3297,7.4052,7.5473,7.5473,7.5574,7.5709,7.5709,7.5709,7.5709,7.5709,7.5709,7.5709,7.5709,7.5709,7.5709,7.5709,7.5709,7.5709,7.5709,7.5709,7.5709,7.5709,7.5709,7.5709,7.5709,7.5709,7.5709,7.5709,7.5709,7.5709,7.5709,7.5709,7.5709,7.5709,7.5709,7.5709,7.5709,7.5709,7.5709,7.5709,7.5709,7.5709,7.5709,7.5709,7.5709,7.5709,7.5709,7.5709,7.5709,7.5709,7.5709,7.5709,7.5168,7.4806,7.4806,7.4806,7.4559,7.3974,7.4492,7.4559,7.395,7.3851,7.364,7.3318,7.2781,7.2644,7.2899,7.2899,7.283,7.2692,7.2692,7.2692,0.0,0.0,0.0,0.0,5.734,0.0,0.0,0.0,5.3247,5.0236,0.0,0.0,0.0,0.0,0.0,0.0,0.0,0.0,0.0,0.0,0.0,0.0,0.0,0.0,0.0,6.6698,6.7151,6.9214,6.8098,6.8199,7.0195,7.0939,7.1289,7.1289,7.1289,7.1289,7.1289,7.1289,7.1718,7.2529,7.2529,7.3308,7.4705,7.4705,7.51,7.5709,7.5709,7.5709,7.5709,7.5709,7.5709,7.5709,7.5709,7.5709,7.5709,7.5709,7.5709,7.5709,7.5709,7.5709,7.5709,7.5709,7.5709,7.5709,7.5709,7.5709,7.5709,7.5709,7.5709,7.5709,7.5709,7.5709,7.5709,7.5709,7.5709,7.5709,7.5709,7.5709,7.5709,7.5709,7.5709,7.5709,7.5709,7.5709,7.5709,7.5709,7.5709,7.5709,7.5709,7.5709,7.5709,7.5709,7.5642,7.5574,7.5574,7.5574,7.554,7.5473,7.554,7.554,7.5439,7.5064,7.4582,7.4069,7.4223,7.41,7.3692,7.3692,7.3347,7.2692,7.2692,7.2692,0.0,0.0,0.0,0.0,0.0,0.0,0.0,0.0,5.3078,0.0,0.0,0.0,0.0,0.0,0.0,0.0,0.0,0.0,0.0,0.0,0.0,0.0,0.0,0.0,0.0,0.0,0.0,0.0,6.6542,6.7151,6.9451,7.0263,7.0872,7.1289,7.1289,7.1289,7.1289,7.1289,7.1684,7.2394,7.2834,7.3578,7.4603,7.5033,7.5405,7.5709,7.5709,7.5709,7.5709,7.5709,7.5709,7.5709,7.5709,7.5709,7.5709,7.5709,7.5709,7.5709,7.5709,7.5709,7.5709,7.5709,7.5709,7.5709,7.5709,7.5709,7.5709,7.5709,7.5709,7.5709,7.5709,7.5709,7.5709,7.5709,7.5709,7.5709,7.5709,7.5709,7.5709,7.5709,7.5709,7.5709,7.5709,7.5709,7.5709,7.5709,7.5709,7.5709,7.5709,7.5709,7.5709,7.5709,7.5709,7.5709,7.5709,7.5709,7.5709,7.5709,7.5852,7.5994,7.6135,7.5559,7.5174,7.5058,7.4758,7.4535,7.4442,7.4016,7.3658,7.3347,7.2899,7.2692,6.008,0.0,0.0,0.0,0.0,0.0,0.0,0.0,0.0,0.0,0.0,0.0,0.0,0.0,0.0,0.0,0.0,0.0,0.0,0.0,0.0,0.0,0.0,0.0,0.0,0.0,0.0,0.0,0.0,6.5121,6.7996,6.9045,6.9992,7.0973,7.1188,7.1289,7.1289,7.1289,7.156,7.209,7.2631,7.3375,7.4322,7.4864,7.5303,7.5709,7.5709,7.5709,7.5709,7.5709,7.5709,7.5709,7.5709,7.5709,7.5709,7.5709,7.5709,7.5709,7.5709,7.5709,7.5709,7.5709,7.5709,7.5709,7.5709,7.5709,7.5709,7.5709,7.5709,7.5709,7.5709,7.5709,7.5709,7.5709,7.5709,7.5709,7.5709,7.5709,7.5709,7.5709,7.5709,7.5709,7.5709,7.5709,7.5709,7.5709,7.5709,7.5709,7.5709,7.5709,7.5709,7.5709,7.5709,7.5709,7.5709,7.5781,7.5852,7.5923,7.6017,7.6216,7.6495,7.604,7.5846,7.6004,7.5556,7.5288,7.5235,7.4705,7.4326,7.4085,7.314,7.2692,0.0,0.0,0.0,5.9336,0.0,0.0,0.0,0.0,5.6055,0.0,0.0,0.0,0.0,0.0,0.0,0.0,0.0,0.0,0.0,0.0,0.0,0.0,0.0,0.0,0.0,0.0,0.0,0.0,6.0061,0.0,6.5581,6.7184,6.8673,7.0195,7.0939,7.1289,7.1289,7.1289,7.1289,7.1323,7.1357,7.2124,7.3534,7.3567,7.4322,7.5709,7.5709,7.5709,7.5709,7.5709,7.5709,7.5709,7.5709,7.5709,7.5709,7.5709,7.5709,7.5709,7.5709,7.5709,7.5709,7.5709,7.5709,7.5709,7.5709,7.5709,7.5709,7.5709,7.5709,7.5709,7.5709,7.5709,7.5709,7.5709,7.5709,7.5709,7.5709,7.5709,7.5709,7.5709,7.5709,7.5709,7.5709,7.5709,7.5709,7.5709,7.5709,7.5709,7.5709,7.5709,7.5709,7.5709,7.5709,7.5709,7.5709,7.5923,7.6192,7.6449,7.6239,7.6216,7.6495,7.6656,7.6759,7.6759,7.702,7.6787,7.6063,7.6029,7.5615,7.4822,7.336,7.2692,0.0,0.0,6.7117,6.211,0.0,0.0,0.0,0.0,0.0,0.0,0.0,0.0,0.0,0.0,0.0,0.0,0.0,0.0,0.0,0.0,0.0,0.0,0.0,0.0,0.0,0.0,0.0,0.0,5.8743,0.0,0.0,6.6576,6.8368,6.9451,7.0669,7.1289,7.1289,7.1289,7.1289,7.1289,7.1785,7.2529,7.3534,7.4018,7.4762,7.5709,7.5709,7.5709,7.5709,7.5709,7.5709,7.5709,7.5709,7.5709,7.5709,7.5709,7.5709,7.5709,7.5709,7.5709,7.5709,7.5709,7.5709,7.5709,7.5709,7.5709,7.5709,7.5709,7.5709,7.5709,7.5709,7.5709,7.5709,7.5709,7.5709,7.5709,7.5709,7.5709,7.5709,7.5709,7.5709,7.5709,7.5709,7.5709,7.5709,7.5709,7.5709,7.5709,7.5709,7.5709,7.5709,7.5709,7.5709,7.5709,7.5709,7.5781,7.6017,7.6472,7.6402,7.6541,7.6953,7.7043,7.7054,7.7054,7.7156,7.7063,7.6822,7.6339,7.596,7.5684,7.4615,7.3878,6.8132,6.8504,0.0,6.4174,6.3159,0.0,5.7509,0.0,0.0,0.0,0.0,0.0,0.0,0.0,0.0,0.0,0.0,0.0,0.0,0.0,0.0,0.0,0.0,0.0,0.0,0.0,5.4397,5.5886,5.69,0.0,0.0,0.0,6.732,6.8639,7.0376,7.1289,7.1289,7.1289,7.1289,7.1289,7.1785,7.2529,7.3534,7.3984,7.4762,7.5709,7.5709,7.5709,7.5709,7.5709,7.5709,7.5709,7.5709,7.5709,7.5709,7.5709,7.5709,7.5709,7.5709,7.5709,7.5709,7.5709,7.5709,7.5709,7.5709,7.5709,7.5709,7.5709,7.5709,7.5709,7.5709,7.5709,7.5709,7.5709,7.5709,7.5709,7.5709,7.5709,7.5709,7.5709,7.5709,7.5709,7.5709,7.5709,7.5709,7.5709,7.5709,7.5709,7.5709,7.5709,7.5709,7.5709,7.5709,7.5781,7.597,7.5899,7.6088,7.6725,7.6679,7.6794,7.7178,7.7201,7.7201,7.7201,7.7201,7.7201,7.7201,7.6718,7.6477,7.6477,7.5684,7.5063]}]]